<?xml version="1.0" encoding="UTF-8" standalone="no" ?>
<gpx xmlns="http://www.topografix.com/GPX/1/1" xmlns:xsi="http://www.w3.org/2001/XMLSchema-instance" xsi:schemaLocation="http://www.topografix.com/GPX/1/1 http://www.topografix.com/GPX/1/1/gpx.xsd" version="1.1" creator="VisuGPX - https://www.visugpx.com">
  <metadata>
    <name>Ubaye- Le Cimet - 3020m </name>
    <desc><![CDATA[Le "Cimet" : aller-retour en passant par le petit col de Talon, départ du point 2062m sur la route du col de la Cayolle.]]></desc>
  </metadata>
  <trk>
    <name><![CDATA[2018-07-08 10:11]]></name>
    <trkseg>
      <trkpt lat="44.27958" lon="6.73418">
        <ele>2154</ele>
        <time>2018-07-08T08:13:25Z</time>
      </trkpt>
      <trkpt lat="44.27954" lon="6.73414">
        <ele>2163</ele>
        <time>2018-07-08T08:13:45Z</time>
      </trkpt>
      <trkpt lat="44.27948" lon="6.73412">
        <ele>2162</ele>
        <time>2018-07-08T08:13:51Z</time>
      </trkpt>
      <trkpt lat="44.27943" lon="6.73408">
        <ele>2161</ele>
        <time>2018-07-08T08:13:57Z</time>
      </trkpt>
      <trkpt lat="44.27941" lon="6.734">
        <ele>2161</ele>
        <time>2018-07-08T08:14:03Z</time>
      </trkpt>
      <trkpt lat="44.2794" lon="6.73393">
        <ele>2162</ele>
        <time>2018-07-08T08:14:09Z</time>
      </trkpt>
      <trkpt lat="44.2794" lon="6.73385">
        <ele>2164</ele>
        <time>2018-07-08T08:14:13Z</time>
      </trkpt>
      <trkpt lat="44.27938" lon="6.73377">
        <ele>2165</ele>
        <time>2018-07-08T08:14:19Z</time>
      </trkpt>
      <trkpt lat="44.27936" lon="6.73371">
        <ele>2165</ele>
        <time>2018-07-08T08:14:25Z</time>
      </trkpt>
      <trkpt lat="44.27935" lon="6.73364">
        <ele>2166</ele>
        <time>2018-07-08T08:14:31Z</time>
      </trkpt>
      <trkpt lat="44.27933" lon="6.73356">
        <ele>2166</ele>
        <time>2018-07-08T08:14:37Z</time>
      </trkpt>
      <trkpt lat="44.2793" lon="6.73351">
        <ele>2166</ele>
        <time>2018-07-08T08:14:43Z</time>
      </trkpt>
      <trkpt lat="44.27925" lon="6.73348">
        <ele>2165</ele>
        <time>2018-07-08T08:14:49Z</time>
      </trkpt>
      <trkpt lat="44.2792" lon="6.73348">
        <ele>2165</ele>
        <time>2018-07-08T08:14:55Z</time>
      </trkpt>
      <trkpt lat="44.27915" lon="6.73348">
        <ele>2161</ele>
        <time>2018-07-08T08:15:01Z</time>
      </trkpt>
      <trkpt lat="44.2791" lon="6.73349">
        <ele>2161</ele>
        <time>2018-07-08T08:15:07Z</time>
      </trkpt>
      <trkpt lat="44.27905" lon="6.73348">
        <ele>2161</ele>
        <time>2018-07-08T08:15:13Z</time>
      </trkpt>
      <trkpt lat="44.27899" lon="6.73347">
        <ele>2162</ele>
        <time>2018-07-08T08:15:19Z</time>
      </trkpt>
      <trkpt lat="44.27893" lon="6.73347">
        <ele>2162</ele>
        <time>2018-07-08T08:15:27Z</time>
      </trkpt>
      <trkpt lat="44.27887" lon="6.73346">
        <ele>2162</ele>
        <time>2018-07-08T08:15:33Z</time>
      </trkpt>
      <trkpt lat="44.27882" lon="6.7334">
        <ele>2162</ele>
        <time>2018-07-08T08:15:39Z</time>
      </trkpt>
      <trkpt lat="44.27879" lon="6.73335">
        <ele>2163</ele>
        <time>2018-07-08T08:15:43Z</time>
      </trkpt>
      <trkpt lat="44.27875" lon="6.7333">
        <ele>2171</ele>
        <time>2018-07-08T08:15:47Z</time>
      </trkpt>
      <trkpt lat="44.27874" lon="6.73323">
        <ele>2171</ele>
        <time>2018-07-08T08:15:51Z</time>
      </trkpt>
      <trkpt lat="44.27874" lon="6.73317">
        <ele>2171</ele>
        <time>2018-07-08T08:15:55Z</time>
      </trkpt>
      <trkpt lat="44.27875" lon="6.73311">
        <ele>2172</ele>
        <time>2018-07-08T08:15:59Z</time>
      </trkpt>
      <trkpt lat="44.27875" lon="6.73304">
        <ele>2172</ele>
        <time>2018-07-08T08:16:03Z</time>
      </trkpt>
      <trkpt lat="44.27874" lon="6.73295">
        <ele>2173</ele>
        <time>2018-07-08T08:16:09Z</time>
      </trkpt>
      <trkpt lat="44.27872" lon="6.73288">
        <ele>2173</ele>
        <time>2018-07-08T08:16:15Z</time>
      </trkpt>
      <trkpt lat="44.27872" lon="6.73281">
        <ele>2174</ele>
        <time>2018-07-08T08:16:21Z</time>
      </trkpt>
      <trkpt lat="44.27872" lon="6.73273">
        <ele>2174</ele>
        <time>2018-07-08T08:16:27Z</time>
      </trkpt>
      <trkpt lat="44.27872" lon="6.73267">
        <ele>2175</ele>
        <time>2018-07-08T08:16:31Z</time>
      </trkpt>
      <trkpt lat="44.27872" lon="6.73259">
        <ele>2175</ele>
        <time>2018-07-08T08:16:37Z</time>
      </trkpt>
      <trkpt lat="44.27871" lon="6.73252">
        <ele>2175</ele>
        <time>2018-07-08T08:16:43Z</time>
      </trkpt>
      <trkpt lat="44.2787" lon="6.73245">
        <ele>2183</ele>
        <time>2018-07-08T08:16:49Z</time>
      </trkpt>
      <trkpt lat="44.2787" lon="6.73238">
        <ele>2183</ele>
        <time>2018-07-08T08:16:55Z</time>
      </trkpt>
      <trkpt lat="44.27868" lon="6.7323">
        <ele>2183</ele>
        <time>2018-07-08T08:17:01Z</time>
      </trkpt>
      <trkpt lat="44.27868" lon="6.73223">
        <ele>2184</ele>
        <time>2018-07-08T08:17:07Z</time>
      </trkpt>
      <trkpt lat="44.27867" lon="6.73217">
        <ele>2184</ele>
        <time>2018-07-08T08:17:13Z</time>
      </trkpt>
      <trkpt lat="44.27866" lon="6.73211">
        <ele>2185</ele>
        <time>2018-07-08T08:17:19Z</time>
      </trkpt>
      <trkpt lat="44.27864" lon="6.73204">
        <ele>2185</ele>
        <time>2018-07-08T08:17:25Z</time>
      </trkpt>
      <trkpt lat="44.27862" lon="6.73196">
        <ele>2185</ele>
        <time>2018-07-08T08:17:33Z</time>
      </trkpt>
      <trkpt lat="44.27859" lon="6.73191">
        <ele>2185</ele>
        <time>2018-07-08T08:17:37Z</time>
      </trkpt>
      <trkpt lat="44.27857" lon="6.73182">
        <ele>2185</ele>
        <time>2018-07-08T08:17:45Z</time>
      </trkpt>
      <trkpt lat="44.2786" lon="6.73177">
        <ele>2185</ele>
        <time>2018-07-08T08:17:53Z</time>
      </trkpt>
      <trkpt lat="44.27866" lon="6.73179">
        <ele>2186</ele>
        <time>2018-07-08T08:17:59Z</time>
      </trkpt>
      <trkpt lat="44.2787" lon="6.73182">
        <ele>2187</ele>
        <time>2018-07-08T08:18:03Z</time>
      </trkpt>
      <trkpt lat="44.27875" lon="6.73188">
        <ele>2187</ele>
        <time>2018-07-08T08:18:09Z</time>
      </trkpt>
      <trkpt lat="44.27877" lon="6.73194">
        <ele>2187</ele>
        <time>2018-07-08T08:18:13Z</time>
      </trkpt>
      <trkpt lat="44.27879" lon="6.73199">
        <ele>2187</ele>
        <time>2018-07-08T08:18:17Z</time>
      </trkpt>
      <trkpt lat="44.27881" lon="6.73206">
        <ele>2186</ele>
        <time>2018-07-08T08:18:21Z</time>
      </trkpt>
      <trkpt lat="44.27881" lon="6.73212">
        <ele>2186</ele>
        <time>2018-07-08T08:18:25Z</time>
      </trkpt>
      <trkpt lat="44.27884" lon="6.73218">
        <ele>2186</ele>
        <time>2018-07-08T08:18:29Z</time>
      </trkpt>
      <trkpt lat="44.27887" lon="6.73226">
        <ele>2185</ele>
        <time>2018-07-08T08:18:35Z</time>
      </trkpt>
      <trkpt lat="44.2789" lon="6.73232">
        <ele>2185</ele>
        <time>2018-07-08T08:18:39Z</time>
      </trkpt>
      <trkpt lat="44.27893" lon="6.73237">
        <ele>2185</ele>
        <time>2018-07-08T08:18:43Z</time>
      </trkpt>
      <trkpt lat="44.27895" lon="6.73243">
        <ele>2185</ele>
        <time>2018-07-08T08:18:47Z</time>
      </trkpt>
      <trkpt lat="44.27898" lon="6.73251">
        <ele>2179</ele>
        <time>2018-07-08T08:18:51Z</time>
      </trkpt>
      <trkpt lat="44.27902" lon="6.73256">
        <ele>2179</ele>
        <time>2018-07-08T08:18:55Z</time>
      </trkpt>
      <trkpt lat="44.27906" lon="6.7326">
        <ele>2179</ele>
        <time>2018-07-08T08:18:59Z</time>
      </trkpt>
      <trkpt lat="44.27911" lon="6.73263">
        <ele>2179</ele>
        <time>2018-07-08T08:19:03Z</time>
      </trkpt>
      <trkpt lat="44.27916" lon="6.73263">
        <ele>2180</ele>
        <time>2018-07-08T08:19:07Z</time>
      </trkpt>
      <trkpt lat="44.27923" lon="6.73262">
        <ele>2187</ele>
        <time>2018-07-08T08:19:13Z</time>
      </trkpt>
      <trkpt lat="44.27929" lon="6.7326">
        <ele>2187</ele>
        <time>2018-07-08T08:19:21Z</time>
      </trkpt>
      <trkpt lat="44.27936" lon="6.73259">
        <ele>2189</ele>
        <time>2018-07-08T08:19:27Z</time>
      </trkpt>
      <trkpt lat="44.27941" lon="6.73256">
        <ele>2190</ele>
        <time>2018-07-08T08:19:33Z</time>
      </trkpt>
      <trkpt lat="44.27946" lon="6.73253">
        <ele>2191</ele>
        <time>2018-07-08T08:19:39Z</time>
      </trkpt>
      <trkpt lat="44.27943" lon="6.73248">
        <ele>2201</ele>
        <time>2018-07-08T08:19:53Z</time>
      </trkpt>
      <trkpt lat="44.27939" lon="6.73244">
        <ele>2200</ele>
        <time>2018-07-08T08:20:01Z</time>
      </trkpt>
      <trkpt lat="44.27934" lon="6.73242">
        <ele>2198</ele>
        <time>2018-07-08T08:20:09Z</time>
      </trkpt>
      <trkpt lat="44.27929" lon="6.73237">
        <ele>2197</ele>
        <time>2018-07-08T08:20:21Z</time>
      </trkpt>
      <trkpt lat="44.27925" lon="6.73232">
        <ele>2198</ele>
        <time>2018-07-08T08:20:27Z</time>
      </trkpt>
      <trkpt lat="44.27924" lon="6.73225">
        <ele>2200</ele>
        <time>2018-07-08T08:20:35Z</time>
      </trkpt>
      <trkpt lat="44.2792" lon="6.7322">
        <ele>2201</ele>
        <time>2018-07-08T08:20:41Z</time>
      </trkpt>
      <trkpt lat="44.27916" lon="6.73214">
        <ele>2188</ele>
        <time>2018-07-08T08:20:49Z</time>
      </trkpt>
      <trkpt lat="44.27911" lon="6.73208">
        <ele>2188</ele>
        <time>2018-07-08T08:20:59Z</time>
      </trkpt>
      <trkpt lat="44.27909" lon="6.73202">
        <ele>2189</ele>
        <time>2018-07-08T08:21:09Z</time>
      </trkpt>
      <trkpt lat="44.27906" lon="6.73196">
        <ele>2190</ele>
        <time>2018-07-08T08:21:15Z</time>
      </trkpt>
      <trkpt lat="44.27905" lon="6.73189">
        <ele>2191</ele>
        <time>2018-07-08T08:21:23Z</time>
      </trkpt>
      <trkpt lat="44.27903" lon="6.73183">
        <ele>2192</ele>
        <time>2018-07-08T08:21:59Z</time>
      </trkpt>
      <trkpt lat="44.27902" lon="6.73176">
        <ele>2193</ele>
        <time>2018-07-08T08:22:05Z</time>
      </trkpt>
      <trkpt lat="44.27902" lon="6.73169">
        <ele>2194</ele>
        <time>2018-07-08T08:22:11Z</time>
      </trkpt>
      <trkpt lat="44.27901" lon="6.73162">
        <ele>2199</ele>
        <time>2018-07-08T08:22:17Z</time>
      </trkpt>
      <trkpt lat="44.27901" lon="6.73155">
        <ele>2199</ele>
        <time>2018-07-08T08:22:23Z</time>
      </trkpt>
      <trkpt lat="44.27903" lon="6.73149">
        <ele>2199</ele>
        <time>2018-07-08T08:22:29Z</time>
      </trkpt>
      <trkpt lat="44.27908" lon="6.73143">
        <ele>2199</ele>
        <time>2018-07-08T08:22:35Z</time>
      </trkpt>
      <trkpt lat="44.27912" lon="6.73139">
        <ele>2199</ele>
        <time>2018-07-08T08:22:43Z</time>
      </trkpt>
      <trkpt lat="44.27916" lon="6.73135">
        <ele>2200</ele>
        <time>2018-07-08T08:22:49Z</time>
      </trkpt>
      <trkpt lat="44.27919" lon="6.73131">
        <ele>2217</ele>
        <time>2018-07-08T08:22:55Z</time>
      </trkpt>
      <trkpt lat="44.27923" lon="6.73127">
        <ele>2218</ele>
        <time>2018-07-08T08:23:01Z</time>
      </trkpt>
      <trkpt lat="44.27925" lon="6.73121">
        <ele>2219</ele>
        <time>2018-07-08T08:23:09Z</time>
      </trkpt>
      <trkpt lat="44.27928" lon="6.73114">
        <ele>2219</ele>
        <time>2018-07-08T08:23:15Z</time>
      </trkpt>
      <trkpt lat="44.2793" lon="6.73107">
        <ele>2219</ele>
        <time>2018-07-08T08:23:21Z</time>
      </trkpt>
      <trkpt lat="44.2793" lon="6.731">
        <ele>2219</ele>
        <time>2018-07-08T08:23:29Z</time>
      </trkpt>
      <trkpt lat="44.27929" lon="6.73093">
        <ele>2218</ele>
        <time>2018-07-08T08:23:41Z</time>
      </trkpt>
      <trkpt lat="44.27925" lon="6.73087">
        <ele>2216</ele>
        <time>2018-07-08T08:23:51Z</time>
      </trkpt>
      <trkpt lat="44.27923" lon="6.73081">
        <ele>2218</ele>
        <time>2018-07-08T08:23:59Z</time>
      </trkpt>
      <trkpt lat="44.27924" lon="6.73072">
        <ele>2223</ele>
        <time>2018-07-08T08:24:11Z</time>
      </trkpt>
      <trkpt lat="44.27926" lon="6.73067">
        <ele>2226</ele>
        <time>2018-07-08T08:24:17Z</time>
      </trkpt>
      <trkpt lat="44.2793" lon="6.73062">
        <ele>2229</ele>
        <time>2018-07-08T08:24:23Z</time>
      </trkpt>
      <trkpt lat="44.27934" lon="6.73056">
        <ele>2232</ele>
        <time>2018-07-08T08:24:31Z</time>
      </trkpt>
      <trkpt lat="44.27928" lon="6.73053">
        <ele>2231</ele>
        <time>2018-07-08T08:24:37Z</time>
      </trkpt>
      <trkpt lat="44.27925" lon="6.73048">
        <ele>2232</ele>
        <time>2018-07-08T08:24:45Z</time>
      </trkpt>
      <trkpt lat="44.27927" lon="6.73039">
        <ele>2234</ele>
        <time>2018-07-08T08:24:55Z</time>
      </trkpt>
      <trkpt lat="44.27923" lon="6.73041">
        <ele>2233</ele>
        <time>2018-07-08T08:25:01Z</time>
      </trkpt>
      <trkpt lat="44.27919" lon="6.7304">
        <ele>2233</ele>
        <time>2018-07-08T08:25:44Z</time>
      </trkpt>
      <trkpt lat="44.27918" lon="6.73031">
        <ele>2234</ele>
        <time>2018-07-08T08:25:50Z</time>
      </trkpt>
      <trkpt lat="44.27914" lon="6.73028">
        <ele>2217</ele>
        <time>2018-07-08T08:26:02Z</time>
      </trkpt>
      <trkpt lat="44.27909" lon="6.73016">
        <ele>2220</ele>
        <time>2018-07-08T08:26:11Z</time>
      </trkpt>
      <trkpt lat="44.27907" lon="6.73011">
        <ele>2221</ele>
        <time>2018-07-08T08:26:16Z</time>
      </trkpt>
      <trkpt lat="44.27902" lon="6.73011">
        <ele>2220</ele>
        <time>2018-07-08T08:26:24Z</time>
      </trkpt>
      <trkpt lat="44.279" lon="6.72998">
        <ele>2227</ele>
        <time>2018-07-08T08:26:30Z</time>
      </trkpt>
      <trkpt lat="44.27901" lon="6.72991">
        <ele>2227</ele>
        <time>2018-07-08T08:26:34Z</time>
      </trkpt>
      <trkpt lat="44.27899" lon="6.72983">
        <ele>2227</ele>
        <time>2018-07-08T08:26:40Z</time>
      </trkpt>
      <trkpt lat="44.27904" lon="6.72973">
        <ele>2228</ele>
        <time>2018-07-08T08:26:44Z</time>
      </trkpt>
      <trkpt lat="44.27904" lon="6.72964">
        <ele>2229</ele>
        <time>2018-07-08T08:26:50Z</time>
      </trkpt>
      <trkpt lat="44.27904" lon="6.72958">
        <ele>2230</ele>
        <time>2018-07-08T08:26:54Z</time>
      </trkpt>
      <trkpt lat="44.27903" lon="6.72951">
        <ele>2231</ele>
        <time>2018-07-08T08:26:58Z</time>
      </trkpt>
      <trkpt lat="44.27904" lon="6.72944">
        <ele>2233</ele>
        <time>2018-07-08T08:27:02Z</time>
      </trkpt>
      <trkpt lat="44.27903" lon="6.72937">
        <ele>2235</ele>
        <time>2018-07-08T08:27:08Z</time>
      </trkpt>
      <trkpt lat="44.27901" lon="6.7293">
        <ele>2236</ele>
        <time>2018-07-08T08:27:14Z</time>
      </trkpt>
      <trkpt lat="44.279" lon="6.72924">
        <ele>2237</ele>
        <time>2018-07-08T08:27:22Z</time>
      </trkpt>
      <trkpt lat="44.27899" lon="6.72916">
        <ele>2243</ele>
        <time>2018-07-08T08:27:28Z</time>
      </trkpt>
      <trkpt lat="44.27901" lon="6.72909">
        <ele>2243</ele>
        <time>2018-07-08T08:27:32Z</time>
      </trkpt>
      <trkpt lat="44.27903" lon="6.729">
        <ele>2243</ele>
        <time>2018-07-08T08:27:42Z</time>
      </trkpt>
      <trkpt lat="44.279" lon="6.72893">
        <ele>2242</ele>
        <time>2018-07-08T08:27:48Z</time>
      </trkpt>
      <trkpt lat="44.27902" lon="6.72887">
        <ele>2242</ele>
        <time>2018-07-08T08:27:52Z</time>
      </trkpt>
      <trkpt lat="44.27904" lon="6.72879">
        <ele>2243</ele>
        <time>2018-07-08T08:27:58Z</time>
      </trkpt>
      <trkpt lat="44.27907" lon="6.72873">
        <ele>2243</ele>
        <time>2018-07-08T08:28:02Z</time>
      </trkpt>
      <trkpt lat="44.27902" lon="6.7287">
        <ele>2243</ele>
        <time>2018-07-08T08:28:08Z</time>
      </trkpt>
      <trkpt lat="44.279" lon="6.72865">
        <ele>2243</ele>
        <time>2018-07-08T08:28:16Z</time>
      </trkpt>
      <trkpt lat="44.27898" lon="6.72859">
        <ele>2244</ele>
        <time>2018-07-08T08:28:22Z</time>
      </trkpt>
      <trkpt lat="44.279" lon="6.72851">
        <ele>2246</ele>
        <time>2018-07-08T08:28:30Z</time>
      </trkpt>
      <trkpt lat="44.27901" lon="6.72844">
        <ele>2248</ele>
        <time>2018-07-08T08:28:38Z</time>
      </trkpt>
      <trkpt lat="44.27902" lon="6.72837">
        <ele>2250</ele>
        <time>2018-07-08T08:28:46Z</time>
      </trkpt>
      <trkpt lat="44.27898" lon="6.72833">
        <ele>2254</ele>
        <time>2018-07-08T08:28:50Z</time>
      </trkpt>
      <trkpt lat="44.27894" lon="6.72828">
        <ele>2252</ele>
        <time>2018-07-08T08:28:56Z</time>
      </trkpt>
      <trkpt lat="44.2789" lon="6.72823">
        <ele>2251</ele>
        <time>2018-07-08T08:29:02Z</time>
      </trkpt>
      <trkpt lat="44.27888" lon="6.72818">
        <ele>2250</ele>
        <time>2018-07-08T08:29:08Z</time>
      </trkpt>
      <trkpt lat="44.2789" lon="6.72809">
        <ele>2251</ele>
        <time>2018-07-08T08:29:14Z</time>
      </trkpt>
      <trkpt lat="44.27893" lon="6.72802">
        <ele>2252</ele>
        <time>2018-07-08T08:29:18Z</time>
      </trkpt>
      <trkpt lat="44.27889" lon="6.72798">
        <ele>2251</ele>
        <time>2018-07-08T08:29:22Z</time>
      </trkpt>
      <trkpt lat="44.27888" lon="6.7279">
        <ele>2251</ele>
        <time>2018-07-08T08:29:28Z</time>
      </trkpt>
      <trkpt lat="44.27883" lon="6.72784">
        <ele>2251</ele>
        <time>2018-07-08T08:29:34Z</time>
      </trkpt>
      <trkpt lat="44.27879" lon="6.72779">
        <ele>2250</ele>
        <time>2018-07-08T08:29:40Z</time>
      </trkpt>
      <trkpt lat="44.2788" lon="6.7277">
        <ele>2251</ele>
        <time>2018-07-08T08:29:46Z</time>
      </trkpt>
      <trkpt lat="44.27885" lon="6.72764">
        <ele>2253</ele>
        <time>2018-07-08T08:29:52Z</time>
      </trkpt>
      <trkpt lat="44.27883" lon="6.72757">
        <ele>2253</ele>
        <time>2018-07-08T08:29:58Z</time>
      </trkpt>
      <trkpt lat="44.27882" lon="6.72749">
        <ele>2260</ele>
        <time>2018-07-08T08:30:04Z</time>
      </trkpt>
      <trkpt lat="44.27886" lon="6.72742">
        <ele>2261</ele>
        <time>2018-07-08T08:30:08Z</time>
      </trkpt>
      <trkpt lat="44.27886" lon="6.72735">
        <ele>2261</ele>
        <time>2018-07-08T08:30:14Z</time>
      </trkpt>
      <trkpt lat="44.27885" lon="6.72727">
        <ele>2261</ele>
        <time>2018-07-08T08:30:22Z</time>
      </trkpt>
      <trkpt lat="44.27881" lon="6.7272">
        <ele>2261</ele>
        <time>2018-07-08T08:30:28Z</time>
      </trkpt>
      <trkpt lat="44.2788" lon="6.72714">
        <ele>2261</ele>
        <time>2018-07-08T08:30:34Z</time>
      </trkpt>
      <trkpt lat="44.27878" lon="6.72707">
        <ele>2261</ele>
        <time>2018-07-08T08:30:40Z</time>
      </trkpt>
      <trkpt lat="44.27877" lon="6.727">
        <ele>2261</ele>
        <time>2018-07-08T08:30:46Z</time>
      </trkpt>
      <trkpt lat="44.27874" lon="6.72691">
        <ele>2261</ele>
        <time>2018-07-08T08:30:54Z</time>
      </trkpt>
      <trkpt lat="44.27873" lon="6.72683">
        <ele>2261</ele>
        <time>2018-07-08T08:31:00Z</time>
      </trkpt>
      <trkpt lat="44.27872" lon="6.72675">
        <ele>2261</ele>
        <time>2018-07-08T08:31:06Z</time>
      </trkpt>
      <trkpt lat="44.27872" lon="6.72668">
        <ele>2262</ele>
        <time>2018-07-08T08:31:12Z</time>
      </trkpt>
      <trkpt lat="44.27871" lon="6.72661">
        <ele>2270</ele>
        <time>2018-07-08T08:31:18Z</time>
      </trkpt>
      <trkpt lat="44.27867" lon="6.72656">
        <ele>2270</ele>
        <time>2018-07-08T08:31:24Z</time>
      </trkpt>
      <trkpt lat="44.27867" lon="6.72647">
        <ele>2270</ele>
        <time>2018-07-08T08:31:32Z</time>
      </trkpt>
      <trkpt lat="44.27866" lon="6.7264">
        <ele>2271</ele>
        <time>2018-07-08T08:31:40Z</time>
      </trkpt>
      <trkpt lat="44.27869" lon="6.72635">
        <ele>2272</ele>
        <time>2018-07-08T08:31:46Z</time>
      </trkpt>
      <trkpt lat="44.27868" lon="6.72627">
        <ele>2273</ele>
        <time>2018-07-08T08:31:54Z</time>
      </trkpt>
      <trkpt lat="44.27866" lon="6.7262">
        <ele>2273</ele>
        <time>2018-07-08T08:32:00Z</time>
      </trkpt>
      <trkpt lat="44.27864" lon="6.72612">
        <ele>2273</ele>
        <time>2018-07-08T08:32:06Z</time>
      </trkpt>
      <trkpt lat="44.27861" lon="6.72605">
        <ele>2273</ele>
        <time>2018-07-08T08:32:14Z</time>
      </trkpt>
      <trkpt lat="44.27856" lon="6.72601">
        <ele>2272</ele>
        <time>2018-07-08T08:32:20Z</time>
      </trkpt>
      <trkpt lat="44.27854" lon="6.72593">
        <ele>2271</ele>
        <time>2018-07-08T08:32:26Z</time>
      </trkpt>
      <trkpt lat="44.27854" lon="6.72585">
        <ele>2271</ele>
        <time>2018-07-08T08:32:34Z</time>
      </trkpt>
      <trkpt lat="44.27854" lon="6.72578">
        <ele>2279</ele>
        <time>2018-07-08T08:32:40Z</time>
      </trkpt>
      <trkpt lat="44.27853" lon="6.7257">
        <ele>2280</ele>
        <time>2018-07-08T08:32:48Z</time>
      </trkpt>
      <trkpt lat="44.27849" lon="6.72566">
        <ele>2280</ele>
        <time>2018-07-08T08:32:54Z</time>
      </trkpt>
      <trkpt lat="44.27846" lon="6.7256">
        <ele>2281</ele>
        <time>2018-07-08T08:33:00Z</time>
      </trkpt>
      <trkpt lat="44.27843" lon="6.72551">
        <ele>2283</ele>
        <time>2018-07-08T08:33:08Z</time>
      </trkpt>
      <trkpt lat="44.27842" lon="6.72545">
        <ele>2284</ele>
        <time>2018-07-08T08:33:14Z</time>
      </trkpt>
      <trkpt lat="44.27842" lon="6.72536">
        <ele>2285</ele>
        <time>2018-07-08T08:33:20Z</time>
      </trkpt>
      <trkpt lat="44.2784" lon="6.7253">
        <ele>2286</ele>
        <time>2018-07-08T08:33:26Z</time>
      </trkpt>
      <trkpt lat="44.27837" lon="6.72523">
        <ele>2285</ele>
        <time>2018-07-08T08:33:32Z</time>
      </trkpt>
      <trkpt lat="44.27834" lon="6.72517">
        <ele>2285</ele>
        <time>2018-07-08T08:33:40Z</time>
      </trkpt>
      <trkpt lat="44.27831" lon="6.72511">
        <ele>2273</ele>
        <time>2018-07-08T08:33:46Z</time>
      </trkpt>
      <trkpt lat="44.27828" lon="6.72506">
        <ele>2275</ele>
        <time>2018-07-08T08:33:52Z</time>
      </trkpt>
      <trkpt lat="44.27825" lon="6.72499">
        <ele>2281</ele>
        <time>2018-07-08T08:33:58Z</time>
      </trkpt>
      <trkpt lat="44.27821" lon="6.72493">
        <ele>2280</ele>
        <time>2018-07-08T08:34:04Z</time>
      </trkpt>
      <trkpt lat="44.27819" lon="6.72485">
        <ele>2281</ele>
        <time>2018-07-08T08:34:10Z</time>
      </trkpt>
      <trkpt lat="44.27818" lon="6.72476">
        <ele>2282</ele>
        <time>2018-07-08T08:34:18Z</time>
      </trkpt>
      <trkpt lat="44.27816" lon="6.72471">
        <ele>2282</ele>
        <time>2018-07-08T08:34:24Z</time>
      </trkpt>
      <trkpt lat="44.27812" lon="6.72465">
        <ele>2282</ele>
        <time>2018-07-08T08:34:32Z</time>
      </trkpt>
      <trkpt lat="44.27807" lon="6.72458">
        <ele>2283</ele>
        <time>2018-07-08T08:34:40Z</time>
      </trkpt>
      <trkpt lat="44.27803" lon="6.72454">
        <ele>2283</ele>
        <time>2018-07-08T08:34:46Z</time>
      </trkpt>
      <trkpt lat="44.27798" lon="6.7245">
        <ele>2283</ele>
        <time>2018-07-08T08:34:52Z</time>
      </trkpt>
      <trkpt lat="44.27794" lon="6.72446">
        <ele>2283</ele>
        <time>2018-07-08T08:34:58Z</time>
      </trkpt>
      <trkpt lat="44.27799" lon="6.72446">
        <ele>2284</ele>
        <time>2018-07-08T08:35:04Z</time>
      </trkpt>
      <trkpt lat="44.27803" lon="6.72447">
        <ele>2284</ele>
        <time>2018-07-08T08:35:08Z</time>
      </trkpt>
      <trkpt lat="44.27808" lon="6.72448">
        <ele>2285</ele>
        <time>2018-07-08T08:35:14Z</time>
      </trkpt>
      <trkpt lat="44.27813" lon="6.72448">
        <ele>2287</ele>
        <time>2018-07-08T08:35:20Z</time>
      </trkpt>
      <trkpt lat="44.27819" lon="6.72448">
        <ele>2287</ele>
        <time>2018-07-08T08:35:26Z</time>
      </trkpt>
      <trkpt lat="44.27824" lon="6.72449">
        <ele>2288</ele>
        <time>2018-07-08T08:35:32Z</time>
      </trkpt>
      <trkpt lat="44.2783" lon="6.7245">
        <ele>2288</ele>
        <time>2018-07-08T08:35:38Z</time>
      </trkpt>
      <trkpt lat="44.27833" lon="6.72453">
        <ele>2308</ele>
        <time>2018-07-08T08:35:44Z</time>
      </trkpt>
      <trkpt lat="44.27838" lon="6.72457">
        <ele>2307</ele>
        <time>2018-07-08T08:35:50Z</time>
      </trkpt>
      <trkpt lat="44.2784" lon="6.72463">
        <ele>2306</ele>
        <time>2018-07-08T08:35:56Z</time>
      </trkpt>
      <trkpt lat="44.27845" lon="6.72465">
        <ele>2306</ele>
        <time>2018-07-08T08:36:02Z</time>
      </trkpt>
      <trkpt lat="44.2785" lon="6.72469">
        <ele>2306</ele>
        <time>2018-07-08T08:36:08Z</time>
      </trkpt>
      <trkpt lat="44.27855" lon="6.72473">
        <ele>2306</ele>
        <time>2018-07-08T08:36:14Z</time>
      </trkpt>
      <trkpt lat="44.2786" lon="6.72477">
        <ele>2306</ele>
        <time>2018-07-08T08:36:20Z</time>
      </trkpt>
      <trkpt lat="44.27865" lon="6.7248">
        <ele>2307</ele>
        <time>2018-07-08T08:36:26Z</time>
      </trkpt>
      <trkpt lat="44.27869" lon="6.72485">
        <ele>2307</ele>
        <time>2018-07-08T08:36:32Z</time>
      </trkpt>
      <trkpt lat="44.27874" lon="6.7249">
        <ele>2308</ele>
        <time>2018-07-08T08:36:38Z</time>
      </trkpt>
      <trkpt lat="44.27879" lon="6.72495">
        <ele>2309</ele>
        <time>2018-07-08T08:36:44Z</time>
      </trkpt>
      <trkpt lat="44.27883" lon="6.72499">
        <ele>2310</ele>
        <time>2018-07-08T08:36:50Z</time>
      </trkpt>
      <trkpt lat="44.27888" lon="6.72504">
        <ele>2298</ele>
        <time>2018-07-08T08:36:56Z</time>
      </trkpt>
      <trkpt lat="44.27892" lon="6.72505">
        <ele>2300</ele>
        <time>2018-07-08T08:37:02Z</time>
      </trkpt>
      <trkpt lat="44.27897" lon="6.72505">
        <ele>2302</ele>
        <time>2018-07-08T08:37:08Z</time>
      </trkpt>
      <trkpt lat="44.27902" lon="6.72508">
        <ele>2304</ele>
        <time>2018-07-08T08:37:16Z</time>
      </trkpt>
      <trkpt lat="44.27901" lon="6.72517">
        <ele>2301</ele>
        <time>2018-07-08T08:37:22Z</time>
      </trkpt>
      <trkpt lat="44.27904" lon="6.72523">
        <ele>2300</ele>
        <time>2018-07-08T08:37:28Z</time>
      </trkpt>
      <trkpt lat="44.27909" lon="6.72528">
        <ele>2300</ele>
        <time>2018-07-08T08:37:36Z</time>
      </trkpt>
      <trkpt lat="44.27912" lon="6.72534">
        <ele>2299</ele>
        <time>2018-07-08T08:37:42Z</time>
      </trkpt>
      <trkpt lat="44.27915" lon="6.7254">
        <ele>2298</ele>
        <time>2018-07-08T08:37:48Z</time>
      </trkpt>
      <trkpt lat="44.2792" lon="6.72541">
        <ele>2322</ele>
        <time>2018-07-08T08:37:54Z</time>
      </trkpt>
      <trkpt lat="44.27926" lon="6.7254">
        <ele>2322</ele>
        <time>2018-07-08T08:38:00Z</time>
      </trkpt>
      <trkpt lat="44.27931" lon="6.72543">
        <ele>2323</ele>
        <time>2018-07-08T08:38:06Z</time>
      </trkpt>
      <trkpt lat="44.27934" lon="6.72547">
        <ele>2323</ele>
        <time>2018-07-08T08:38:14Z</time>
      </trkpt>
      <trkpt lat="44.27939" lon="6.72545">
        <ele>2324</ele>
        <time>2018-07-08T08:38:20Z</time>
      </trkpt>
      <trkpt lat="44.27943" lon="6.72544">
        <ele>2325</ele>
        <time>2018-07-08T08:38:26Z</time>
      </trkpt>
      <trkpt lat="44.27947" lon="6.7255">
        <ele>2325</ele>
        <time>2018-07-08T08:38:32Z</time>
      </trkpt>
      <trkpt lat="44.2795" lon="6.72558">
        <ele>2325</ele>
        <time>2018-07-08T08:38:38Z</time>
      </trkpt>
      <trkpt lat="44.27955" lon="6.72565">
        <ele>2325</ele>
        <time>2018-07-08T08:38:44Z</time>
      </trkpt>
      <trkpt lat="44.27957" lon="6.72573">
        <ele>2325</ele>
        <time>2018-07-08T08:38:50Z</time>
      </trkpt>
      <trkpt lat="44.27958" lon="6.7258">
        <ele>2325</ele>
        <time>2018-07-08T08:38:56Z</time>
      </trkpt>
      <trkpt lat="44.2796" lon="6.72586">
        <ele>2314</ele>
        <time>2018-07-08T08:39:02Z</time>
      </trkpt>
      <trkpt lat="44.27961" lon="6.72593">
        <ele>2315</ele>
        <time>2018-07-08T08:39:08Z</time>
      </trkpt>
      <trkpt lat="44.27964" lon="6.72599">
        <ele>2315</ele>
        <time>2018-07-08T08:39:14Z</time>
      </trkpt>
      <trkpt lat="44.27968" lon="6.72604">
        <ele>2315</ele>
        <time>2018-07-08T08:39:20Z</time>
      </trkpt>
      <trkpt lat="44.27972" lon="6.72609">
        <ele>2316</ele>
        <time>2018-07-08T08:39:26Z</time>
      </trkpt>
      <trkpt lat="44.27967" lon="6.72602">
        <ele>2315</ele>
        <time>2018-07-08T08:39:40Z</time>
      </trkpt>
      <trkpt lat="44.27964" lon="6.72596">
        <ele>2315</ele>
        <time>2018-07-08T08:39:46Z</time>
      </trkpt>
      <trkpt lat="44.27963" lon="6.72587">
        <ele>2315</ele>
        <time>2018-07-08T08:39:52Z</time>
      </trkpt>
      <trkpt lat="44.27964" lon="6.72579">
        <ele>2327</ele>
        <time>2018-07-08T08:39:58Z</time>
      </trkpt>
      <trkpt lat="44.27965" lon="6.72572">
        <ele>2327</ele>
        <time>2018-07-08T08:40:04Z</time>
      </trkpt>
      <trkpt lat="44.27965" lon="6.72565">
        <ele>2328</ele>
        <time>2018-07-08T08:40:10Z</time>
      </trkpt>
      <trkpt lat="44.27964" lon="6.72556">
        <ele>2328</ele>
        <time>2018-07-08T08:40:16Z</time>
      </trkpt>
      <trkpt lat="44.27963" lon="6.72549">
        <ele>2328</ele>
        <time>2018-07-08T08:40:22Z</time>
      </trkpt>
      <trkpt lat="44.27961" lon="6.72542">
        <ele>2329</ele>
        <time>2018-07-08T08:40:28Z</time>
      </trkpt>
      <trkpt lat="44.27963" lon="6.72534">
        <ele>2330</ele>
        <time>2018-07-08T08:40:36Z</time>
      </trkpt>
      <trkpt lat="44.27961" lon="6.72528">
        <ele>2330</ele>
        <time>2018-07-08T08:40:44Z</time>
      </trkpt>
      <trkpt lat="44.27957" lon="6.72524">
        <ele>2330</ele>
        <time>2018-07-08T08:40:52Z</time>
      </trkpt>
      <trkpt lat="44.27953" lon="6.72518">
        <ele>2329</ele>
        <time>2018-07-08T08:40:58Z</time>
      </trkpt>
      <trkpt lat="44.27954" lon="6.72512">
        <ele>2330</ele>
        <time>2018-07-08T08:41:08Z</time>
      </trkpt>
      <trkpt lat="44.2795" lon="6.72508">
        <ele>2328</ele>
        <time>2018-07-08T08:42:30Z</time>
      </trkpt>
      <trkpt lat="44.27945" lon="6.72507">
        <ele>2327</ele>
        <time>2018-07-08T08:42:36Z</time>
      </trkpt>
      <trkpt lat="44.2794" lon="6.72501">
        <ele>2325</ele>
        <time>2018-07-08T08:42:42Z</time>
      </trkpt>
      <trkpt lat="44.2794" lon="6.72495">
        <ele>2338</ele>
        <time>2018-07-08T08:42:46Z</time>
      </trkpt>
      <trkpt lat="44.27937" lon="6.72488">
        <ele>2339</ele>
        <time>2018-07-08T08:42:52Z</time>
      </trkpt>
      <trkpt lat="44.27935" lon="6.7248">
        <ele>2340</ele>
        <time>2018-07-08T08:42:58Z</time>
      </trkpt>
      <trkpt lat="44.27932" lon="6.72472">
        <ele>2343</ele>
        <time>2018-07-08T08:43:04Z</time>
      </trkpt>
      <trkpt lat="44.27932" lon="6.72465">
        <ele>2345</ele>
        <time>2018-07-08T08:43:10Z</time>
      </trkpt>
      <trkpt lat="44.27933" lon="6.72458">
        <ele>2347</ele>
        <time>2018-07-08T08:43:18Z</time>
      </trkpt>
      <trkpt lat="44.2793" lon="6.72452">
        <ele>2348</ele>
        <time>2018-07-08T08:43:26Z</time>
      </trkpt>
      <trkpt lat="44.27925" lon="6.72448">
        <ele>2348</ele>
        <time>2018-07-08T08:43:34Z</time>
      </trkpt>
      <trkpt lat="44.27921" lon="6.72447">
        <ele>2348</ele>
        <time>2018-07-08T08:43:40Z</time>
      </trkpt>
      <trkpt lat="44.27917" lon="6.72444">
        <ele>2348</ele>
        <time>2018-07-08T08:43:46Z</time>
      </trkpt>
      <trkpt lat="44.27913" lon="6.72439">
        <ele>2328</ele>
        <time>2018-07-08T08:43:52Z</time>
      </trkpt>
      <trkpt lat="44.27909" lon="6.72432">
        <ele>2331</ele>
        <time>2018-07-08T08:43:58Z</time>
      </trkpt>
      <trkpt lat="44.27905" lon="6.72426">
        <ele>2333</ele>
        <time>2018-07-08T08:44:04Z</time>
      </trkpt>
      <trkpt lat="44.27902" lon="6.72419">
        <ele>2332</ele>
        <time>2018-07-08T08:44:10Z</time>
      </trkpt>
      <trkpt lat="44.27898" lon="6.72413">
        <ele>2347</ele>
        <time>2018-07-08T08:44:16Z</time>
      </trkpt>
      <trkpt lat="44.27896" lon="6.72405">
        <ele>2347</ele>
        <time>2018-07-08T08:44:22Z</time>
      </trkpt>
      <trkpt lat="44.27893" lon="6.724">
        <ele>2347</ele>
        <time>2018-07-08T08:44:28Z</time>
      </trkpt>
      <trkpt lat="44.2789" lon="6.72395">
        <ele>2347</ele>
        <time>2018-07-08T08:44:34Z</time>
      </trkpt>
      <trkpt lat="44.27885" lon="6.72389">
        <ele>2347</ele>
        <time>2018-07-08T08:44:40Z</time>
      </trkpt>
      <trkpt lat="44.27881" lon="6.72383">
        <ele>2348</ele>
        <time>2018-07-08T08:44:46Z</time>
      </trkpt>
      <trkpt lat="44.27878" lon="6.72375">
        <ele>2349</ele>
        <time>2018-07-08T08:44:54Z</time>
      </trkpt>
      <trkpt lat="44.27876" lon="6.72369">
        <ele>2350</ele>
        <time>2018-07-08T08:45:00Z</time>
      </trkpt>
      <trkpt lat="44.27874" lon="6.72363">
        <ele>2351</ele>
        <time>2018-07-08T08:45:06Z</time>
      </trkpt>
      <trkpt lat="44.27869" lon="6.72359">
        <ele>2351</ele>
        <time>2018-07-08T08:45:14Z</time>
      </trkpt>
      <trkpt lat="44.27864" lon="6.72356">
        <ele>2350</ele>
        <time>2018-07-08T08:45:20Z</time>
      </trkpt>
      <trkpt lat="44.2786" lon="6.72354">
        <ele>2350</ele>
        <time>2018-07-08T08:45:26Z</time>
      </trkpt>
      <trkpt lat="44.27855" lon="6.72354">
        <ele>2349</ele>
        <time>2018-07-08T08:45:34Z</time>
      </trkpt>
      <trkpt lat="44.27849" lon="6.72354">
        <ele>2348</ele>
        <time>2018-07-08T08:45:42Z</time>
      </trkpt>
      <trkpt lat="44.27844" lon="6.72351">
        <ele>2348</ele>
        <time>2018-07-08T08:45:48Z</time>
      </trkpt>
      <trkpt lat="44.27841" lon="6.72345">
        <ele>2349</ele>
        <time>2018-07-08T08:45:56Z</time>
      </trkpt>
      <trkpt lat="44.27837" lon="6.72341">
        <ele>2349</ele>
        <time>2018-07-08T08:46:04Z</time>
      </trkpt>
      <trkpt lat="44.27832" lon="6.72337">
        <ele>2345</ele>
        <time>2018-07-08T08:46:10Z</time>
      </trkpt>
      <trkpt lat="44.27827" lon="6.72334">
        <ele>2342</ele>
        <time>2018-07-08T08:46:16Z</time>
      </trkpt>
      <trkpt lat="44.27823" lon="6.72329">
        <ele>2348</ele>
        <time>2018-07-08T08:46:22Z</time>
      </trkpt>
      <trkpt lat="44.27822" lon="6.72323">
        <ele>2348</ele>
        <time>2018-07-08T08:46:30Z</time>
      </trkpt>
      <trkpt lat="44.27821" lon="6.72315">
        <ele>2348</ele>
        <time>2018-07-08T08:46:38Z</time>
      </trkpt>
      <trkpt lat="44.27819" lon="6.72308">
        <ele>2348</ele>
        <time>2018-07-08T08:46:44Z</time>
      </trkpt>
      <trkpt lat="44.27817" lon="6.72301">
        <ele>2349</ele>
        <time>2018-07-08T08:46:50Z</time>
      </trkpt>
      <trkpt lat="44.27812" lon="6.72296">
        <ele>2349</ele>
        <time>2018-07-08T08:46:58Z</time>
      </trkpt>
      <trkpt lat="44.27807" lon="6.72294">
        <ele>2348</ele>
        <time>2018-07-08T08:47:04Z</time>
      </trkpt>
      <trkpt lat="44.27803" lon="6.72292">
        <ele>2348</ele>
        <time>2018-07-08T08:47:10Z</time>
      </trkpt>
      <trkpt lat="44.27798" lon="6.72291">
        <ele>2347</ele>
        <time>2018-07-08T08:47:22Z</time>
      </trkpt>
      <trkpt lat="44.27792" lon="6.72292">
        <ele>2346</ele>
        <time>2018-07-08T08:47:32Z</time>
      </trkpt>
      <trkpt lat="44.27788" lon="6.72289">
        <ele>2345</ele>
        <time>2018-07-08T08:47:36Z</time>
      </trkpt>
      <trkpt lat="44.27784" lon="6.72283">
        <ele>2345</ele>
        <time>2018-07-08T08:47:44Z</time>
      </trkpt>
      <trkpt lat="44.27783" lon="6.72277">
        <ele>2346</ele>
        <time>2018-07-08T08:47:50Z</time>
      </trkpt>
      <trkpt lat="44.2778" lon="6.7227">
        <ele>2346</ele>
        <time>2018-07-08T08:47:58Z</time>
      </trkpt>
      <trkpt lat="44.27778" lon="6.72264">
        <ele>2346</ele>
        <time>2018-07-08T08:48:04Z</time>
      </trkpt>
      <trkpt lat="44.27775" lon="6.72258">
        <ele>2345</ele>
        <time>2018-07-08T08:48:10Z</time>
      </trkpt>
      <trkpt lat="44.27774" lon="6.72252">
        <ele>2345</ele>
        <time>2018-07-08T08:48:16Z</time>
      </trkpt>
      <trkpt lat="44.27773" lon="6.72245">
        <ele>2353</ele>
        <time>2018-07-08T08:48:22Z</time>
      </trkpt>
      <trkpt lat="44.27773" lon="6.72239">
        <ele>2354</ele>
        <time>2018-07-08T08:48:28Z</time>
      </trkpt>
      <trkpt lat="44.27774" lon="6.72232">
        <ele>2355</ele>
        <time>2018-07-08T08:48:34Z</time>
      </trkpt>
      <trkpt lat="44.27775" lon="6.72225">
        <ele>2356</ele>
        <time>2018-07-08T08:48:40Z</time>
      </trkpt>
      <trkpt lat="44.27776" lon="6.72217">
        <ele>2357</ele>
        <time>2018-07-08T08:48:48Z</time>
      </trkpt>
      <trkpt lat="44.27779" lon="6.72211">
        <ele>2358</ele>
        <time>2018-07-08T08:48:54Z</time>
      </trkpt>
      <trkpt lat="44.27783" lon="6.72204">
        <ele>2359</ele>
        <time>2018-07-08T08:49:00Z</time>
      </trkpt>
      <trkpt lat="44.27788" lon="6.72203">
        <ele>2360</ele>
        <time>2018-07-08T08:49:06Z</time>
      </trkpt>
      <trkpt lat="44.27793" lon="6.72204">
        <ele>2361</ele>
        <time>2018-07-08T08:49:10Z</time>
      </trkpt>
      <trkpt lat="44.27799" lon="6.72203">
        <ele>2362</ele>
        <time>2018-07-08T08:49:14Z</time>
      </trkpt>
      <trkpt lat="44.27805" lon="6.72204">
        <ele>2363</ele>
        <time>2018-07-08T08:49:18Z</time>
      </trkpt>
      <trkpt lat="44.2781" lon="6.72204">
        <ele>2364</ele>
        <time>2018-07-08T08:49:22Z</time>
      </trkpt>
      <trkpt lat="44.27816" lon="6.722">
        <ele>2365</ele>
        <time>2018-07-08T08:49:28Z</time>
      </trkpt>
      <trkpt lat="44.27821" lon="6.72197">
        <ele>2367</ele>
        <time>2018-07-08T08:49:32Z</time>
      </trkpt>
      <trkpt lat="44.27823" lon="6.72189">
        <ele>2368</ele>
        <time>2018-07-08T08:49:40Z</time>
      </trkpt>
      <trkpt lat="44.27822" lon="6.72182">
        <ele>2370</ele>
        <time>2018-07-08T08:49:46Z</time>
      </trkpt>
      <trkpt lat="44.27824" lon="6.72175">
        <ele>2372</ele>
        <time>2018-07-08T08:49:52Z</time>
      </trkpt>
      <trkpt lat="44.27829" lon="6.72172">
        <ele>2375</ele>
        <time>2018-07-08T08:49:58Z</time>
      </trkpt>
      <trkpt lat="44.27833" lon="6.72168">
        <ele>2379</ele>
        <time>2018-07-08T08:50:02Z</time>
      </trkpt>
      <trkpt lat="44.27838" lon="6.72167">
        <ele>2383</ele>
        <time>2018-07-08T08:50:20Z</time>
      </trkpt>
      <trkpt lat="44.27844" lon="6.72162">
        <ele>2388</ele>
        <time>2018-07-08T08:50:26Z</time>
      </trkpt>
      <trkpt lat="44.27847" lon="6.72156">
        <ele>2391</ele>
        <time>2018-07-08T08:50:32Z</time>
      </trkpt>
      <trkpt lat="44.27847" lon="6.72147">
        <ele>2394</ele>
        <time>2018-07-08T08:50:38Z</time>
      </trkpt>
      <trkpt lat="44.27848" lon="6.7214">
        <ele>2395</ele>
        <time>2018-07-08T08:50:42Z</time>
      </trkpt>
      <trkpt lat="44.2785" lon="6.72132">
        <ele>2396</ele>
        <time>2018-07-08T08:50:48Z</time>
      </trkpt>
      <trkpt lat="44.2785" lon="6.72125">
        <ele>2397</ele>
        <time>2018-07-08T08:50:52Z</time>
      </trkpt>
      <trkpt lat="44.27852" lon="6.72116">
        <ele>2397</ele>
        <time>2018-07-08T08:50:58Z</time>
      </trkpt>
      <trkpt lat="44.27853" lon="6.7211">
        <ele>2397</ele>
        <time>2018-07-08T08:51:02Z</time>
      </trkpt>
      <trkpt lat="44.27854" lon="6.72103">
        <ele>2396</ele>
        <time>2018-07-08T08:51:06Z</time>
      </trkpt>
      <trkpt lat="44.27854" lon="6.72097">
        <ele>2396</ele>
        <time>2018-07-08T08:51:10Z</time>
      </trkpt>
      <trkpt lat="44.27855" lon="6.72087">
        <ele>2395</ele>
        <time>2018-07-08T08:51:16Z</time>
      </trkpt>
      <trkpt lat="44.27856" lon="6.72081">
        <ele>2401</ele>
        <time>2018-07-08T08:51:20Z</time>
      </trkpt>
      <trkpt lat="44.27856" lon="6.72074">
        <ele>2402</ele>
        <time>2018-07-08T08:51:26Z</time>
      </trkpt>
      <trkpt lat="44.27857" lon="6.72066">
        <ele>2404</ele>
        <time>2018-07-08T08:51:32Z</time>
      </trkpt>
      <trkpt lat="44.27859" lon="6.72059">
        <ele>2406</ele>
        <time>2018-07-08T08:51:38Z</time>
      </trkpt>
      <trkpt lat="44.27859" lon="6.72051">
        <ele>2408</ele>
        <time>2018-07-08T08:51:46Z</time>
      </trkpt>
      <trkpt lat="44.27857" lon="6.72044">
        <ele>2408</ele>
        <time>2018-07-08T08:51:52Z</time>
      </trkpt>
      <trkpt lat="44.27855" lon="6.72036">
        <ele>2409</ele>
        <time>2018-07-08T08:51:58Z</time>
      </trkpt>
      <trkpt lat="44.27854" lon="6.72028">
        <ele>2409</ele>
        <time>2018-07-08T08:52:04Z</time>
      </trkpt>
      <trkpt lat="44.27853" lon="6.7202">
        <ele>2409</ele>
        <time>2018-07-08T08:52:10Z</time>
      </trkpt>
      <trkpt lat="44.27851" lon="6.72014">
        <ele>2408</ele>
        <time>2018-07-08T08:52:16Z</time>
      </trkpt>
      <trkpt lat="44.2785" lon="6.72007">
        <ele>2407</ele>
        <time>2018-07-08T08:52:22Z</time>
      </trkpt>
      <trkpt lat="44.27849" lon="6.72">
        <ele>2407</ele>
        <time>2018-07-08T08:52:28Z</time>
      </trkpt>
      <trkpt lat="44.27847" lon="6.71994">
        <ele>2413</ele>
        <time>2018-07-08T08:52:34Z</time>
      </trkpt>
      <trkpt lat="44.27846" lon="6.71988">
        <ele>2414</ele>
        <time>2018-07-08T08:52:40Z</time>
      </trkpt>
      <trkpt lat="44.27844" lon="6.7198">
        <ele>2417</ele>
        <time>2018-07-08T08:52:46Z</time>
      </trkpt>
      <trkpt lat="44.27843" lon="6.71972">
        <ele>2419</ele>
        <time>2018-07-08T08:52:52Z</time>
      </trkpt>
      <trkpt lat="44.27843" lon="6.71963">
        <ele>2422</ele>
        <time>2018-07-08T08:53:00Z</time>
      </trkpt>
      <trkpt lat="44.27839" lon="6.71957">
        <ele>2422</ele>
        <time>2018-07-08T08:53:06Z</time>
      </trkpt>
      <trkpt lat="44.27834" lon="6.71955">
        <ele>2422</ele>
        <time>2018-07-08T08:53:12Z</time>
      </trkpt>
      <trkpt lat="44.27829" lon="6.71954">
        <ele>2399</ele>
        <time>2018-07-08T08:53:16Z</time>
      </trkpt>
      <trkpt lat="44.27825" lon="6.71948">
        <ele>2400</ele>
        <time>2018-07-08T08:53:22Z</time>
      </trkpt>
      <trkpt lat="44.27822" lon="6.71941">
        <ele>2401</ele>
        <time>2018-07-08T08:53:28Z</time>
      </trkpt>
      <trkpt lat="44.2782" lon="6.71935">
        <ele>2403</ele>
        <time>2018-07-08T08:53:32Z</time>
      </trkpt>
      <trkpt lat="44.27818" lon="6.71929">
        <ele>2404</ele>
        <time>2018-07-08T08:53:38Z</time>
      </trkpt>
      <trkpt lat="44.27817" lon="6.7192">
        <ele>2406</ele>
        <time>2018-07-08T08:53:44Z</time>
      </trkpt>
      <trkpt lat="44.27815" lon="6.71912">
        <ele>2418</ele>
        <time>2018-07-08T08:53:50Z</time>
      </trkpt>
      <trkpt lat="44.27812" lon="6.71904">
        <ele>2419</ele>
        <time>2018-07-08T08:53:56Z</time>
      </trkpt>
      <trkpt lat="44.27809" lon="6.71898">
        <ele>2419</ele>
        <time>2018-07-08T08:54:02Z</time>
      </trkpt>
      <trkpt lat="44.27806" lon="6.71892">
        <ele>2419</ele>
        <time>2018-07-08T08:54:08Z</time>
      </trkpt>
      <trkpt lat="44.27801" lon="6.71887">
        <ele>2420</ele>
        <time>2018-07-08T08:54:14Z</time>
      </trkpt>
      <trkpt lat="44.27798" lon="6.71881">
        <ele>2420</ele>
        <time>2018-07-08T08:54:20Z</time>
      </trkpt>
      <trkpt lat="44.27793" lon="6.71877">
        <ele>2420</ele>
        <time>2018-07-08T08:54:26Z</time>
      </trkpt>
      <trkpt lat="44.27789" lon="6.71874">
        <ele>2420</ele>
        <time>2018-07-08T08:54:32Z</time>
      </trkpt>
      <trkpt lat="44.27793" lon="6.71871">
        <ele>2422</ele>
        <time>2018-07-08T08:54:38Z</time>
      </trkpt>
      <trkpt lat="44.27798" lon="6.7187">
        <ele>2422</ele>
        <time>2018-07-08T08:54:44Z</time>
      </trkpt>
      <trkpt lat="44.27804" lon="6.71872">
        <ele>2423</ele>
        <time>2018-07-08T08:54:50Z</time>
      </trkpt>
      <trkpt lat="44.27809" lon="6.71876">
        <ele>2423</ele>
        <time>2018-07-08T08:54:56Z</time>
      </trkpt>
      <trkpt lat="44.27814" lon="6.71879">
        <ele>2423</ele>
        <time>2018-07-08T08:55:02Z</time>
      </trkpt>
      <trkpt lat="44.2782" lon="6.71882">
        <ele>2423</ele>
        <time>2018-07-08T08:55:08Z</time>
      </trkpt>
      <trkpt lat="44.27825" lon="6.71886">
        <ele>2422</ele>
        <time>2018-07-08T08:55:12Z</time>
      </trkpt>
      <trkpt lat="44.27829" lon="6.71889">
        <ele>2422</ele>
        <time>2018-07-08T08:55:16Z</time>
      </trkpt>
      <trkpt lat="44.27835" lon="6.71895">
        <ele>2434</ele>
        <time>2018-07-08T08:55:24Z</time>
      </trkpt>
      <trkpt lat="44.27841" lon="6.71896">
        <ele>2435</ele>
        <time>2018-07-08T08:55:30Z</time>
      </trkpt>
      <trkpt lat="44.27845" lon="6.71894">
        <ele>2436</ele>
        <time>2018-07-08T08:55:34Z</time>
      </trkpt>
      <trkpt lat="44.2785" lon="6.7189">
        <ele>2438</ele>
        <time>2018-07-08T08:55:40Z</time>
      </trkpt>
      <trkpt lat="44.27855" lon="6.71892">
        <ele>2439</ele>
        <time>2018-07-08T08:55:46Z</time>
      </trkpt>
      <trkpt lat="44.27859" lon="6.71895">
        <ele>2439</ele>
        <time>2018-07-08T08:55:50Z</time>
      </trkpt>
      <trkpt lat="44.27862" lon="6.719">
        <ele>2439</ele>
        <time>2018-07-08T08:55:54Z</time>
      </trkpt>
      <trkpt lat="44.27865" lon="6.71904">
        <ele>2440</ele>
        <time>2018-07-08T08:56:00Z</time>
      </trkpt>
      <trkpt lat="44.27869" lon="6.71908">
        <ele>2440</ele>
        <time>2018-07-08T08:56:06Z</time>
      </trkpt>
      <trkpt lat="44.27874" lon="6.71913">
        <ele>2441</ele>
        <time>2018-07-08T08:56:12Z</time>
      </trkpt>
      <trkpt lat="44.27879" lon="6.71917">
        <ele>2433</ele>
        <time>2018-07-08T08:56:18Z</time>
      </trkpt>
      <trkpt lat="44.27883" lon="6.71921">
        <ele>2434</ele>
        <time>2018-07-08T08:56:24Z</time>
      </trkpt>
      <trkpt lat="44.27889" lon="6.71922">
        <ele>2436</ele>
        <time>2018-07-08T08:56:30Z</time>
      </trkpt>
      <trkpt lat="44.27894" lon="6.71926">
        <ele>2438</ele>
        <time>2018-07-08T08:56:36Z</time>
      </trkpt>
      <trkpt lat="44.27897" lon="6.71931">
        <ele>2438</ele>
        <time>2018-07-08T08:56:40Z</time>
      </trkpt>
      <trkpt lat="44.27902" lon="6.71936">
        <ele>2438</ele>
        <time>2018-07-08T08:56:46Z</time>
      </trkpt>
      <trkpt lat="44.27906" lon="6.71939">
        <ele>2438</ele>
        <time>2018-07-08T08:56:50Z</time>
      </trkpt>
      <trkpt lat="44.2791" lon="6.71945">
        <ele>2438</ele>
        <time>2018-07-08T08:56:56Z</time>
      </trkpt>
      <trkpt lat="44.27909" lon="6.71938">
        <ele>2439</ele>
        <time>2018-07-08T08:57:04Z</time>
      </trkpt>
      <trkpt lat="44.27907" lon="6.71931">
        <ele>2441</ele>
        <time>2018-07-08T08:57:10Z</time>
      </trkpt>
      <trkpt lat="44.27904" lon="6.71926">
        <ele>2442</ele>
        <time>2018-07-08T08:57:16Z</time>
      </trkpt>
      <trkpt lat="44.27902" lon="6.71919">
        <ele>2442</ele>
        <time>2018-07-08T08:57:22Z</time>
      </trkpt>
      <trkpt lat="44.27898" lon="6.71914">
        <ele>2448</ele>
        <time>2018-07-08T08:57:28Z</time>
      </trkpt>
      <trkpt lat="44.27893" lon="6.71909">
        <ele>2446</ele>
        <time>2018-07-08T08:57:36Z</time>
      </trkpt>
      <trkpt lat="44.27888" lon="6.71903">
        <ele>2445</ele>
        <time>2018-07-08T08:57:42Z</time>
      </trkpt>
      <trkpt lat="44.27886" lon="6.71897">
        <ele>2445</ele>
        <time>2018-07-08T08:57:46Z</time>
      </trkpt>
      <trkpt lat="44.27885" lon="6.71888">
        <ele>2446</ele>
        <time>2018-07-08T08:57:52Z</time>
      </trkpt>
      <trkpt lat="44.27884" lon="6.7188">
        <ele>2446</ele>
        <time>2018-07-08T08:57:58Z</time>
      </trkpt>
      <trkpt lat="44.27883" lon="6.71872">
        <ele>2447</ele>
        <time>2018-07-08T08:58:04Z</time>
      </trkpt>
      <trkpt lat="44.27883" lon="6.71865">
        <ele>2448</ele>
        <time>2018-07-08T08:58:10Z</time>
      </trkpt>
      <trkpt lat="44.27884" lon="6.71858">
        <ele>2449</ele>
        <time>2018-07-08T08:58:16Z</time>
      </trkpt>
      <trkpt lat="44.27884" lon="6.71851">
        <ele>2450</ele>
        <time>2018-07-08T08:58:22Z</time>
      </trkpt>
      <trkpt lat="44.27888" lon="6.71843">
        <ele>2451</ele>
        <time>2018-07-08T08:58:28Z</time>
      </trkpt>
      <trkpt lat="44.27889" lon="6.71837">
        <ele>2452</ele>
        <time>2018-07-08T08:58:34Z</time>
      </trkpt>
      <trkpt lat="44.27888" lon="6.71829">
        <ele>2468</ele>
        <time>2018-07-08T08:58:42Z</time>
      </trkpt>
      <trkpt lat="44.27883" lon="6.71825">
        <ele>2468</ele>
        <time>2018-07-08T08:58:48Z</time>
      </trkpt>
      <trkpt lat="44.27879" lon="6.71822">
        <ele>2468</ele>
        <time>2018-07-08T08:58:54Z</time>
      </trkpt>
      <trkpt lat="44.27874" lon="6.7182">
        <ele>2467</ele>
        <time>2018-07-08T08:59:02Z</time>
      </trkpt>
      <trkpt lat="44.27869" lon="6.71818">
        <ele>2467</ele>
        <time>2018-07-08T08:59:10Z</time>
      </trkpt>
      <trkpt lat="44.27864" lon="6.71816">
        <ele>2466</ele>
        <time>2018-07-08T08:59:16Z</time>
      </trkpt>
      <trkpt lat="44.27859" lon="6.71816">
        <ele>2465</ele>
        <time>2018-07-08T08:59:22Z</time>
      </trkpt>
      <trkpt lat="44.27853" lon="6.71816">
        <ele>2464</ele>
        <time>2018-07-08T08:59:28Z</time>
      </trkpt>
      <trkpt lat="44.27848" lon="6.71816">
        <ele>2462</ele>
        <time>2018-07-08T08:59:34Z</time>
      </trkpt>
      <trkpt lat="44.27841" lon="6.71814">
        <ele>2461</ele>
        <time>2018-07-08T08:59:40Z</time>
      </trkpt>
      <trkpt lat="44.27837" lon="6.71811">
        <ele>2462</ele>
        <time>2018-07-08T08:59:44Z</time>
      </trkpt>
      <trkpt lat="44.27833" lon="6.71806">
        <ele>2455</ele>
        <time>2018-07-08T08:59:50Z</time>
      </trkpt>
      <trkpt lat="44.27829" lon="6.71801">
        <ele>2456</ele>
        <time>2018-07-08T08:59:56Z</time>
      </trkpt>
      <trkpt lat="44.27824" lon="6.71797">
        <ele>2457</ele>
        <time>2018-07-08T09:00:04Z</time>
      </trkpt>
      <trkpt lat="44.2782" lon="6.71792">
        <ele>2458</ele>
        <time>2018-07-08T09:00:10Z</time>
      </trkpt>
      <trkpt lat="44.27816" lon="6.71788">
        <ele>2459</ele>
        <time>2018-07-08T09:00:18Z</time>
      </trkpt>
      <trkpt lat="44.2781" lon="6.71784">
        <ele>2460</ele>
        <time>2018-07-08T09:00:24Z</time>
      </trkpt>
      <trkpt lat="44.27805" lon="6.7178">
        <ele>2460</ele>
        <time>2018-07-08T09:00:32Z</time>
      </trkpt>
      <trkpt lat="44.27801" lon="6.71776">
        <ele>2460</ele>
        <time>2018-07-08T09:00:38Z</time>
      </trkpt>
      <trkpt lat="44.27796" lon="6.71772">
        <ele>2460</ele>
        <time>2018-07-08T09:00:44Z</time>
      </trkpt>
      <trkpt lat="44.27791" lon="6.71771">
        <ele>2460</ele>
        <time>2018-07-08T09:00:50Z</time>
      </trkpt>
      <trkpt lat="44.27786" lon="6.7177">
        <ele>2459</ele>
        <time>2018-07-08T09:00:56Z</time>
      </trkpt>
      <trkpt lat="44.27781" lon="6.71769">
        <ele>2459</ele>
        <time>2018-07-08T09:01:02Z</time>
      </trkpt>
      <trkpt lat="44.27775" lon="6.71768">
        <ele>2459</ele>
        <time>2018-07-08T09:01:10Z</time>
      </trkpt>
      <trkpt lat="44.27773" lon="6.71763">
        <ele>2459</ele>
        <time>2018-07-08T09:01:20Z</time>
      </trkpt>
      <trkpt lat="44.27774" lon="6.71755">
        <ele>2460</ele>
        <time>2018-07-08T09:01:28Z</time>
      </trkpt>
      <trkpt lat="44.27774" lon="6.71747">
        <ele>2473</ele>
        <time>2018-07-08T09:01:36Z</time>
      </trkpt>
      <trkpt lat="44.27774" lon="6.7174">
        <ele>2473</ele>
        <time>2018-07-08T09:01:42Z</time>
      </trkpt>
      <trkpt lat="44.27775" lon="6.71733">
        <ele>2474</ele>
        <time>2018-07-08T09:01:50Z</time>
      </trkpt>
      <trkpt lat="44.27778" lon="6.71725">
        <ele>2475</ele>
        <time>2018-07-08T09:01:56Z</time>
      </trkpt>
      <trkpt lat="44.2778" lon="6.71719">
        <ele>2476</ele>
        <time>2018-07-08T09:02:02Z</time>
      </trkpt>
      <trkpt lat="44.27783" lon="6.71712">
        <ele>2477</ele>
        <time>2018-07-08T09:02:08Z</time>
      </trkpt>
      <trkpt lat="44.27786" lon="6.71705">
        <ele>2478</ele>
        <time>2018-07-08T09:02:14Z</time>
      </trkpt>
      <trkpt lat="44.2779" lon="6.71697">
        <ele>2478</ele>
        <time>2018-07-08T09:02:20Z</time>
      </trkpt>
      <trkpt lat="44.27793" lon="6.71692">
        <ele>2479</ele>
        <time>2018-07-08T09:02:24Z</time>
      </trkpt>
      <trkpt lat="44.27797" lon="6.71685">
        <ele>2480</ele>
        <time>2018-07-08T09:02:28Z</time>
      </trkpt>
      <trkpt lat="44.27801" lon="6.7168">
        <ele>2481</ele>
        <time>2018-07-08T09:02:32Z</time>
      </trkpt>
      <trkpt lat="44.27805" lon="6.71675">
        <ele>2482</ele>
        <time>2018-07-08T09:02:36Z</time>
      </trkpt>
      <trkpt lat="44.2781" lon="6.71672">
        <ele>2483</ele>
        <time>2018-07-08T09:02:40Z</time>
      </trkpt>
      <trkpt lat="44.27815" lon="6.7167">
        <ele>2484</ele>
        <time>2018-07-08T09:02:44Z</time>
      </trkpt>
      <trkpt lat="44.27821" lon="6.71667">
        <ele>2486</ele>
        <time>2018-07-08T09:02:50Z</time>
      </trkpt>
      <trkpt lat="44.27819" lon="6.7166">
        <ele>2488</ele>
        <time>2018-07-08T09:02:56Z</time>
      </trkpt>
      <trkpt lat="44.27822" lon="6.71653">
        <ele>2488</ele>
        <time>2018-07-08T09:03:02Z</time>
      </trkpt>
      <trkpt lat="44.27818" lon="6.71646">
        <ele>2487</ele>
        <time>2018-07-08T09:03:10Z</time>
      </trkpt>
      <trkpt lat="44.27812" lon="6.71641">
        <ele>2486</ele>
        <time>2018-07-08T09:03:16Z</time>
      </trkpt>
      <trkpt lat="44.27811" lon="6.71634">
        <ele>2486</ele>
        <time>2018-07-08T09:03:20Z</time>
      </trkpt>
      <trkpt lat="44.27811" lon="6.71627">
        <ele>2486</ele>
        <time>2018-07-08T09:03:24Z</time>
      </trkpt>
      <trkpt lat="44.27812" lon="6.71618">
        <ele>2486</ele>
        <time>2018-07-08T09:03:30Z</time>
      </trkpt>
      <trkpt lat="44.27811" lon="6.71611">
        <ele>2486</ele>
        <time>2018-07-08T09:03:36Z</time>
      </trkpt>
      <trkpt lat="44.27809" lon="6.71603">
        <ele>2487</ele>
        <time>2018-07-08T09:03:42Z</time>
      </trkpt>
      <trkpt lat="44.27807" lon="6.71596">
        <ele>2487</ele>
        <time>2018-07-08T09:03:48Z</time>
      </trkpt>
      <trkpt lat="44.27802" lon="6.71593">
        <ele>2486</ele>
        <time>2018-07-08T09:03:54Z</time>
      </trkpt>
      <trkpt lat="44.27798" lon="6.71589">
        <ele>2486</ele>
        <time>2018-07-08T09:04:00Z</time>
      </trkpt>
      <trkpt lat="44.27795" lon="6.71583">
        <ele>2492</ele>
        <time>2018-07-08T09:04:06Z</time>
      </trkpt>
      <trkpt lat="44.27791" lon="6.71579">
        <ele>2492</ele>
        <time>2018-07-08T09:04:18Z</time>
      </trkpt>
      <trkpt lat="44.27785" lon="6.7158">
        <ele>2492</ele>
        <time>2018-07-08T09:04:26Z</time>
      </trkpt>
      <trkpt lat="44.27781" lon="6.71575">
        <ele>2491</ele>
        <time>2018-07-08T09:04:32Z</time>
      </trkpt>
      <trkpt lat="44.27775" lon="6.71573">
        <ele>2491</ele>
        <time>2018-07-08T09:04:38Z</time>
      </trkpt>
      <trkpt lat="44.27769" lon="6.71575">
        <ele>2490</ele>
        <time>2018-07-08T09:04:44Z</time>
      </trkpt>
      <trkpt lat="44.27763" lon="6.71579">
        <ele>2488</ele>
        <time>2018-07-08T09:04:50Z</time>
      </trkpt>
      <trkpt lat="44.27759" lon="6.71583">
        <ele>2486</ele>
        <time>2018-07-08T09:04:56Z</time>
      </trkpt>
      <trkpt lat="44.27754" lon="6.71586">
        <ele>2483</ele>
        <time>2018-07-08T09:05:02Z</time>
      </trkpt>
      <trkpt lat="44.2775" lon="6.71589">
        <ele>2481</ele>
        <time>2018-07-08T09:05:08Z</time>
      </trkpt>
      <trkpt lat="44.27745" lon="6.71587">
        <ele>2481</ele>
        <time>2018-07-08T09:05:14Z</time>
      </trkpt>
      <trkpt lat="44.27743" lon="6.7158">
        <ele>2484</ele>
        <time>2018-07-08T09:05:20Z</time>
      </trkpt>
      <trkpt lat="44.27742" lon="6.71573">
        <ele>2484</ele>
        <time>2018-07-08T09:05:26Z</time>
      </trkpt>
      <trkpt lat="44.2774" lon="6.71567">
        <ele>2485</ele>
        <time>2018-07-08T09:05:32Z</time>
      </trkpt>
      <trkpt lat="44.27738" lon="6.71559">
        <ele>2485</ele>
        <time>2018-07-08T09:05:38Z</time>
      </trkpt>
      <trkpt lat="44.27736" lon="6.71552">
        <ele>2486</ele>
        <time>2018-07-08T09:05:44Z</time>
      </trkpt>
      <trkpt lat="44.27735" lon="6.71546">
        <ele>2487</ele>
        <time>2018-07-08T09:05:50Z</time>
      </trkpt>
      <trkpt lat="44.27736" lon="6.7154">
        <ele>2488</ele>
        <time>2018-07-08T09:05:56Z</time>
      </trkpt>
      <trkpt lat="44.27737" lon="6.71532">
        <ele>2489</ele>
        <time>2018-07-08T09:06:02Z</time>
      </trkpt>
      <trkpt lat="44.27739" lon="6.71526">
        <ele>2490</ele>
        <time>2018-07-08T09:06:08Z</time>
      </trkpt>
      <trkpt lat="44.2774" lon="6.71519">
        <ele>2491</ele>
        <time>2018-07-08T09:06:14Z</time>
      </trkpt>
      <trkpt lat="44.27739" lon="6.71513">
        <ele>2492</ele>
        <time>2018-07-08T09:06:20Z</time>
      </trkpt>
      <trkpt lat="44.27737" lon="6.71507">
        <ele>2493</ele>
        <time>2018-07-08T09:06:26Z</time>
      </trkpt>
      <trkpt lat="44.27733" lon="6.71503">
        <ele>2493</ele>
        <time>2018-07-08T09:06:32Z</time>
      </trkpt>
      <trkpt lat="44.27729" lon="6.71499">
        <ele>2502</ele>
        <time>2018-07-08T09:06:40Z</time>
      </trkpt>
      <trkpt lat="44.27725" lon="6.71495">
        <ele>2502</ele>
        <time>2018-07-08T09:06:46Z</time>
      </trkpt>
      <trkpt lat="44.2772" lon="6.71491">
        <ele>2502</ele>
        <time>2018-07-08T09:06:52Z</time>
      </trkpt>
      <trkpt lat="44.27716" lon="6.71492">
        <ele>2502</ele>
        <time>2018-07-08T09:06:58Z</time>
      </trkpt>
      <trkpt lat="44.27711" lon="6.71494">
        <ele>2501</ele>
        <time>2018-07-08T09:07:04Z</time>
      </trkpt>
      <trkpt lat="44.27705" lon="6.71495">
        <ele>2500</ele>
        <time>2018-07-08T09:07:12Z</time>
      </trkpt>
      <trkpt lat="44.277" lon="6.71491">
        <ele>2500</ele>
        <time>2018-07-08T09:07:18Z</time>
      </trkpt>
      <trkpt lat="44.27696" lon="6.71487">
        <ele>2500</ele>
        <time>2018-07-08T09:07:24Z</time>
      </trkpt>
      <trkpt lat="44.27693" lon="6.71484">
        <ele>2500</ele>
        <time>2018-07-08T09:07:30Z</time>
      </trkpt>
      <trkpt lat="44.2769" lon="6.71478">
        <ele>2501</ele>
        <time>2018-07-08T09:07:36Z</time>
      </trkpt>
      <trkpt lat="44.27687" lon="6.71473">
        <ele>2501</ele>
        <time>2018-07-08T09:07:42Z</time>
      </trkpt>
      <trkpt lat="44.27684" lon="6.71467">
        <ele>2502</ele>
        <time>2018-07-08T09:07:48Z</time>
      </trkpt>
      <trkpt lat="44.27681" lon="6.71463">
        <ele>2503</ele>
        <time>2018-07-08T09:07:54Z</time>
      </trkpt>
      <trkpt lat="44.27677" lon="6.71459">
        <ele>2503</ele>
        <time>2018-07-08T09:08:00Z</time>
      </trkpt>
      <trkpt lat="44.27673" lon="6.71454">
        <ele>2504</ele>
        <time>2018-07-08T09:08:06Z</time>
      </trkpt>
      <trkpt lat="44.27668" lon="6.71449">
        <ele>2505</ele>
        <time>2018-07-08T09:08:14Z</time>
      </trkpt>
      <trkpt lat="44.27663" lon="6.71445">
        <ele>2502</ele>
        <time>2018-07-08T09:08:20Z</time>
      </trkpt>
      <trkpt lat="44.27659" lon="6.7144">
        <ele>2504</ele>
        <time>2018-07-08T09:08:26Z</time>
      </trkpt>
      <trkpt lat="44.27655" lon="6.71436">
        <ele>2504</ele>
        <time>2018-07-08T09:08:32Z</time>
      </trkpt>
      <trkpt lat="44.27651" lon="6.71431">
        <ele>2505</ele>
        <time>2018-07-08T09:08:38Z</time>
      </trkpt>
      <trkpt lat="44.27647" lon="6.71426">
        <ele>2505</ele>
        <time>2018-07-08T09:08:44Z</time>
      </trkpt>
      <trkpt lat="44.27641" lon="6.71427">
        <ele>2504</ele>
        <time>2018-07-08T09:08:50Z</time>
      </trkpt>
      <trkpt lat="44.27637" lon="6.71433">
        <ele>2503</ele>
        <time>2018-07-08T09:08:56Z</time>
      </trkpt>
      <trkpt lat="44.27632" lon="6.71437">
        <ele>2502</ele>
        <time>2018-07-08T09:09:02Z</time>
      </trkpt>
      <trkpt lat="44.27628" lon="6.71443">
        <ele>2501</ele>
        <time>2018-07-08T09:09:08Z</time>
      </trkpt>
      <trkpt lat="44.27623" lon="6.71447">
        <ele>2501</ele>
        <time>2018-07-08T09:09:14Z</time>
      </trkpt>
      <trkpt lat="44.27617" lon="6.71452">
        <ele>2500</ele>
        <time>2018-07-08T09:09:20Z</time>
      </trkpt>
      <trkpt lat="44.27612" lon="6.71453">
        <ele>2500</ele>
        <time>2018-07-08T09:09:24Z</time>
      </trkpt>
      <trkpt lat="44.27607" lon="6.71456">
        <ele>2499</ele>
        <time>2018-07-08T09:09:30Z</time>
      </trkpt>
      <trkpt lat="44.27603" lon="6.71457">
        <ele>2499</ele>
        <time>2018-07-08T09:09:34Z</time>
      </trkpt>
      <trkpt lat="44.27597" lon="6.71458">
        <ele>2498</ele>
        <time>2018-07-08T09:09:40Z</time>
      </trkpt>
      <trkpt lat="44.27591" lon="6.71457">
        <ele>2499</ele>
        <time>2018-07-08T09:09:46Z</time>
      </trkpt>
      <trkpt lat="44.27586" lon="6.71457">
        <ele>2499</ele>
        <time>2018-07-08T09:09:52Z</time>
      </trkpt>
      <trkpt lat="44.27589" lon="6.71451">
        <ele>2500</ele>
        <time>2018-07-08T09:10:06Z</time>
      </trkpt>
      <trkpt lat="44.27593" lon="6.71448">
        <ele>2501</ele>
        <time>2018-07-08T09:10:12Z</time>
      </trkpt>
      <trkpt lat="44.27593" lon="6.71441">
        <ele>2503</ele>
        <time>2018-07-08T09:10:22Z</time>
      </trkpt>
      <trkpt lat="44.27593" lon="6.71433">
        <ele>2505</ele>
        <time>2018-07-08T09:10:32Z</time>
      </trkpt>
      <trkpt lat="44.27598" lon="6.71429">
        <ele>2505</ele>
        <time>2018-07-08T09:10:38Z</time>
      </trkpt>
      <trkpt lat="44.27602" lon="6.71425">
        <ele>2505</ele>
        <time>2018-07-08T09:10:46Z</time>
      </trkpt>
      <trkpt lat="44.27606" lon="6.71422">
        <ele>2505</ele>
        <time>2018-07-08T09:10:52Z</time>
      </trkpt>
      <trkpt lat="44.27609" lon="6.71416">
        <ele>2520</ele>
        <time>2018-07-08T09:11:02Z</time>
      </trkpt>
      <trkpt lat="44.27611" lon="6.71409">
        <ele>2520</ele>
        <time>2018-07-08T09:11:12Z</time>
      </trkpt>
      <trkpt lat="44.27613" lon="6.71402">
        <ele>2521</ele>
        <time>2018-07-08T09:11:22Z</time>
      </trkpt>
      <trkpt lat="44.27616" lon="6.71396">
        <ele>2522</ele>
        <time>2018-07-08T09:11:34Z</time>
      </trkpt>
      <trkpt lat="44.27615" lon="6.71389">
        <ele>2523</ele>
        <time>2018-07-08T09:11:42Z</time>
      </trkpt>
      <trkpt lat="44.27616" lon="6.71382">
        <ele>2524</ele>
        <time>2018-07-08T09:11:54Z</time>
      </trkpt>
      <trkpt lat="44.27617" lon="6.71374">
        <ele>2525</ele>
        <time>2018-07-08T09:12:04Z</time>
      </trkpt>
      <trkpt lat="44.27615" lon="6.71368">
        <ele>2527</ele>
        <time>2018-07-08T09:12:16Z</time>
      </trkpt>
      <trkpt lat="44.27619" lon="6.71363">
        <ele>2527</ele>
        <time>2018-07-08T09:12:24Z</time>
      </trkpt>
      <trkpt lat="44.27624" lon="6.7136">
        <ele>2527</ele>
        <time>2018-07-08T09:12:34Z</time>
      </trkpt>
      <trkpt lat="44.27629" lon="6.71358">
        <ele>2528</ele>
        <time>2018-07-08T09:12:42Z</time>
      </trkpt>
      <trkpt lat="44.27633" lon="6.71355">
        <ele>2528</ele>
        <time>2018-07-08T09:12:50Z</time>
      </trkpt>
      <trkpt lat="44.27637" lon="6.7135">
        <ele>2529</ele>
        <time>2018-07-08T09:13:00Z</time>
      </trkpt>
      <trkpt lat="44.27641" lon="6.71345">
        <ele>2529</ele>
        <time>2018-07-08T09:13:08Z</time>
      </trkpt>
      <trkpt lat="44.27643" lon="6.7134">
        <ele>2530</ele>
        <time>2018-07-08T09:13:14Z</time>
      </trkpt>
      <trkpt lat="44.27638" lon="6.71343">
        <ele>2529</ele>
        <time>2018-07-08T09:13:26Z</time>
      </trkpt>
      <trkpt lat="44.27633" lon="6.71344">
        <ele>2529</ele>
        <time>2018-07-08T09:13:32Z</time>
      </trkpt>
      <trkpt lat="44.27629" lon="6.7134">
        <ele>2529</ele>
        <time>2018-07-08T09:13:40Z</time>
      </trkpt>
      <trkpt lat="44.27624" lon="6.71336">
        <ele>2530</ele>
        <time>2018-07-08T09:13:48Z</time>
      </trkpt>
      <trkpt lat="44.27619" lon="6.71331">
        <ele>2543</ele>
        <time>2018-07-08T09:13:56Z</time>
      </trkpt>
      <trkpt lat="44.27616" lon="6.71326">
        <ele>2544</ele>
        <time>2018-07-08T09:14:02Z</time>
      </trkpt>
      <trkpt lat="44.27611" lon="6.71322">
        <ele>2544</ele>
        <time>2018-07-08T09:14:08Z</time>
      </trkpt>
      <trkpt lat="44.27607" lon="6.71318">
        <ele>2544</ele>
        <time>2018-07-08T09:14:14Z</time>
      </trkpt>
      <trkpt lat="44.27605" lon="6.71312">
        <ele>2545</ele>
        <time>2018-07-08T09:14:20Z</time>
      </trkpt>
      <trkpt lat="44.27602" lon="6.71307">
        <ele>2545</ele>
        <time>2018-07-08T09:14:26Z</time>
      </trkpt>
      <trkpt lat="44.276" lon="6.713">
        <ele>2546</ele>
        <time>2018-07-08T09:14:34Z</time>
      </trkpt>
      <trkpt lat="44.27601" lon="6.71293">
        <ele>2547</ele>
        <time>2018-07-08T09:14:42Z</time>
      </trkpt>
      <trkpt lat="44.27598" lon="6.71286">
        <ele>2548</ele>
        <time>2018-07-08T09:14:52Z</time>
      </trkpt>
      <trkpt lat="44.27593" lon="6.71282">
        <ele>2549</ele>
        <time>2018-07-08T09:15:00Z</time>
      </trkpt>
      <trkpt lat="44.27587" lon="6.71284">
        <ele>2549</ele>
        <time>2018-07-08T09:15:08Z</time>
      </trkpt>
      <trkpt lat="44.27582" lon="6.71283">
        <ele>2551</ele>
        <time>2018-07-08T09:15:14Z</time>
      </trkpt>
      <trkpt lat="44.27577" lon="6.71279">
        <ele>2552</ele>
        <time>2018-07-08T09:15:22Z</time>
      </trkpt>
      <trkpt lat="44.27574" lon="6.71275">
        <ele>2552</ele>
        <time>2018-07-08T09:15:28Z</time>
      </trkpt>
      <trkpt lat="44.27571" lon="6.71269">
        <ele>2553</ele>
        <time>2018-07-08T09:15:34Z</time>
      </trkpt>
      <trkpt lat="44.27566" lon="6.71266">
        <ele>2553</ele>
        <time>2018-07-08T09:15:42Z</time>
      </trkpt>
      <trkpt lat="44.27562" lon="6.71263">
        <ele>2553</ele>
        <time>2018-07-08T09:15:48Z</time>
      </trkpt>
      <trkpt lat="44.27564" lon="6.71256">
        <ele>2554</ele>
        <time>2018-07-08T09:16:06Z</time>
      </trkpt>
      <trkpt lat="44.27569" lon="6.71253">
        <ele>2555</ele>
        <time>2018-07-08T09:16:12Z</time>
      </trkpt>
      <trkpt lat="44.27574" lon="6.71251">
        <ele>2556</ele>
        <time>2018-07-08T09:16:16Z</time>
      </trkpt>
      <trkpt lat="44.2758" lon="6.71249">
        <ele>2558</ele>
        <time>2018-07-08T09:16:22Z</time>
      </trkpt>
      <trkpt lat="44.27585" lon="6.71248">
        <ele>2558</ele>
        <time>2018-07-08T09:16:28Z</time>
      </trkpt>
      <trkpt lat="44.2759" lon="6.71244">
        <ele>2558</ele>
        <time>2018-07-08T09:16:38Z</time>
      </trkpt>
      <trkpt lat="44.27585" lon="6.71242">
        <ele>2558</ele>
        <time>2018-07-08T09:16:50Z</time>
      </trkpt>
      <trkpt lat="44.27581" lon="6.71238">
        <ele>2558</ele>
        <time>2018-07-08T09:17:34Z</time>
      </trkpt>
      <trkpt lat="44.27578" lon="6.71233">
        <ele>2558</ele>
        <time>2018-07-08T09:17:40Z</time>
      </trkpt>
      <trkpt lat="44.27574" lon="6.71227">
        <ele>2558</ele>
        <time>2018-07-08T09:17:46Z</time>
      </trkpt>
      <trkpt lat="44.27569" lon="6.71223">
        <ele>2558</ele>
        <time>2018-07-08T09:17:52Z</time>
      </trkpt>
      <trkpt lat="44.27566" lon="6.71219">
        <ele>2558</ele>
        <time>2018-07-08T09:17:58Z</time>
      </trkpt>
      <trkpt lat="44.27562" lon="6.71211">
        <ele>2558</ele>
        <time>2018-07-08T09:18:04Z</time>
      </trkpt>
      <trkpt lat="44.27562" lon="6.71202">
        <ele>2558</ele>
        <time>2018-07-08T09:18:12Z</time>
      </trkpt>
      <trkpt lat="44.2756" lon="6.71196">
        <ele>2558</ele>
        <time>2018-07-08T09:18:18Z</time>
      </trkpt>
      <trkpt lat="44.27557" lon="6.71191">
        <ele>2558</ele>
        <time>2018-07-08T09:18:24Z</time>
      </trkpt>
      <trkpt lat="44.27551" lon="6.71185">
        <ele>2558</ele>
        <time>2018-07-08T09:18:30Z</time>
      </trkpt>
      <trkpt lat="44.27547" lon="6.7118">
        <ele>2558</ele>
        <time>2018-07-08T09:18:36Z</time>
      </trkpt>
      <trkpt lat="44.27544" lon="6.71174">
        <ele>2558</ele>
        <time>2018-07-08T09:18:42Z</time>
      </trkpt>
      <trkpt lat="44.27542" lon="6.71167">
        <ele>2558</ele>
        <time>2018-07-08T09:18:48Z</time>
      </trkpt>
      <trkpt lat="44.27542" lon="6.7116">
        <ele>2621</ele>
        <time>2018-07-08T09:18:58Z</time>
      </trkpt>
      <trkpt lat="44.27538" lon="6.71157">
        <ele>2621</ele>
        <time>2018-07-08T09:19:04Z</time>
      </trkpt>
      <trkpt lat="44.27535" lon="6.71151">
        <ele>2621</ele>
        <time>2018-07-08T09:19:10Z</time>
      </trkpt>
      <trkpt lat="44.27532" lon="6.71144">
        <ele>2621</ele>
        <time>2018-07-08T09:19:16Z</time>
      </trkpt>
      <trkpt lat="44.27528" lon="6.71136">
        <ele>2622</ele>
        <time>2018-07-08T09:19:22Z</time>
      </trkpt>
      <trkpt lat="44.27526" lon="6.7113">
        <ele>2623</ele>
        <time>2018-07-08T09:19:28Z</time>
      </trkpt>
      <trkpt lat="44.27524" lon="6.71124">
        <ele>2626</ele>
        <time>2018-07-08T09:19:36Z</time>
      </trkpt>
      <trkpt lat="44.27521" lon="6.71117">
        <ele>2625</ele>
        <time>2018-07-08T09:19:42Z</time>
      </trkpt>
      <trkpt lat="44.27518" lon="6.7111">
        <ele>2625</ele>
        <time>2018-07-08T09:19:48Z</time>
      </trkpt>
      <trkpt lat="44.27518" lon="6.71102">
        <ele>2624</ele>
        <time>2018-07-08T09:19:54Z</time>
      </trkpt>
      <trkpt lat="44.27517" lon="6.71094">
        <ele>2626</ele>
        <time>2018-07-08T09:20:02Z</time>
      </trkpt>
      <trkpt lat="44.27516" lon="6.71088">
        <ele>2629</ele>
        <time>2018-07-08T09:20:10Z</time>
      </trkpt>
      <trkpt lat="44.27512" lon="6.71082">
        <ele>2631</ele>
        <time>2018-07-08T09:20:20Z</time>
      </trkpt>
      <trkpt lat="44.2751" lon="6.71076">
        <ele>2632</ele>
        <time>2018-07-08T09:20:28Z</time>
      </trkpt>
      <trkpt lat="44.27507" lon="6.7107">
        <ele>2632</ele>
        <time>2018-07-08T09:20:36Z</time>
      </trkpt>
      <trkpt lat="44.27503" lon="6.71065">
        <ele>2633</ele>
        <time>2018-07-08T09:20:42Z</time>
      </trkpt>
      <trkpt lat="44.27499" lon="6.71059">
        <ele>2634</ele>
        <time>2018-07-08T09:20:48Z</time>
      </trkpt>
      <trkpt lat="44.27496" lon="6.71055">
        <ele>2635</ele>
        <time>2018-07-08T09:20:54Z</time>
      </trkpt>
      <trkpt lat="44.27494" lon="6.71049">
        <ele>2637</ele>
        <time>2018-07-08T09:21:02Z</time>
      </trkpt>
      <trkpt lat="44.27497" lon="6.71042">
        <ele>2637</ele>
        <time>2018-07-08T09:21:08Z</time>
      </trkpt>
      <trkpt lat="44.27499" lon="6.71036">
        <ele>2641</ele>
        <time>2018-07-08T09:21:16Z</time>
      </trkpt>
      <trkpt lat="44.275" lon="6.71029">
        <ele>2641</ele>
        <time>2018-07-08T09:21:24Z</time>
      </trkpt>
      <trkpt lat="44.27502" lon="6.71024">
        <ele>2644</ele>
        <time>2018-07-08T09:21:34Z</time>
      </trkpt>
      <trkpt lat="44.27498" lon="6.71019">
        <ele>2645</ele>
        <time>2018-07-08T09:21:46Z</time>
      </trkpt>
      <trkpt lat="44.27493" lon="6.71017">
        <ele>2644</ele>
        <time>2018-07-08T09:21:54Z</time>
      </trkpt>
      <trkpt lat="44.27488" lon="6.71016">
        <ele>2644</ele>
        <time>2018-07-08T09:22:00Z</time>
      </trkpt>
      <trkpt lat="44.27484" lon="6.71012">
        <ele>2644</ele>
        <time>2018-07-08T09:22:06Z</time>
      </trkpt>
      <trkpt lat="44.2748" lon="6.71009">
        <ele>2644</ele>
        <time>2018-07-08T09:22:12Z</time>
      </trkpt>
      <trkpt lat="44.27475" lon="6.71004">
        <ele>2644</ele>
        <time>2018-07-08T09:22:18Z</time>
      </trkpt>
      <trkpt lat="44.27471" lon="6.71">
        <ele>2645</ele>
        <time>2018-07-08T09:22:24Z</time>
      </trkpt>
      <trkpt lat="44.27467" lon="6.70996">
        <ele>2645</ele>
        <time>2018-07-08T09:22:32Z</time>
      </trkpt>
      <trkpt lat="44.27461" lon="6.70994">
        <ele>2647</ele>
        <time>2018-07-08T09:22:42Z</time>
      </trkpt>
      <trkpt lat="44.27456" lon="6.7099">
        <ele>2649</ele>
        <time>2018-07-08T09:22:54Z</time>
      </trkpt>
      <trkpt lat="44.27455" lon="6.70983">
        <ele>2650</ele>
        <time>2018-07-08T09:23:04Z</time>
      </trkpt>
      <trkpt lat="44.27452" lon="6.70977">
        <ele>2652</ele>
        <time>2018-07-08T09:23:10Z</time>
      </trkpt>
      <trkpt lat="44.27448" lon="6.70972">
        <ele>2652</ele>
        <time>2018-07-08T09:23:20Z</time>
      </trkpt>
      <trkpt lat="44.27445" lon="6.70967">
        <ele>2654</ele>
        <time>2018-07-08T09:23:28Z</time>
      </trkpt>
      <trkpt lat="44.27441" lon="6.70961">
        <ele>2658</ele>
        <time>2018-07-08T09:23:40Z</time>
      </trkpt>
      <trkpt lat="44.27439" lon="6.70955">
        <ele>2658</ele>
        <time>2018-07-08T09:23:48Z</time>
      </trkpt>
      <trkpt lat="44.27436" lon="6.70949">
        <ele>2659</ele>
        <time>2018-07-08T09:23:54Z</time>
      </trkpt>
      <trkpt lat="44.27434" lon="6.70941">
        <ele>2658</ele>
        <time>2018-07-08T09:24:00Z</time>
      </trkpt>
      <trkpt lat="44.27434" lon="6.70934">
        <ele>2660</ele>
        <time>2018-07-08T09:24:08Z</time>
      </trkpt>
      <trkpt lat="44.2743" lon="6.70928">
        <ele>2662</ele>
        <time>2018-07-08T09:24:16Z</time>
      </trkpt>
      <trkpt lat="44.27428" lon="6.70921">
        <ele>2662</ele>
        <time>2018-07-08T09:24:24Z</time>
      </trkpt>
      <trkpt lat="44.27424" lon="6.70916">
        <ele>2663</ele>
        <time>2018-07-08T09:24:30Z</time>
      </trkpt>
      <trkpt lat="44.27426" lon="6.70908">
        <ele>2662</ele>
        <time>2018-07-08T09:24:38Z</time>
      </trkpt>
      <trkpt lat="44.27432" lon="6.70906">
        <ele>2662</ele>
        <time>2018-07-08T09:24:44Z</time>
      </trkpt>
      <trkpt lat="44.27437" lon="6.70904">
        <ele>2662</ele>
        <time>2018-07-08T09:24:48Z</time>
      </trkpt>
      <trkpt lat="44.27442" lon="6.70904">
        <ele>2662</ele>
        <time>2018-07-08T09:24:54Z</time>
      </trkpt>
      <trkpt lat="44.27447" lon="6.70903">
        <ele>2661</ele>
        <time>2018-07-08T09:25:00Z</time>
      </trkpt>
      <trkpt lat="44.27452" lon="6.70904">
        <ele>2662</ele>
        <time>2018-07-08T09:25:06Z</time>
      </trkpt>
      <trkpt lat="44.27457" lon="6.70903">
        <ele>2662</ele>
        <time>2018-07-08T09:25:12Z</time>
      </trkpt>
      <trkpt lat="44.27462" lon="6.70902">
        <ele>2662</ele>
        <time>2018-07-08T09:25:18Z</time>
      </trkpt>
      <trkpt lat="44.27468" lon="6.70903">
        <ele>2660</ele>
        <time>2018-07-08T09:25:26Z</time>
      </trkpt>
      <trkpt lat="44.27474" lon="6.70902">
        <ele>2662</ele>
        <time>2018-07-08T09:25:34Z</time>
      </trkpt>
      <trkpt lat="44.27479" lon="6.70903">
        <ele>2665</ele>
        <time>2018-07-08T09:25:42Z</time>
      </trkpt>
      <trkpt lat="44.27485" lon="6.70902">
        <ele>2665</ele>
        <time>2018-07-08T09:25:50Z</time>
      </trkpt>
      <trkpt lat="44.2748" lon="6.70898">
        <ele>2670</ele>
        <time>2018-07-08T09:26:02Z</time>
      </trkpt>
      <trkpt lat="44.27476" lon="6.70893">
        <ele>2671</ele>
        <time>2018-07-08T09:26:10Z</time>
      </trkpt>
      <trkpt lat="44.27472" lon="6.70889">
        <ele>2673</ele>
        <time>2018-07-08T09:26:20Z</time>
      </trkpt>
      <trkpt lat="44.27468" lon="6.70884">
        <ele>2677</ele>
        <time>2018-07-08T09:26:30Z</time>
      </trkpt>
      <trkpt lat="44.27464" lon="6.7088">
        <ele>2679</ele>
        <time>2018-07-08T09:26:38Z</time>
      </trkpt>
      <trkpt lat="44.27459" lon="6.70875">
        <ele>2680</ele>
        <time>2018-07-08T09:26:46Z</time>
      </trkpt>
      <trkpt lat="44.27454" lon="6.70873">
        <ele>2680</ele>
        <time>2018-07-08T09:26:52Z</time>
      </trkpt>
      <trkpt lat="44.2745" lon="6.70867">
        <ele>2681</ele>
        <time>2018-07-08T09:27:02Z</time>
      </trkpt>
      <trkpt lat="44.27446" lon="6.70863">
        <ele>2682</ele>
        <time>2018-07-08T09:27:08Z</time>
      </trkpt>
      <trkpt lat="44.27451" lon="6.70864">
        <ele>2682</ele>
        <time>2018-07-08T09:27:16Z</time>
      </trkpt>
      <trkpt lat="44.27455" lon="6.70867">
        <ele>2683</ele>
        <time>2018-07-08T09:27:20Z</time>
      </trkpt>
      <trkpt lat="44.27462" lon="6.70869">
        <ele>2684</ele>
        <time>2018-07-08T09:27:26Z</time>
      </trkpt>
      <trkpt lat="44.27468" lon="6.70871">
        <ele>2684</ele>
        <time>2018-07-08T09:27:34Z</time>
      </trkpt>
      <trkpt lat="44.27473" lon="6.7087">
        <ele>2685</ele>
        <time>2018-07-08T09:27:40Z</time>
      </trkpt>
      <trkpt lat="44.27478" lon="6.70871">
        <ele>2687</ele>
        <time>2018-07-08T09:27:48Z</time>
      </trkpt>
      <trkpt lat="44.27483" lon="6.70872">
        <ele>2688</ele>
        <time>2018-07-08T09:27:54Z</time>
      </trkpt>
      <trkpt lat="44.27488" lon="6.70873">
        <ele>2688</ele>
        <time>2018-07-08T09:28:00Z</time>
      </trkpt>
      <trkpt lat="44.27493" lon="6.70873">
        <ele>2688</ele>
        <time>2018-07-08T09:28:04Z</time>
      </trkpt>
      <trkpt lat="44.27497" lon="6.70874">
        <ele>2689</ele>
        <time>2018-07-08T09:28:10Z</time>
      </trkpt>
      <trkpt lat="44.27503" lon="6.70876">
        <ele>2689</ele>
        <time>2018-07-08T09:28:16Z</time>
      </trkpt>
      <trkpt lat="44.27508" lon="6.70877">
        <ele>2690</ele>
        <time>2018-07-08T09:28:22Z</time>
      </trkpt>
      <trkpt lat="44.27513" lon="6.70877">
        <ele>2689</ele>
        <time>2018-07-08T09:28:28Z</time>
      </trkpt>
      <trkpt lat="44.27519" lon="6.70878">
        <ele>2691</ele>
        <time>2018-07-08T09:28:36Z</time>
      </trkpt>
      <trkpt lat="44.27523" lon="6.70881">
        <ele>2691</ele>
        <time>2018-07-08T09:28:42Z</time>
      </trkpt>
      <trkpt lat="44.27527" lon="6.70884">
        <ele>2693</ele>
        <time>2018-07-08T09:28:50Z</time>
      </trkpt>
      <trkpt lat="44.27533" lon="6.70885">
        <ele>2692</ele>
        <time>2018-07-08T09:28:56Z</time>
      </trkpt>
      <trkpt lat="44.27537" lon="6.70887">
        <ele>2697</ele>
        <time>2018-07-08T09:29:04Z</time>
      </trkpt>
      <trkpt lat="44.27533" lon="6.70881">
        <ele>2706</ele>
        <time>2018-07-08T09:29:26Z</time>
      </trkpt>
      <trkpt lat="44.27528" lon="6.70875">
        <ele>2707</ele>
        <time>2018-07-08T09:29:34Z</time>
      </trkpt>
      <trkpt lat="44.27526" lon="6.70869">
        <ele>2708</ele>
        <time>2018-07-08T09:29:42Z</time>
      </trkpt>
      <trkpt lat="44.27522" lon="6.70864">
        <ele>2711</ele>
        <time>2018-07-08T09:29:52Z</time>
      </trkpt>
      <trkpt lat="44.27518" lon="6.70861">
        <ele>2712</ele>
        <time>2018-07-08T09:30:02Z</time>
      </trkpt>
      <trkpt lat="44.27514" lon="6.70855">
        <ele>2713</ele>
        <time>2018-07-08T09:30:12Z</time>
      </trkpt>
      <trkpt lat="44.27509" lon="6.70853">
        <ele>2715</ele>
        <time>2018-07-08T09:30:20Z</time>
      </trkpt>
      <trkpt lat="44.27505" lon="6.7085">
        <ele>2716</ele>
        <time>2018-07-08T09:30:30Z</time>
      </trkpt>
      <trkpt lat="44.27502" lon="6.70842">
        <ele>2718</ele>
        <time>2018-07-08T09:30:40Z</time>
      </trkpt>
      <trkpt lat="44.27497" lon="6.70838">
        <ele>2719</ele>
        <time>2018-07-08T09:30:48Z</time>
      </trkpt>
      <trkpt lat="44.27492" lon="6.70835">
        <ele>2721</ele>
        <time>2018-07-08T09:30:56Z</time>
      </trkpt>
      <trkpt lat="44.27489" lon="6.70831">
        <ele>2723</ele>
        <time>2018-07-08T09:31:06Z</time>
      </trkpt>
      <trkpt lat="44.27486" lon="6.70825">
        <ele>2723</ele>
        <time>2018-07-08T09:31:18Z</time>
      </trkpt>
      <trkpt lat="44.27481" lon="6.70822">
        <ele>2725</ele>
        <time>2018-07-08T09:31:26Z</time>
      </trkpt>
      <trkpt lat="44.27477" lon="6.70817">
        <ele>2727</ele>
        <time>2018-07-08T09:31:36Z</time>
      </trkpt>
      <trkpt lat="44.27473" lon="6.70811">
        <ele>2728</ele>
        <time>2018-07-08T09:31:44Z</time>
      </trkpt>
      <trkpt lat="44.2747" lon="6.70806">
        <ele>2730</ele>
        <time>2018-07-08T09:32:00Z</time>
      </trkpt>
      <trkpt lat="44.27467" lon="6.70799">
        <ele>2731</ele>
        <time>2018-07-08T09:32:08Z</time>
      </trkpt>
      <trkpt lat="44.2747" lon="6.70805">
        <ele>2732</ele>
        <time>2018-07-08T09:33:42Z</time>
      </trkpt>
      <trkpt lat="44.27476" lon="6.7081">
        <ele>2732</ele>
        <time>2018-07-08T09:33:48Z</time>
      </trkpt>
      <trkpt lat="44.2748" lon="6.70814">
        <ele>2732</ele>
        <time>2018-07-08T09:33:54Z</time>
      </trkpt>
      <trkpt lat="44.27485" lon="6.70818">
        <ele>2733</ele>
        <time>2018-07-08T09:34:00Z</time>
      </trkpt>
      <trkpt lat="44.2749" lon="6.70823">
        <ele>2731</ele>
        <time>2018-07-08T09:34:06Z</time>
      </trkpt>
      <trkpt lat="44.27496" lon="6.70828">
        <ele>2731</ele>
        <time>2018-07-08T09:34:12Z</time>
      </trkpt>
      <trkpt lat="44.275" lon="6.70831">
        <ele>2731</ele>
        <time>2018-07-08T09:34:18Z</time>
      </trkpt>
      <trkpt lat="44.27506" lon="6.70832">
        <ele>2732</ele>
        <time>2018-07-08T09:34:34Z</time>
      </trkpt>
      <trkpt lat="44.27511" lon="6.70835">
        <ele>2734</ele>
        <time>2018-07-08T09:34:40Z</time>
      </trkpt>
      <trkpt lat="44.27516" lon="6.70835">
        <ele>2733</ele>
        <time>2018-07-08T09:34:44Z</time>
      </trkpt>
      <trkpt lat="44.27522" lon="6.70837">
        <ele>2732</ele>
        <time>2018-07-08T09:34:48Z</time>
      </trkpt>
      <trkpt lat="44.27528" lon="6.70839">
        <ele>2732</ele>
        <time>2018-07-08T09:34:54Z</time>
      </trkpt>
      <trkpt lat="44.27535" lon="6.70841">
        <ele>2734</ele>
        <time>2018-07-08T09:35:00Z</time>
      </trkpt>
      <trkpt lat="44.27539" lon="6.70843">
        <ele>2734</ele>
        <time>2018-07-08T09:35:04Z</time>
      </trkpt>
      <trkpt lat="44.27544" lon="6.70847">
        <ele>2734</ele>
        <time>2018-07-08T09:35:08Z</time>
      </trkpt>
      <trkpt lat="44.27548" lon="6.70851">
        <ele>2734</ele>
        <time>2018-07-08T09:35:12Z</time>
      </trkpt>
      <trkpt lat="44.27553" lon="6.70854">
        <ele>2736</ele>
        <time>2018-07-08T09:35:18Z</time>
      </trkpt>
      <trkpt lat="44.27559" lon="6.70854">
        <ele>2739</ele>
        <time>2018-07-08T09:35:24Z</time>
      </trkpt>
      <trkpt lat="44.27564" lon="6.70856">
        <ele>2741</ele>
        <time>2018-07-08T09:35:32Z</time>
      </trkpt>
      <trkpt lat="44.2757" lon="6.70856">
        <ele>2743</ele>
        <time>2018-07-08T09:35:40Z</time>
      </trkpt>
      <trkpt lat="44.27575" lon="6.70855">
        <ele>2744</ele>
        <time>2018-07-08T09:35:48Z</time>
      </trkpt>
      <trkpt lat="44.27581" lon="6.70855">
        <ele>2745</ele>
        <time>2018-07-08T09:35:56Z</time>
      </trkpt>
      <trkpt lat="44.27586" lon="6.70855">
        <ele>2745</ele>
        <time>2018-07-08T09:36:06Z</time>
      </trkpt>
      <trkpt lat="44.27591" lon="6.70852">
        <ele>2745</ele>
        <time>2018-07-08T09:36:12Z</time>
      </trkpt>
      <trkpt lat="44.27595" lon="6.70851">
        <ele>2746</ele>
        <time>2018-07-08T09:36:18Z</time>
      </trkpt>
      <trkpt lat="44.276" lon="6.70851">
        <ele>2748</ele>
        <time>2018-07-08T09:36:26Z</time>
      </trkpt>
      <trkpt lat="44.27605" lon="6.70848">
        <ele>2748</ele>
        <time>2018-07-08T09:36:34Z</time>
      </trkpt>
      <trkpt lat="44.2761" lon="6.70845">
        <ele>2751</ele>
        <time>2018-07-08T09:36:42Z</time>
      </trkpt>
      <trkpt lat="44.27615" lon="6.70846">
        <ele>2752</ele>
        <time>2018-07-08T09:36:50Z</time>
      </trkpt>
      <trkpt lat="44.2762" lon="6.70847">
        <ele>2753</ele>
        <time>2018-07-08T09:37:02Z</time>
      </trkpt>
      <trkpt lat="44.27624" lon="6.70842">
        <ele>2754</ele>
        <time>2018-07-08T09:37:12Z</time>
      </trkpt>
      <trkpt lat="44.27629" lon="6.7084">
        <ele>2757</ele>
        <time>2018-07-08T09:37:20Z</time>
      </trkpt>
      <trkpt lat="44.27633" lon="6.70838">
        <ele>2758</ele>
        <time>2018-07-08T09:37:28Z</time>
      </trkpt>
      <trkpt lat="44.27637" lon="6.70842">
        <ele>2762</ele>
        <time>2018-07-08T09:37:42Z</time>
      </trkpt>
      <trkpt lat="44.27641" lon="6.70844">
        <ele>2763</ele>
        <time>2018-07-08T09:37:54Z</time>
      </trkpt>
      <trkpt lat="44.27646" lon="6.70845">
        <ele>2764</ele>
        <time>2018-07-08T09:38:02Z</time>
      </trkpt>
      <trkpt lat="44.27651" lon="6.70845">
        <ele>2766</ele>
        <time>2018-07-08T09:38:10Z</time>
      </trkpt>
      <trkpt lat="44.27656" lon="6.70842">
        <ele>2768</ele>
        <time>2018-07-08T09:38:26Z</time>
      </trkpt>
      <trkpt lat="44.2766" lon="6.70848">
        <ele>2770</ele>
        <time>2018-07-08T09:38:42Z</time>
      </trkpt>
      <trkpt lat="44.27663" lon="6.70844">
        <ele>2771</ele>
        <time>2018-07-08T09:38:48Z</time>
      </trkpt>
      <trkpt lat="44.27668" lon="6.70838">
        <ele>2770</ele>
        <time>2018-07-08T09:38:56Z</time>
      </trkpt>
      <trkpt lat="44.27673" lon="6.70839">
        <ele>2773</ele>
        <time>2018-07-08T09:39:04Z</time>
      </trkpt>
      <trkpt lat="44.27678" lon="6.70838">
        <ele>2776</ele>
        <time>2018-07-08T09:39:14Z</time>
      </trkpt>
      <trkpt lat="44.27683" lon="6.70836">
        <ele>2778</ele>
        <time>2018-07-08T09:39:22Z</time>
      </trkpt>
      <trkpt lat="44.27687" lon="6.70836">
        <ele>2779</ele>
        <time>2018-07-08T09:39:34Z</time>
      </trkpt>
      <trkpt lat="44.27691" lon="6.7083">
        <ele>2781</ele>
        <time>2018-07-08T09:39:44Z</time>
      </trkpt>
      <trkpt lat="44.27696" lon="6.70826">
        <ele>2784</ele>
        <time>2018-07-08T09:39:54Z</time>
      </trkpt>
      <trkpt lat="44.27701" lon="6.70825">
        <ele>2785</ele>
        <time>2018-07-08T09:40:00Z</time>
      </trkpt>
      <trkpt lat="44.27706" lon="6.70827">
        <ele>2786</ele>
        <time>2018-07-08T09:40:08Z</time>
      </trkpt>
      <trkpt lat="44.27708" lon="6.70835">
        <ele>2787</ele>
        <time>2018-07-08T09:40:18Z</time>
      </trkpt>
      <trkpt lat="44.27714" lon="6.7084">
        <ele>2788</ele>
        <time>2018-07-08T09:40:24Z</time>
      </trkpt>
      <trkpt lat="44.27718" lon="6.70845">
        <ele>2789</ele>
        <time>2018-07-08T09:40:32Z</time>
      </trkpt>
      <trkpt lat="44.27723" lon="6.70841">
        <ele>2789</ele>
        <time>2018-07-08T09:40:40Z</time>
      </trkpt>
      <trkpt lat="44.27727" lon="6.70839">
        <ele>2789</ele>
        <time>2018-07-08T09:40:46Z</time>
      </trkpt>
      <trkpt lat="44.27732" lon="6.70837">
        <ele>2789</ele>
        <time>2018-07-08T09:40:54Z</time>
      </trkpt>
      <trkpt lat="44.27737" lon="6.70833">
        <ele>2789</ele>
        <time>2018-07-08T09:41:00Z</time>
      </trkpt>
      <trkpt lat="44.27743" lon="6.7083">
        <ele>2790</ele>
        <time>2018-07-08T09:41:08Z</time>
      </trkpt>
      <trkpt lat="44.27749" lon="6.70827">
        <ele>2791</ele>
        <time>2018-07-08T09:41:16Z</time>
      </trkpt>
      <trkpt lat="44.27754" lon="6.70829">
        <ele>2792</ele>
        <time>2018-07-08T09:41:24Z</time>
      </trkpt>
      <trkpt lat="44.27758" lon="6.70831">
        <ele>2794</ele>
        <time>2018-07-08T09:41:32Z</time>
      </trkpt>
      <trkpt lat="44.27763" lon="6.70831">
        <ele>2795</ele>
        <time>2018-07-08T09:41:40Z</time>
      </trkpt>
      <trkpt lat="44.27768" lon="6.70833">
        <ele>2797</ele>
        <time>2018-07-08T09:41:48Z</time>
      </trkpt>
      <trkpt lat="44.27773" lon="6.70832">
        <ele>2797</ele>
        <time>2018-07-08T09:41:54Z</time>
      </trkpt>
      <trkpt lat="44.27777" lon="6.70835">
        <ele>2796</ele>
        <time>2018-07-08T09:42:00Z</time>
      </trkpt>
      <trkpt lat="44.27782" lon="6.7084">
        <ele>2796</ele>
        <time>2018-07-08T09:42:08Z</time>
      </trkpt>
      <trkpt lat="44.27787" lon="6.70844">
        <ele>2797</ele>
        <time>2018-07-08T09:42:14Z</time>
      </trkpt>
      <trkpt lat="44.27792" lon="6.70848">
        <ele>2798</ele>
        <time>2018-07-08T09:42:22Z</time>
      </trkpt>
      <trkpt lat="44.27797" lon="6.7085">
        <ele>2799</ele>
        <time>2018-07-08T09:42:30Z</time>
      </trkpt>
      <trkpt lat="44.27802" lon="6.70852">
        <ele>2801</ele>
        <time>2018-07-08T09:42:36Z</time>
      </trkpt>
      <trkpt lat="44.27805" lon="6.70858">
        <ele>2804</ele>
        <time>2018-07-08T09:42:44Z</time>
      </trkpt>
      <trkpt lat="44.27807" lon="6.70865">
        <ele>2805</ele>
        <time>2018-07-08T09:42:52Z</time>
      </trkpt>
      <trkpt lat="44.2781" lon="6.70871">
        <ele>2806</ele>
        <time>2018-07-08T09:42:58Z</time>
      </trkpt>
      <trkpt lat="44.27813" lon="6.70878">
        <ele>2804</ele>
        <time>2018-07-08T09:43:06Z</time>
      </trkpt>
      <trkpt lat="44.27817" lon="6.70878">
        <ele>2804</ele>
        <time>2018-07-08T09:43:10Z</time>
      </trkpt>
      <trkpt lat="44.27821" lon="6.70882">
        <ele>2803</ele>
        <time>2018-07-08T09:43:14Z</time>
      </trkpt>
      <trkpt lat="44.27826" lon="6.70886">
        <ele>2803</ele>
        <time>2018-07-08T09:43:20Z</time>
      </trkpt>
      <trkpt lat="44.2783" lon="6.70889">
        <ele>2804</ele>
        <time>2018-07-08T09:43:26Z</time>
      </trkpt>
      <trkpt lat="44.27836" lon="6.70891">
        <ele>2805</ele>
        <time>2018-07-08T09:43:32Z</time>
      </trkpt>
      <trkpt lat="44.27842" lon="6.70892">
        <ele>2806</ele>
        <time>2018-07-08T09:43:38Z</time>
      </trkpt>
      <trkpt lat="44.27847" lon="6.70894">
        <ele>2806</ele>
        <time>2018-07-08T09:43:44Z</time>
      </trkpt>
      <trkpt lat="44.27852" lon="6.70896">
        <ele>2806</ele>
        <time>2018-07-08T09:43:48Z</time>
      </trkpt>
      <trkpt lat="44.27857" lon="6.70899">
        <ele>2808</ele>
        <time>2018-07-08T09:43:54Z</time>
      </trkpt>
      <trkpt lat="44.27862" lon="6.70903">
        <ele>2808</ele>
        <time>2018-07-08T09:44:00Z</time>
      </trkpt>
      <trkpt lat="44.27865" lon="6.70908">
        <ele>2810</ele>
        <time>2018-07-08T09:44:06Z</time>
      </trkpt>
      <trkpt lat="44.27869" lon="6.70912">
        <ele>2812</ele>
        <time>2018-07-08T09:44:12Z</time>
      </trkpt>
      <trkpt lat="44.27873" lon="6.70916">
        <ele>2812</ele>
        <time>2018-07-08T09:44:18Z</time>
      </trkpt>
      <trkpt lat="44.27878" lon="6.70923">
        <ele>2813</ele>
        <time>2018-07-08T09:44:24Z</time>
      </trkpt>
      <trkpt lat="44.27882" lon="6.70928">
        <ele>2813</ele>
        <time>2018-07-08T09:44:28Z</time>
      </trkpt>
      <trkpt lat="44.27887" lon="6.70933">
        <ele>2813</ele>
        <time>2018-07-08T09:44:34Z</time>
      </trkpt>
      <trkpt lat="44.27891" lon="6.70935">
        <ele>2814</ele>
        <time>2018-07-08T09:44:40Z</time>
      </trkpt>
      <trkpt lat="44.27896" lon="6.70939">
        <ele>2815</ele>
        <time>2018-07-08T09:44:46Z</time>
      </trkpt>
      <trkpt lat="44.27902" lon="6.7094">
        <ele>2815</ele>
        <time>2018-07-08T09:44:52Z</time>
      </trkpt>
      <trkpt lat="44.27908" lon="6.70942">
        <ele>2814</ele>
        <time>2018-07-08T09:44:58Z</time>
      </trkpt>
      <trkpt lat="44.27915" lon="6.70944">
        <ele>2814</ele>
        <time>2018-07-08T09:45:04Z</time>
      </trkpt>
      <trkpt lat="44.27919" lon="6.70947">
        <ele>2815</ele>
        <time>2018-07-08T09:45:10Z</time>
      </trkpt>
      <trkpt lat="44.27925" lon="6.70949">
        <ele>2817</ele>
        <time>2018-07-08T09:45:16Z</time>
      </trkpt>
      <trkpt lat="44.27929" lon="6.70952">
        <ele>2820</ele>
        <time>2018-07-08T09:45:22Z</time>
      </trkpt>
      <trkpt lat="44.27934" lon="6.70953">
        <ele>2821</ele>
        <time>2018-07-08T09:45:28Z</time>
      </trkpt>
      <trkpt lat="44.27939" lon="6.70955">
        <ele>2822</ele>
        <time>2018-07-08T09:45:36Z</time>
      </trkpt>
      <trkpt lat="44.27944" lon="6.70951">
        <ele>2822</ele>
        <time>2018-07-08T09:45:42Z</time>
      </trkpt>
      <trkpt lat="44.27949" lon="6.70953">
        <ele>2824</ele>
        <time>2018-07-08T09:45:48Z</time>
      </trkpt>
      <trkpt lat="44.27953" lon="6.70957">
        <ele>2825</ele>
        <time>2018-07-08T09:45:54Z</time>
      </trkpt>
      <trkpt lat="44.27959" lon="6.70958">
        <ele>2826</ele>
        <time>2018-07-08T09:46:00Z</time>
      </trkpt>
      <trkpt lat="44.27962" lon="6.70963">
        <ele>2828</ele>
        <time>2018-07-08T09:46:08Z</time>
      </trkpt>
      <trkpt lat="44.27966" lon="6.70967">
        <ele>2830</ele>
        <time>2018-07-08T09:46:14Z</time>
      </trkpt>
      <trkpt lat="44.2797" lon="6.70972">
        <ele>2830</ele>
        <time>2018-07-08T09:46:20Z</time>
      </trkpt>
      <trkpt lat="44.27974" lon="6.70975">
        <ele>2831</ele>
        <time>2018-07-08T09:46:26Z</time>
      </trkpt>
      <trkpt lat="44.27978" lon="6.70981">
        <ele>2833</ele>
        <time>2018-07-08T09:46:32Z</time>
      </trkpt>
      <trkpt lat="44.27982" lon="6.70983">
        <ele>2834</ele>
        <time>2018-07-08T09:46:38Z</time>
      </trkpt>
      <trkpt lat="44.27988" lon="6.70984">
        <ele>2836</ele>
        <time>2018-07-08T09:46:48Z</time>
      </trkpt>
      <trkpt lat="44.27994" lon="6.70985">
        <ele>2837</ele>
        <time>2018-07-08T09:46:56Z</time>
      </trkpt>
      <trkpt lat="44.27999" lon="6.70984">
        <ele>2838</ele>
        <time>2018-07-08T09:47:02Z</time>
      </trkpt>
      <trkpt lat="44.28004" lon="6.70983">
        <ele>2839</ele>
        <time>2018-07-08T09:47:08Z</time>
      </trkpt>
      <trkpt lat="44.28008" lon="6.70983">
        <ele>2842</ele>
        <time>2018-07-08T09:47:14Z</time>
      </trkpt>
      <trkpt lat="44.28013" lon="6.70984">
        <ele>2842</ele>
        <time>2018-07-08T09:47:22Z</time>
      </trkpt>
      <trkpt lat="44.28019" lon="6.70986">
        <ele>2843</ele>
        <time>2018-07-08T09:47:30Z</time>
      </trkpt>
      <trkpt lat="44.28025" lon="6.70987">
        <ele>2844</ele>
        <time>2018-07-08T09:47:36Z</time>
      </trkpt>
      <trkpt lat="44.28031" lon="6.70987">
        <ele>2844</ele>
        <time>2018-07-08T09:47:42Z</time>
      </trkpt>
      <trkpt lat="44.28037" lon="6.70986">
        <ele>2844</ele>
        <time>2018-07-08T09:47:48Z</time>
      </trkpt>
      <trkpt lat="44.28041" lon="6.70986">
        <ele>2844</ele>
        <time>2018-07-08T09:47:52Z</time>
      </trkpt>
      <trkpt lat="44.28046" lon="6.70987">
        <ele>2846</ele>
        <time>2018-07-08T09:47:58Z</time>
      </trkpt>
      <trkpt lat="44.28052" lon="6.70985">
        <ele>2847</ele>
        <time>2018-07-08T09:48:04Z</time>
      </trkpt>
      <trkpt lat="44.28056" lon="6.70985">
        <ele>2848</ele>
        <time>2018-07-08T09:48:10Z</time>
      </trkpt>
      <trkpt lat="44.28062" lon="6.70984">
        <ele>2850</ele>
        <time>2018-07-08T09:48:18Z</time>
      </trkpt>
      <trkpt lat="44.28067" lon="6.70983">
        <ele>2852</ele>
        <time>2018-07-08T09:48:24Z</time>
      </trkpt>
      <trkpt lat="44.28071" lon="6.70981">
        <ele>2853</ele>
        <time>2018-07-08T09:48:30Z</time>
      </trkpt>
      <trkpt lat="44.28076" lon="6.70977">
        <ele>2852</ele>
        <time>2018-07-08T09:48:36Z</time>
      </trkpt>
      <trkpt lat="44.28081" lon="6.70975">
        <ele>2854</ele>
        <time>2018-07-08T09:48:42Z</time>
      </trkpt>
      <trkpt lat="44.28086" lon="6.70974">
        <ele>2830</ele>
        <time>2018-07-08T09:48:48Z</time>
      </trkpt>
      <trkpt lat="44.28091" lon="6.7097">
        <ele>2830</ele>
        <time>2018-07-08T09:48:56Z</time>
      </trkpt>
      <trkpt lat="44.28094" lon="6.70964">
        <ele>2830</ele>
        <time>2018-07-08T09:49:02Z</time>
      </trkpt>
      <trkpt lat="44.28098" lon="6.70961">
        <ele>2830</ele>
        <time>2018-07-08T09:49:10Z</time>
      </trkpt>
      <trkpt lat="44.28103" lon="6.70959">
        <ele>2830</ele>
        <time>2018-07-08T09:49:20Z</time>
      </trkpt>
      <trkpt lat="44.28108" lon="6.70956">
        <ele>2830</ele>
        <time>2018-07-08T09:49:34Z</time>
      </trkpt>
      <trkpt lat="44.28111" lon="6.70951">
        <ele>2830</ele>
        <time>2018-07-08T09:49:50Z</time>
      </trkpt>
      <trkpt lat="44.28115" lon="6.70947">
        <ele>2830</ele>
        <time>2018-07-08T09:50:02Z</time>
      </trkpt>
      <trkpt lat="44.28119" lon="6.70943">
        <ele>2830</ele>
        <time>2018-07-08T09:50:14Z</time>
      </trkpt>
      <trkpt lat="44.28125" lon="6.70942">
        <ele>2831</ele>
        <time>2018-07-08T09:50:26Z</time>
      </trkpt>
      <trkpt lat="44.2813" lon="6.70941">
        <ele>2831</ele>
        <time>2018-07-08T09:50:36Z</time>
      </trkpt>
      <trkpt lat="44.28136" lon="6.70942">
        <ele>2831</ele>
        <time>2018-07-08T09:50:48Z</time>
      </trkpt>
      <trkpt lat="44.2814" lon="6.70943">
        <ele>2831</ele>
        <time>2018-07-08T09:51:04Z</time>
      </trkpt>
      <trkpt lat="44.28145" lon="6.70943">
        <ele>2831</ele>
        <time>2018-07-08T09:51:12Z</time>
      </trkpt>
      <trkpt lat="44.2815" lon="6.70941">
        <ele>2831</ele>
        <time>2018-07-08T09:51:24Z</time>
      </trkpt>
      <trkpt lat="44.28155" lon="6.70938">
        <ele>2831</ele>
        <time>2018-07-08T09:51:36Z</time>
      </trkpt>
      <trkpt lat="44.28159" lon="6.70935">
        <ele>2832</ele>
        <time>2018-07-08T09:51:44Z</time>
      </trkpt>
      <trkpt lat="44.28163" lon="6.70933">
        <ele>2832</ele>
        <time>2018-07-08T09:51:54Z</time>
      </trkpt>
      <trkpt lat="44.28167" lon="6.70928">
        <ele>2836</ele>
        <time>2018-07-08T09:52:02Z</time>
      </trkpt>
      <trkpt lat="44.28172" lon="6.70928">
        <ele>2836</ele>
        <time>2018-07-08T09:52:10Z</time>
      </trkpt>
      <trkpt lat="44.28177" lon="6.70929">
        <ele>2837</ele>
        <time>2018-07-08T09:52:20Z</time>
      </trkpt>
      <trkpt lat="44.28184" lon="6.70928">
        <ele>2838</ele>
        <time>2018-07-08T09:52:32Z</time>
      </trkpt>
      <trkpt lat="44.28188" lon="6.70929">
        <ele>2838</ele>
        <time>2018-07-08T09:52:40Z</time>
      </trkpt>
      <trkpt lat="44.28193" lon="6.70929">
        <ele>2839</ele>
        <time>2018-07-08T09:52:52Z</time>
      </trkpt>
      <trkpt lat="44.28199" lon="6.7093">
        <ele>2840</ele>
        <time>2018-07-08T09:53:04Z</time>
      </trkpt>
      <trkpt lat="44.28203" lon="6.7093">
        <ele>2841</ele>
        <time>2018-07-08T09:53:12Z</time>
      </trkpt>
      <trkpt lat="44.28208" lon="6.70931">
        <ele>2842</ele>
        <time>2018-07-08T09:53:26Z</time>
      </trkpt>
      <trkpt lat="44.28213" lon="6.70929">
        <ele>2843</ele>
        <time>2018-07-08T09:53:42Z</time>
      </trkpt>
      <trkpt lat="44.28218" lon="6.70928">
        <ele>2844</ele>
        <time>2018-07-08T09:53:50Z</time>
      </trkpt>
      <trkpt lat="44.28222" lon="6.70926">
        <ele>2845</ele>
        <time>2018-07-08T09:54:00Z</time>
      </trkpt>
      <trkpt lat="44.28227" lon="6.70925">
        <ele>2846</ele>
        <time>2018-07-08T09:54:10Z</time>
      </trkpt>
      <trkpt lat="44.28232" lon="6.70926">
        <ele>2847</ele>
        <time>2018-07-08T09:54:22Z</time>
      </trkpt>
      <trkpt lat="44.28236" lon="6.70925">
        <ele>2849</ele>
        <time>2018-07-08T09:54:34Z</time>
      </trkpt>
      <trkpt lat="44.28241" lon="6.70927">
        <ele>2850</ele>
        <time>2018-07-08T09:54:46Z</time>
      </trkpt>
      <trkpt lat="44.28246" lon="6.70924">
        <ele>2852</ele>
        <time>2018-07-08T09:54:58Z</time>
      </trkpt>
      <trkpt lat="44.28251" lon="6.70922">
        <ele>2856</ele>
        <time>2018-07-08T09:55:06Z</time>
      </trkpt>
      <trkpt lat="44.28255" lon="6.70923">
        <ele>2856</ele>
        <time>2018-07-08T09:55:16Z</time>
      </trkpt>
      <trkpt lat="44.2826" lon="6.70921">
        <ele>2855</ele>
        <time>2018-07-08T09:55:28Z</time>
      </trkpt>
      <trkpt lat="44.28265" lon="6.70923">
        <ele>2855</ele>
        <time>2018-07-08T09:55:42Z</time>
      </trkpt>
      <trkpt lat="44.2827" lon="6.70921">
        <ele>2855</ele>
        <time>2018-07-08T09:55:54Z</time>
      </trkpt>
      <trkpt lat="44.28275" lon="6.7092">
        <ele>2854</ele>
        <time>2018-07-08T09:56:04Z</time>
      </trkpt>
      <trkpt lat="44.28279" lon="6.70915">
        <ele>2853</ele>
        <time>2018-07-08T09:56:10Z</time>
      </trkpt>
      <trkpt lat="44.28284" lon="6.70913">
        <ele>2853</ele>
        <time>2018-07-08T09:56:18Z</time>
      </trkpt>
      <trkpt lat="44.28288" lon="6.70911">
        <ele>2853</ele>
        <time>2018-07-08T09:56:28Z</time>
      </trkpt>
      <trkpt lat="44.28292" lon="6.7091">
        <ele>2853</ele>
        <time>2018-07-08T09:56:36Z</time>
      </trkpt>
      <trkpt lat="44.28296" lon="6.70905">
        <ele>2852</ele>
        <time>2018-07-08T09:56:42Z</time>
      </trkpt>
      <trkpt lat="44.283" lon="6.709">
        <ele>2852</ele>
        <time>2018-07-08T09:56:58Z</time>
      </trkpt>
      <trkpt lat="44.28304" lon="6.70896">
        <ele>2852</ele>
        <time>2018-07-08T09:57:02Z</time>
      </trkpt>
      <trkpt lat="44.28308" lon="6.70892">
        <ele>2852</ele>
        <time>2018-07-08T09:57:10Z</time>
      </trkpt>
      <trkpt lat="44.28312" lon="6.70888">
        <ele>2852</ele>
        <time>2018-07-08T09:57:16Z</time>
      </trkpt>
      <trkpt lat="44.28316" lon="6.70883">
        <ele>2853</ele>
        <time>2018-07-08T09:57:22Z</time>
      </trkpt>
      <trkpt lat="44.28321" lon="6.70878">
        <ele>2853</ele>
        <time>2018-07-08T09:57:28Z</time>
      </trkpt>
      <trkpt lat="44.28325" lon="6.70873">
        <ele>2853</ele>
        <time>2018-07-08T09:57:34Z</time>
      </trkpt>
      <trkpt lat="44.28329" lon="6.70869">
        <ele>2853</ele>
        <time>2018-07-08T09:57:40Z</time>
      </trkpt>
      <trkpt lat="44.28332" lon="6.70864">
        <ele>2853</ele>
        <time>2018-07-08T09:57:48Z</time>
      </trkpt>
      <trkpt lat="44.28336" lon="6.7086">
        <ele>2854</ele>
        <time>2018-07-08T09:57:56Z</time>
      </trkpt>
      <trkpt lat="44.28339" lon="6.70855">
        <ele>2854</ele>
        <time>2018-07-08T09:58:04Z</time>
      </trkpt>
      <trkpt lat="44.28343" lon="6.70849">
        <ele>2855</ele>
        <time>2018-07-08T09:58:12Z</time>
      </trkpt>
      <trkpt lat="44.28347" lon="6.70846">
        <ele>2855</ele>
        <time>2018-07-08T09:58:18Z</time>
      </trkpt>
      <trkpt lat="44.28351" lon="6.70843">
        <ele>2855</ele>
        <time>2018-07-08T09:58:24Z</time>
      </trkpt>
      <trkpt lat="44.28357" lon="6.70842">
        <ele>2854</ele>
        <time>2018-07-08T09:58:30Z</time>
      </trkpt>
      <trkpt lat="44.28362" lon="6.70838">
        <ele>2854</ele>
        <time>2018-07-08T09:58:36Z</time>
      </trkpt>
      <trkpt lat="44.28367" lon="6.70834">
        <ele>2854</ele>
        <time>2018-07-08T09:58:42Z</time>
      </trkpt>
      <trkpt lat="44.28371" lon="6.70832">
        <ele>2856</ele>
        <time>2018-07-08T09:58:48Z</time>
      </trkpt>
      <trkpt lat="44.28376" lon="6.70829">
        <ele>2856</ele>
        <time>2018-07-08T09:58:56Z</time>
      </trkpt>
      <trkpt lat="44.2838" lon="6.70826">
        <ele>2856</ele>
        <time>2018-07-08T09:59:02Z</time>
      </trkpt>
      <trkpt lat="44.28384" lon="6.70822">
        <ele>2856</ele>
        <time>2018-07-08T09:59:08Z</time>
      </trkpt>
      <trkpt lat="44.28389" lon="6.70817">
        <ele>2856</ele>
        <time>2018-07-08T09:59:14Z</time>
      </trkpt>
      <trkpt lat="44.28393" lon="6.70813">
        <ele>2856</ele>
        <time>2018-07-08T09:59:20Z</time>
      </trkpt>
      <trkpt lat="44.28398" lon="6.70811">
        <ele>2857</ele>
        <time>2018-07-08T09:59:28Z</time>
      </trkpt>
      <trkpt lat="44.28403" lon="6.70806">
        <ele>2857</ele>
        <time>2018-07-08T09:59:36Z</time>
      </trkpt>
      <trkpt lat="44.28407" lon="6.70803">
        <ele>2857</ele>
        <time>2018-07-08T09:59:40Z</time>
      </trkpt>
      <trkpt lat="44.28411" lon="6.70799">
        <ele>2857</ele>
        <time>2018-07-08T09:59:46Z</time>
      </trkpt>
      <trkpt lat="44.28416" lon="6.70796">
        <ele>2857</ele>
        <time>2018-07-08T09:59:52Z</time>
      </trkpt>
      <trkpt lat="44.2842" lon="6.70794">
        <ele>2858</ele>
        <time>2018-07-08T09:59:58Z</time>
      </trkpt>
      <trkpt lat="44.28425" lon="6.70791">
        <ele>2858</ele>
        <time>2018-07-08T10:00:04Z</time>
      </trkpt>
      <trkpt lat="44.28429" lon="6.70788">
        <ele>2858</ele>
        <time>2018-07-08T10:00:08Z</time>
      </trkpt>
      <trkpt lat="44.28434" lon="6.70788">
        <ele>2857</ele>
        <time>2018-07-08T10:00:16Z</time>
      </trkpt>
      <trkpt lat="44.28439" lon="6.70785">
        <ele>2857</ele>
        <time>2018-07-08T10:00:24Z</time>
      </trkpt>
      <trkpt lat="44.28443" lon="6.70781">
        <ele>2857</ele>
        <time>2018-07-08T10:00:32Z</time>
      </trkpt>
      <trkpt lat="44.28447" lon="6.70777">
        <ele>2857</ele>
        <time>2018-07-08T10:00:38Z</time>
      </trkpt>
      <trkpt lat="44.28451" lon="6.70773">
        <ele>2858</ele>
        <time>2018-07-08T10:00:44Z</time>
      </trkpt>
      <trkpt lat="44.28456" lon="6.70772">
        <ele>2858</ele>
        <time>2018-07-08T10:00:52Z</time>
      </trkpt>
      <trkpt lat="44.2846" lon="6.7077">
        <ele>2858</ele>
        <time>2018-07-08T10:01:00Z</time>
      </trkpt>
      <trkpt lat="44.28464" lon="6.70766">
        <ele>2858</ele>
        <time>2018-07-08T10:01:06Z</time>
      </trkpt>
      <trkpt lat="44.28469" lon="6.70763">
        <ele>2859</ele>
        <time>2018-07-08T10:01:20Z</time>
      </trkpt>
      <trkpt lat="44.28473" lon="6.70759">
        <ele>2860</ele>
        <time>2018-07-08T10:01:26Z</time>
      </trkpt>
      <trkpt lat="44.28478" lon="6.70759">
        <ele>2860</ele>
        <time>2018-07-08T10:01:34Z</time>
      </trkpt>
      <trkpt lat="44.28482" lon="6.70756">
        <ele>2862</ele>
        <time>2018-07-08T10:01:40Z</time>
      </trkpt>
      <trkpt lat="44.28486" lon="6.70753">
        <ele>2863</ele>
        <time>2018-07-08T10:01:50Z</time>
      </trkpt>
      <trkpt lat="44.2849" lon="6.70748">
        <ele>2864</ele>
        <time>2018-07-08T10:01:56Z</time>
      </trkpt>
      <trkpt lat="44.28496" lon="6.70746">
        <ele>2866</ele>
        <time>2018-07-08T10:02:04Z</time>
      </trkpt>
      <trkpt lat="44.28501" lon="6.70745">
        <ele>2869</ele>
        <time>2018-07-08T10:02:10Z</time>
      </trkpt>
      <trkpt lat="44.28506" lon="6.70743">
        <ele>2868</ele>
        <time>2018-07-08T10:02:18Z</time>
      </trkpt>
      <trkpt lat="44.28512" lon="6.70743">
        <ele>2867</ele>
        <time>2018-07-08T10:02:28Z</time>
      </trkpt>
      <trkpt lat="44.28518" lon="6.7074">
        <ele>2867</ele>
        <time>2018-07-08T10:02:38Z</time>
      </trkpt>
      <trkpt lat="44.28523" lon="6.70739">
        <ele>2866</ele>
        <time>2018-07-08T10:02:54Z</time>
      </trkpt>
      <trkpt lat="44.28528" lon="6.70737">
        <ele>2866</ele>
        <time>2018-07-08T10:03:04Z</time>
      </trkpt>
      <trkpt lat="44.28532" lon="6.70735">
        <ele>2866</ele>
        <time>2018-07-08T10:03:12Z</time>
      </trkpt>
      <trkpt lat="44.28537" lon="6.70733">
        <ele>2866</ele>
        <time>2018-07-08T10:03:32Z</time>
      </trkpt>
      <trkpt lat="44.28542" lon="6.7073">
        <ele>2866</ele>
        <time>2018-07-08T10:03:42Z</time>
      </trkpt>
      <trkpt lat="44.28548" lon="6.70729">
        <ele>2866</ele>
        <time>2018-07-08T10:03:50Z</time>
      </trkpt>
      <trkpt lat="44.28552" lon="6.70727">
        <ele>2866</ele>
        <time>2018-07-08T10:03:58Z</time>
      </trkpt>
      <trkpt lat="44.28557" lon="6.70725">
        <ele>2866</ele>
        <time>2018-07-08T10:04:08Z</time>
      </trkpt>
      <trkpt lat="44.28563" lon="6.70723">
        <ele>2867</ele>
        <time>2018-07-08T10:04:16Z</time>
      </trkpt>
      <trkpt lat="44.28567" lon="6.70721">
        <ele>2867</ele>
        <time>2018-07-08T10:04:24Z</time>
      </trkpt>
      <trkpt lat="44.28572" lon="6.70719">
        <ele>2867</ele>
        <time>2018-07-08T10:04:46Z</time>
      </trkpt>
      <trkpt lat="44.28576" lon="6.70717">
        <ele>2867</ele>
        <time>2018-07-08T10:05:10Z</time>
      </trkpt>
      <trkpt lat="44.28581" lon="6.70715">
        <ele>2867</ele>
        <time>2018-07-08T10:05:26Z</time>
      </trkpt>
      <trkpt lat="44.28586" lon="6.70716">
        <ele>2879</ele>
        <time>2018-07-08T10:05:34Z</time>
      </trkpt>
      <trkpt lat="44.2859" lon="6.70715">
        <ele>2880</ele>
        <time>2018-07-08T10:05:50Z</time>
      </trkpt>
      <trkpt lat="44.28595" lon="6.70711">
        <ele>2880</ele>
        <time>2018-07-08T10:05:58Z</time>
      </trkpt>
      <trkpt lat="44.28599" lon="6.7071">
        <ele>2881</ele>
        <time>2018-07-08T10:06:12Z</time>
      </trkpt>
      <trkpt lat="44.28604" lon="6.70706">
        <ele>2881</ele>
        <time>2018-07-08T10:06:30Z</time>
      </trkpt>
      <trkpt lat="44.28609" lon="6.70707">
        <ele>2882</ele>
        <time>2018-07-08T10:06:40Z</time>
      </trkpt>
      <trkpt lat="44.28614" lon="6.70705">
        <ele>2883</ele>
        <time>2018-07-08T10:06:50Z</time>
      </trkpt>
      <trkpt lat="44.28619" lon="6.70705">
        <ele>2884</ele>
        <time>2018-07-08T10:07:00Z</time>
      </trkpt>
      <trkpt lat="44.28625" lon="6.70705">
        <ele>2885</ele>
        <time>2018-07-08T10:07:22Z</time>
      </trkpt>
      <trkpt lat="44.28629" lon="6.70702">
        <ele>2886</ele>
        <time>2018-07-08T10:07:30Z</time>
      </trkpt>
      <trkpt lat="44.28635" lon="6.70699">
        <ele>2886</ele>
        <time>2018-07-08T10:07:38Z</time>
      </trkpt>
      <trkpt lat="44.28639" lon="6.70699">
        <ele>2887</ele>
        <time>2018-07-08T10:07:46Z</time>
      </trkpt>
      <trkpt lat="44.28644" lon="6.70699">
        <ele>2888</ele>
        <time>2018-07-08T10:07:58Z</time>
      </trkpt>
      <trkpt lat="44.28649" lon="6.70699">
        <ele>2889</ele>
        <time>2018-07-08T10:08:22Z</time>
      </trkpt>
      <trkpt lat="44.28654" lon="6.70699">
        <ele>2889</ele>
        <time>2018-07-08T10:08:32Z</time>
      </trkpt>
      <trkpt lat="44.28659" lon="6.70701">
        <ele>2890</ele>
        <time>2018-07-08T10:08:46Z</time>
      </trkpt>
      <trkpt lat="44.28663" lon="6.70704">
        <ele>2890</ele>
        <time>2018-07-08T10:09:06Z</time>
      </trkpt>
      <trkpt lat="44.28668" lon="6.70704">
        <ele>2902</ele>
        <time>2018-07-08T10:09:18Z</time>
      </trkpt>
      <trkpt lat="44.28674" lon="6.70704">
        <ele>2902</ele>
        <time>2018-07-08T10:09:28Z</time>
      </trkpt>
      <trkpt lat="44.28678" lon="6.707">
        <ele>2903</ele>
        <time>2018-07-08T10:09:34Z</time>
      </trkpt>
      <trkpt lat="44.28683" lon="6.70696">
        <ele>2903</ele>
        <time>2018-07-08T10:09:40Z</time>
      </trkpt>
      <trkpt lat="44.28687" lon="6.70693">
        <ele>2903</ele>
        <time>2018-07-08T10:09:46Z</time>
      </trkpt>
      <trkpt lat="44.28693" lon="6.70692">
        <ele>2904</ele>
        <time>2018-07-08T10:09:54Z</time>
      </trkpt>
      <trkpt lat="44.28699" lon="6.70692">
        <ele>2905</ele>
        <time>2018-07-08T10:10:04Z</time>
      </trkpt>
      <trkpt lat="44.28704" lon="6.70689">
        <ele>2905</ele>
        <time>2018-07-08T10:10:10Z</time>
      </trkpt>
      <trkpt lat="44.28708" lon="6.70684">
        <ele>2907</ele>
        <time>2018-07-08T10:10:16Z</time>
      </trkpt>
      <trkpt lat="44.28713" lon="6.70681">
        <ele>2908</ele>
        <time>2018-07-08T10:10:22Z</time>
      </trkpt>
      <trkpt lat="44.28718" lon="6.70678">
        <ele>2910</ele>
        <time>2018-07-08T10:10:28Z</time>
      </trkpt>
      <trkpt lat="44.28723" lon="6.70677">
        <ele>2911</ele>
        <time>2018-07-08T10:10:34Z</time>
      </trkpt>
      <trkpt lat="44.28728" lon="6.70675">
        <ele>2913</ele>
        <time>2018-07-08T10:10:40Z</time>
      </trkpt>
      <trkpt lat="44.28732" lon="6.70672">
        <ele>2916</ele>
        <time>2018-07-08T10:10:46Z</time>
      </trkpt>
      <trkpt lat="44.28737" lon="6.70669">
        <ele>2919</ele>
        <time>2018-07-08T10:10:52Z</time>
      </trkpt>
      <trkpt lat="44.28742" lon="6.70665">
        <ele>2922</ele>
        <time>2018-07-08T10:11:00Z</time>
      </trkpt>
      <trkpt lat="44.28747" lon="6.70662">
        <ele>2924</ele>
        <time>2018-07-08T10:11:08Z</time>
      </trkpt>
      <trkpt lat="44.28751" lon="6.70658">
        <ele>2929</ele>
        <time>2018-07-08T10:11:14Z</time>
      </trkpt>
      <trkpt lat="44.28756" lon="6.70655">
        <ele>2929</ele>
        <time>2018-07-08T10:11:20Z</time>
      </trkpt>
      <trkpt lat="44.28761" lon="6.70656">
        <ele>2929</ele>
        <time>2018-07-08T10:11:28Z</time>
      </trkpt>
      <trkpt lat="44.28766" lon="6.70654">
        <ele>2929</ele>
        <time>2018-07-08T10:11:36Z</time>
      </trkpt>
      <trkpt lat="44.28771" lon="6.70652">
        <ele>2929</ele>
        <time>2018-07-08T10:11:42Z</time>
      </trkpt>
      <trkpt lat="44.28775" lon="6.7065">
        <ele>2929</ele>
        <time>2018-07-08T10:11:50Z</time>
      </trkpt>
      <trkpt lat="44.2878" lon="6.70646">
        <ele>2929</ele>
        <time>2018-07-08T10:11:56Z</time>
      </trkpt>
      <trkpt lat="44.28784" lon="6.70643">
        <ele>2930</ele>
        <time>2018-07-08T10:12:02Z</time>
      </trkpt>
      <trkpt lat="44.28789" lon="6.70642">
        <ele>2930</ele>
        <time>2018-07-08T10:12:12Z</time>
      </trkpt>
      <trkpt lat="44.28793" lon="6.70643">
        <ele>2931</ele>
        <time>2018-07-08T10:12:22Z</time>
      </trkpt>
      <trkpt lat="44.28797" lon="6.70639">
        <ele>2931</ele>
        <time>2018-07-08T10:12:28Z</time>
      </trkpt>
      <trkpt lat="44.28801" lon="6.70636">
        <ele>2931</ele>
        <time>2018-07-08T10:12:34Z</time>
      </trkpt>
      <trkpt lat="44.28806" lon="6.70633">
        <ele>2931</ele>
        <time>2018-07-08T10:12:42Z</time>
      </trkpt>
      <trkpt lat="44.28811" lon="6.70631">
        <ele>2932</ele>
        <time>2018-07-08T10:12:52Z</time>
      </trkpt>
      <trkpt lat="44.28816" lon="6.70629">
        <ele>2932</ele>
        <time>2018-07-08T10:13:02Z</time>
      </trkpt>
      <trkpt lat="44.2882" lon="6.70626">
        <ele>2933</ele>
        <time>2018-07-08T10:13:10Z</time>
      </trkpt>
      <trkpt lat="44.28825" lon="6.70623">
        <ele>2933</ele>
        <time>2018-07-08T10:13:18Z</time>
      </trkpt>
      <trkpt lat="44.28829" lon="6.70618">
        <ele>2934</ele>
        <time>2018-07-08T10:13:26Z</time>
      </trkpt>
      <trkpt lat="44.28832" lon="6.70613">
        <ele>2934</ele>
        <time>2018-07-08T10:13:34Z</time>
      </trkpt>
      <trkpt lat="44.28837" lon="6.70616">
        <ele>2944</ele>
        <time>2018-07-08T10:13:50Z</time>
      </trkpt>
      <trkpt lat="44.2884" lon="6.70611">
        <ele>2944</ele>
        <time>2018-07-08T10:13:56Z</time>
      </trkpt>
      <trkpt lat="44.28844" lon="6.70607">
        <ele>2945</ele>
        <time>2018-07-08T10:14:04Z</time>
      </trkpt>
      <trkpt lat="44.28849" lon="6.70602">
        <ele>2945</ele>
        <time>2018-07-08T10:14:14Z</time>
      </trkpt>
      <trkpt lat="44.28852" lon="6.70598">
        <ele>2945</ele>
        <time>2018-07-08T10:14:26Z</time>
      </trkpt>
      <trkpt lat="44.28857" lon="6.70594">
        <ele>2946</ele>
        <time>2018-07-08T10:14:36Z</time>
      </trkpt>
      <trkpt lat="44.2886" lon="6.70588">
        <ele>2946</ele>
        <time>2018-07-08T10:14:44Z</time>
      </trkpt>
      <trkpt lat="44.28865" lon="6.70588">
        <ele>2947</ele>
        <time>2018-07-08T10:15:10Z</time>
      </trkpt>
      <trkpt lat="44.28869" lon="6.70584">
        <ele>2948</ele>
        <time>2018-07-08T10:15:18Z</time>
      </trkpt>
      <trkpt lat="44.28873" lon="6.7058">
        <ele>2950</ele>
        <time>2018-07-08T10:15:26Z</time>
      </trkpt>
      <trkpt lat="44.28877" lon="6.70576">
        <ele>2950</ele>
        <time>2018-07-08T10:15:38Z</time>
      </trkpt>
      <trkpt lat="44.28881" lon="6.70571">
        <ele>2951</ele>
        <time>2018-07-08T10:15:46Z</time>
      </trkpt>
      <trkpt lat="44.28885" lon="6.70568">
        <ele>2952</ele>
        <time>2018-07-08T10:15:54Z</time>
      </trkpt>
      <trkpt lat="44.2889" lon="6.70566">
        <ele>2953</ele>
        <time>2018-07-08T10:16:06Z</time>
      </trkpt>
      <trkpt lat="44.28895" lon="6.70563">
        <ele>2954</ele>
        <time>2018-07-08T10:16:14Z</time>
      </trkpt>
      <trkpt lat="44.28898" lon="6.70557">
        <ele>2954</ele>
        <time>2018-07-08T10:16:20Z</time>
      </trkpt>
      <trkpt lat="44.28903" lon="6.70554">
        <ele>2954</ele>
        <time>2018-07-08T10:16:28Z</time>
      </trkpt>
      <trkpt lat="44.28907" lon="6.70551">
        <ele>2954</ele>
        <time>2018-07-08T10:16:38Z</time>
      </trkpt>
      <trkpt lat="44.28911" lon="6.70548">
        <ele>2954</ele>
        <time>2018-07-08T10:16:46Z</time>
      </trkpt>
      <trkpt lat="44.28916" lon="6.70546">
        <ele>2954</ele>
        <time>2018-07-08T10:16:56Z</time>
      </trkpt>
      <trkpt lat="44.28921" lon="6.70544">
        <ele>2968</ele>
        <time>2018-07-08T10:17:10Z</time>
      </trkpt>
      <trkpt lat="44.28925" lon="6.70542">
        <ele>2968</ele>
        <time>2018-07-08T10:17:22Z</time>
      </trkpt>
      <trkpt lat="44.2893" lon="6.70538">
        <ele>2968</ele>
        <time>2018-07-08T10:17:30Z</time>
      </trkpt>
      <trkpt lat="44.28934" lon="6.70535">
        <ele>2968</ele>
        <time>2018-07-08T10:17:38Z</time>
      </trkpt>
      <trkpt lat="44.28939" lon="6.70531">
        <ele>2969</ele>
        <time>2018-07-08T10:17:46Z</time>
      </trkpt>
      <trkpt lat="44.28943" lon="6.7053">
        <ele>2969</ele>
        <time>2018-07-08T10:17:58Z</time>
      </trkpt>
      <trkpt lat="44.28948" lon="6.70527">
        <ele>2969</ele>
        <time>2018-07-08T10:18:12Z</time>
      </trkpt>
      <trkpt lat="44.28954" lon="6.70526">
        <ele>2970</ele>
        <time>2018-07-08T10:18:24Z</time>
      </trkpt>
      <trkpt lat="44.28958" lon="6.70523">
        <ele>2971</ele>
        <time>2018-07-08T10:18:32Z</time>
      </trkpt>
      <trkpt lat="44.28963" lon="6.7052">
        <ele>2972</ele>
        <time>2018-07-08T10:18:42Z</time>
      </trkpt>
      <trkpt lat="44.28967" lon="6.70515">
        <ele>2973</ele>
        <time>2018-07-08T10:18:50Z</time>
      </trkpt>
      <trkpt lat="44.28972" lon="6.70514">
        <ele>2974</ele>
        <time>2018-07-08T10:19:04Z</time>
      </trkpt>
      <trkpt lat="44.28976" lon="6.70515">
        <ele>2975</ele>
        <time>2018-07-08T10:19:14Z</time>
      </trkpt>
      <trkpt lat="44.2898" lon="6.7051">
        <ele>2977</ele>
        <time>2018-07-08T10:19:22Z</time>
      </trkpt>
      <trkpt lat="44.28984" lon="6.70505">
        <ele>2979</ele>
        <time>2018-07-08T10:19:30Z</time>
      </trkpt>
      <trkpt lat="44.28987" lon="6.70499">
        <ele>2981</ele>
        <time>2018-07-08T10:19:38Z</time>
      </trkpt>
      <trkpt lat="44.28991" lon="6.70493">
        <ele>2981</ele>
        <time>2018-07-08T10:19:48Z</time>
      </trkpt>
      <trkpt lat="44.28994" lon="6.70488">
        <ele>2980</ele>
        <time>2018-07-08T10:19:54Z</time>
      </trkpt>
      <trkpt lat="44.28998" lon="6.70483">
        <ele>2979</ele>
        <time>2018-07-08T10:20:00Z</time>
      </trkpt>
      <trkpt lat="44.29002" lon="6.70478">
        <ele>2983</ele>
        <time>2018-07-08T10:20:08Z</time>
      </trkpt>
      <trkpt lat="44.29006" lon="6.70475">
        <ele>2983</ele>
        <time>2018-07-08T10:20:22Z</time>
      </trkpt>
      <trkpt lat="44.2901" lon="6.70472">
        <ele>2982</ele>
        <time>2018-07-08T10:20:36Z</time>
      </trkpt>
      <trkpt lat="44.29014" lon="6.70467">
        <ele>2982</ele>
        <time>2018-07-08T10:20:44Z</time>
      </trkpt>
      <trkpt lat="44.29017" lon="6.70463">
        <ele>2981</ele>
        <time>2018-07-08T10:20:56Z</time>
      </trkpt>
      <trkpt lat="44.29022" lon="6.70461">
        <ele>2981</ele>
        <time>2018-07-08T10:21:08Z</time>
      </trkpt>
      <trkpt lat="44.29027" lon="6.70457">
        <ele>2980</ele>
        <time>2018-07-08T10:21:18Z</time>
      </trkpt>
      <trkpt lat="44.2903" lon="6.70452">
        <ele>2980</ele>
        <time>2018-07-08T10:21:26Z</time>
      </trkpt>
      <trkpt lat="44.29034" lon="6.70448">
        <ele>2980</ele>
        <time>2018-07-08T10:21:36Z</time>
      </trkpt>
      <trkpt lat="44.29037" lon="6.70444">
        <ele>2980</ele>
        <time>2018-07-08T10:21:54Z</time>
      </trkpt>
      <trkpt lat="44.29041" lon="6.70439">
        <ele>2980</ele>
        <time>2018-07-08T10:22:02Z</time>
      </trkpt>
      <trkpt lat="44.29044" lon="6.70434">
        <ele>2980</ele>
        <time>2018-07-08T10:22:08Z</time>
      </trkpt>
      <trkpt lat="44.29047" lon="6.70428">
        <ele>2981</ele>
        <time>2018-07-08T10:22:16Z</time>
      </trkpt>
      <trkpt lat="44.2905" lon="6.70423">
        <ele>2981</ele>
        <time>2018-07-08T10:22:24Z</time>
      </trkpt>
      <trkpt lat="44.29047" lon="6.70429">
        <ele>2980</ele>
        <time>2018-07-08T10:57:10Z</time>
      </trkpt>
      <trkpt lat="44.29044" lon="6.70435">
        <ele>2980</ele>
        <time>2018-07-08T10:57:18Z</time>
      </trkpt>
      <trkpt lat="44.29039" lon="6.70436">
        <ele>2980</ele>
        <time>2018-07-08T10:57:26Z</time>
      </trkpt>
      <trkpt lat="44.29036" lon="6.70441">
        <ele>2980</ele>
        <time>2018-07-08T10:57:36Z</time>
      </trkpt>
      <trkpt lat="44.29032" lon="6.70445">
        <ele>2980</ele>
        <time>2018-07-08T10:57:42Z</time>
      </trkpt>
      <trkpt lat="44.29029" lon="6.7045">
        <ele>2980</ele>
        <time>2018-07-08T10:57:48Z</time>
      </trkpt>
      <trkpt lat="44.29026" lon="6.70455">
        <ele>2981</ele>
        <time>2018-07-08T10:57:58Z</time>
      </trkpt>
      <trkpt lat="44.29022" lon="6.70459">
        <ele>2981</ele>
        <time>2018-07-08T10:58:04Z</time>
      </trkpt>
      <trkpt lat="44.29019" lon="6.70465">
        <ele>2981</ele>
        <time>2018-07-08T10:58:12Z</time>
      </trkpt>
      <trkpt lat="44.29015" lon="6.7047">
        <ele>2982</ele>
        <time>2018-07-08T10:58:22Z</time>
      </trkpt>
      <trkpt lat="44.29011" lon="6.70473">
        <ele>2982</ele>
        <time>2018-07-08T10:58:28Z</time>
      </trkpt>
      <trkpt lat="44.29007" lon="6.70477">
        <ele>2983</ele>
        <time>2018-07-08T10:58:36Z</time>
      </trkpt>
      <trkpt lat="44.29002" lon="6.70479">
        <ele>2983</ele>
        <time>2018-07-08T10:58:48Z</time>
      </trkpt>
      <trkpt lat="44.28996" lon="6.70482">
        <ele>2979</ele>
        <time>2018-07-08T10:58:56Z</time>
      </trkpt>
      <trkpt lat="44.28992" lon="6.70487">
        <ele>2979</ele>
        <time>2018-07-08T10:59:02Z</time>
      </trkpt>
      <trkpt lat="44.28989" lon="6.70493">
        <ele>2980</ele>
        <time>2018-07-08T10:59:10Z</time>
      </trkpt>
      <trkpt lat="44.28986" lon="6.70499">
        <ele>2980</ele>
        <time>2018-07-08T10:59:16Z</time>
      </trkpt>
      <trkpt lat="44.28982" lon="6.70506">
        <ele>2978</ele>
        <time>2018-07-08T10:59:22Z</time>
      </trkpt>
      <trkpt lat="44.28978" lon="6.70511">
        <ele>2976</ele>
        <time>2018-07-08T10:59:28Z</time>
      </trkpt>
      <trkpt lat="44.28974" lon="6.70516">
        <ele>2974</ele>
        <time>2018-07-08T10:59:34Z</time>
      </trkpt>
      <trkpt lat="44.28968" lon="6.70518">
        <ele>2973</ele>
        <time>2018-07-08T10:59:42Z</time>
      </trkpt>
      <trkpt lat="44.28964" lon="6.70522">
        <ele>2972</ele>
        <time>2018-07-08T10:59:48Z</time>
      </trkpt>
      <trkpt lat="44.28959" lon="6.70526">
        <ele>2971</ele>
        <time>2018-07-08T11:00:00Z</time>
      </trkpt>
      <trkpt lat="44.28954" lon="6.70529">
        <ele>2970</ele>
        <time>2018-07-08T11:00:06Z</time>
      </trkpt>
      <trkpt lat="44.28949" lon="6.7053">
        <ele>2969</ele>
        <time>2018-07-08T11:00:12Z</time>
      </trkpt>
      <trkpt lat="44.28945" lon="6.70533">
        <ele>2969</ele>
        <time>2018-07-08T11:00:20Z</time>
      </trkpt>
      <trkpt lat="44.2894" lon="6.70534">
        <ele>2969</ele>
        <time>2018-07-08T11:00:30Z</time>
      </trkpt>
      <trkpt lat="44.28935" lon="6.70537">
        <ele>2968</ele>
        <time>2018-07-08T11:00:38Z</time>
      </trkpt>
      <trkpt lat="44.2893" lon="6.70541">
        <ele>2968</ele>
        <time>2018-07-08T11:00:44Z</time>
      </trkpt>
      <trkpt lat="44.28926" lon="6.70545">
        <ele>2968</ele>
        <time>2018-07-08T11:00:50Z</time>
      </trkpt>
      <trkpt lat="44.28921" lon="6.70546">
        <ele>2968</ele>
        <time>2018-07-08T11:01:06Z</time>
      </trkpt>
      <trkpt lat="44.28916" lon="6.70548">
        <ele>2955</ele>
        <time>2018-07-08T11:01:16Z</time>
      </trkpt>
      <trkpt lat="44.2891" lon="6.70551">
        <ele>2954</ele>
        <time>2018-07-08T11:01:24Z</time>
      </trkpt>
      <trkpt lat="44.28905" lon="6.70554">
        <ele>2954</ele>
        <time>2018-07-08T11:01:30Z</time>
      </trkpt>
      <trkpt lat="44.28899" lon="6.70556">
        <ele>2954</ele>
        <time>2018-07-08T11:01:40Z</time>
      </trkpt>
      <trkpt lat="44.28895" lon="6.70561">
        <ele>2953</ele>
        <time>2018-07-08T11:01:46Z</time>
      </trkpt>
      <trkpt lat="44.28891" lon="6.70566">
        <ele>2953</ele>
        <time>2018-07-08T11:01:52Z</time>
      </trkpt>
      <trkpt lat="44.28887" lon="6.7057">
        <ele>2953</ele>
        <time>2018-07-08T11:02:00Z</time>
      </trkpt>
      <trkpt lat="44.28882" lon="6.70571">
        <ele>2951</ele>
        <time>2018-07-08T11:02:10Z</time>
      </trkpt>
      <trkpt lat="44.28878" lon="6.70576">
        <ele>2951</ele>
        <time>2018-07-08T11:02:16Z</time>
      </trkpt>
      <trkpt lat="44.28874" lon="6.70581">
        <ele>2950</ele>
        <time>2018-07-08T11:02:22Z</time>
      </trkpt>
      <trkpt lat="44.28869" lon="6.70584">
        <ele>2948</ele>
        <time>2018-07-08T11:02:38Z</time>
      </trkpt>
      <trkpt lat="44.28865" lon="6.70588">
        <ele>2947</ele>
        <time>2018-07-08T11:02:46Z</time>
      </trkpt>
      <trkpt lat="44.28861" lon="6.70593">
        <ele>2946</ele>
        <time>2018-07-08T11:02:58Z</time>
      </trkpt>
      <trkpt lat="44.28856" lon="6.70596">
        <ele>2946</ele>
        <time>2018-07-08T11:03:10Z</time>
      </trkpt>
      <trkpt lat="44.28852" lon="6.706">
        <ele>2945</ele>
        <time>2018-07-08T11:03:16Z</time>
      </trkpt>
      <trkpt lat="44.28847" lon="6.70605">
        <ele>2945</ele>
        <time>2018-07-08T11:03:24Z</time>
      </trkpt>
      <trkpt lat="44.28843" lon="6.70609">
        <ele>2945</ele>
        <time>2018-07-08T11:03:32Z</time>
      </trkpt>
      <trkpt lat="44.28838" lon="6.70614">
        <ele>2944</ele>
        <time>2018-07-08T11:03:54Z</time>
      </trkpt>
      <trkpt lat="44.28833" lon="6.70615">
        <ele>2944</ele>
        <time>2018-07-08T11:04:12Z</time>
      </trkpt>
      <trkpt lat="44.28829" lon="6.7062">
        <ele>2934</ele>
        <time>2018-07-08T11:04:22Z</time>
      </trkpt>
      <trkpt lat="44.28825" lon="6.70625">
        <ele>2933</ele>
        <time>2018-07-08T11:04:28Z</time>
      </trkpt>
      <trkpt lat="44.2882" lon="6.70629">
        <ele>2933</ele>
        <time>2018-07-08T11:04:34Z</time>
      </trkpt>
      <trkpt lat="44.28816" lon="6.70632">
        <ele>2933</ele>
        <time>2018-07-08T11:04:40Z</time>
      </trkpt>
      <trkpt lat="44.2881" lon="6.70635">
        <ele>2932</ele>
        <time>2018-07-08T11:04:50Z</time>
      </trkpt>
      <trkpt lat="44.28804" lon="6.70637">
        <ele>2931</ele>
        <time>2018-07-08T11:04:56Z</time>
      </trkpt>
      <trkpt lat="44.28798" lon="6.70641">
        <ele>2931</ele>
        <time>2018-07-08T11:05:02Z</time>
      </trkpt>
      <trkpt lat="44.28793" lon="6.70644">
        <ele>2931</ele>
        <time>2018-07-08T11:05:08Z</time>
      </trkpt>
      <trkpt lat="44.28788" lon="6.70643">
        <ele>2930</ele>
        <time>2018-07-08T11:05:18Z</time>
      </trkpt>
      <trkpt lat="44.28783" lon="6.70646">
        <ele>2930</ele>
        <time>2018-07-08T11:05:30Z</time>
      </trkpt>
      <trkpt lat="44.28778" lon="6.7065">
        <ele>2929</ele>
        <time>2018-07-08T11:05:36Z</time>
      </trkpt>
      <trkpt lat="44.28773" lon="6.70653">
        <ele>2929</ele>
        <time>2018-07-08T11:05:42Z</time>
      </trkpt>
      <trkpt lat="44.28767" lon="6.70656">
        <ele>2929</ele>
        <time>2018-07-08T11:05:48Z</time>
      </trkpt>
      <trkpt lat="44.28762" lon="6.70658">
        <ele>2929</ele>
        <time>2018-07-08T11:05:56Z</time>
      </trkpt>
      <trkpt lat="44.28757" lon="6.70659">
        <ele>2929</ele>
        <time>2018-07-08T11:06:02Z</time>
      </trkpt>
      <trkpt lat="44.28751" lon="6.70663">
        <ele>2930</ele>
        <time>2018-07-08T11:06:08Z</time>
      </trkpt>
      <trkpt lat="44.28745" lon="6.70666">
        <ele>2925</ele>
        <time>2018-07-08T11:06:14Z</time>
      </trkpt>
      <trkpt lat="44.28741" lon="6.7067">
        <ele>2921</ele>
        <time>2018-07-08T11:06:20Z</time>
      </trkpt>
      <trkpt lat="44.28734" lon="6.70673">
        <ele>2916</ele>
        <time>2018-07-08T11:06:28Z</time>
      </trkpt>
      <trkpt lat="44.28729" lon="6.70677">
        <ele>2913</ele>
        <time>2018-07-08T11:06:34Z</time>
      </trkpt>
      <trkpt lat="44.28724" lon="6.7068">
        <ele>2911</ele>
        <time>2018-07-08T11:06:40Z</time>
      </trkpt>
      <trkpt lat="44.2872" lon="6.70681">
        <ele>2910</ele>
        <time>2018-07-08T11:06:48Z</time>
      </trkpt>
      <trkpt lat="44.28714" lon="6.70683">
        <ele>2908</ele>
        <time>2018-07-08T11:06:54Z</time>
      </trkpt>
      <trkpt lat="44.2871" lon="6.70686">
        <ele>2907</ele>
        <time>2018-07-08T11:07:00Z</time>
      </trkpt>
      <trkpt lat="44.28704" lon="6.70689">
        <ele>2905</ele>
        <time>2018-07-08T11:07:06Z</time>
      </trkpt>
      <trkpt lat="44.287" lon="6.70692">
        <ele>2905</ele>
        <time>2018-07-08T11:07:12Z</time>
      </trkpt>
      <trkpt lat="44.28695" lon="6.70695">
        <ele>2904</ele>
        <time>2018-07-08T11:07:36Z</time>
      </trkpt>
      <trkpt lat="44.2869" lon="6.70696">
        <ele>2903</ele>
        <time>2018-07-08T11:07:44Z</time>
      </trkpt>
      <trkpt lat="44.28685" lon="6.70698">
        <ele>2903</ele>
        <time>2018-07-08T11:07:50Z</time>
      </trkpt>
      <trkpt lat="44.2868" lon="6.70701">
        <ele>2903</ele>
        <time>2018-07-08T11:07:56Z</time>
      </trkpt>
      <trkpt lat="44.28675" lon="6.70705">
        <ele>2902</ele>
        <time>2018-07-08T11:08:04Z</time>
      </trkpt>
      <trkpt lat="44.2867" lon="6.70705">
        <ele>2902</ele>
        <time>2018-07-08T11:08:12Z</time>
      </trkpt>
      <trkpt lat="44.28664" lon="6.70706">
        <ele>2890</ele>
        <time>2018-07-08T11:08:22Z</time>
      </trkpt>
      <trkpt lat="44.28659" lon="6.70705">
        <ele>2890</ele>
        <time>2018-07-08T11:08:32Z</time>
      </trkpt>
      <trkpt lat="44.28653" lon="6.70707">
        <ele>2889</ele>
        <time>2018-07-08T11:08:40Z</time>
      </trkpt>
      <trkpt lat="44.28647" lon="6.70708">
        <ele>2888</ele>
        <time>2018-07-08T11:08:48Z</time>
      </trkpt>
      <trkpt lat="44.28642" lon="6.7071">
        <ele>2888</ele>
        <time>2018-07-08T11:08:54Z</time>
      </trkpt>
      <trkpt lat="44.28638" lon="6.70711">
        <ele>2887</ele>
        <time>2018-07-08T11:09:00Z</time>
      </trkpt>
      <trkpt lat="44.28632" lon="6.70712">
        <ele>2886</ele>
        <time>2018-07-08T11:09:08Z</time>
      </trkpt>
      <trkpt lat="44.28627" lon="6.70713">
        <ele>2885</ele>
        <time>2018-07-08T11:09:14Z</time>
      </trkpt>
      <trkpt lat="44.28622" lon="6.70716">
        <ele>2884</ele>
        <time>2018-07-08T11:09:24Z</time>
      </trkpt>
      <trkpt lat="44.28616" lon="6.70715">
        <ele>2883</ele>
        <time>2018-07-08T11:09:34Z</time>
      </trkpt>
      <trkpt lat="44.28612" lon="6.70718">
        <ele>2883</ele>
        <time>2018-07-08T11:09:42Z</time>
      </trkpt>
      <trkpt lat="44.28608" lon="6.70719">
        <ele>2882</ele>
        <time>2018-07-08T11:09:52Z</time>
      </trkpt>
      <trkpt lat="44.28603" lon="6.70718">
        <ele>2881</ele>
        <time>2018-07-08T11:10:06Z</time>
      </trkpt>
      <trkpt lat="44.28597" lon="6.70719">
        <ele>2880</ele>
        <time>2018-07-08T11:10:16Z</time>
      </trkpt>
      <trkpt lat="44.28593" lon="6.70719">
        <ele>2880</ele>
        <time>2018-07-08T11:10:28Z</time>
      </trkpt>
      <trkpt lat="44.28588" lon="6.70718">
        <ele>2879</ele>
        <time>2018-07-08T11:11:08Z</time>
      </trkpt>
      <trkpt lat="44.28584" lon="6.70722">
        <ele>2879</ele>
        <time>2018-07-08T11:11:18Z</time>
      </trkpt>
      <trkpt lat="44.28579" lon="6.70726">
        <ele>2868</ele>
        <time>2018-07-08T11:11:30Z</time>
      </trkpt>
      <trkpt lat="44.28574" lon="6.70726">
        <ele>2867</ele>
        <time>2018-07-08T11:11:44Z</time>
      </trkpt>
      <trkpt lat="44.2857" lon="6.70722">
        <ele>2867</ele>
        <time>2018-07-08T11:12:06Z</time>
      </trkpt>
      <trkpt lat="44.28565" lon="6.70719">
        <ele>2867</ele>
        <time>2018-07-08T11:12:24Z</time>
      </trkpt>
      <trkpt lat="44.2856" lon="6.70722">
        <ele>2866</ele>
        <time>2018-07-08T11:12:32Z</time>
      </trkpt>
      <trkpt lat="44.28556" lon="6.70725">
        <ele>2866</ele>
        <time>2018-07-08T11:12:38Z</time>
      </trkpt>
      <trkpt lat="44.28552" lon="6.70728">
        <ele>2866</ele>
        <time>2018-07-08T11:12:46Z</time>
      </trkpt>
      <trkpt lat="44.28546" lon="6.70729">
        <ele>2866</ele>
        <time>2018-07-08T11:12:56Z</time>
      </trkpt>
      <trkpt lat="44.28542" lon="6.7073">
        <ele>2866</ele>
        <time>2018-07-08T11:13:02Z</time>
      </trkpt>
      <trkpt lat="44.28536" lon="6.70734">
        <ele>2866</ele>
        <time>2018-07-08T11:13:12Z</time>
      </trkpt>
      <trkpt lat="44.28531" lon="6.70736">
        <ele>2866</ele>
        <time>2018-07-08T11:13:18Z</time>
      </trkpt>
      <trkpt lat="44.28527" lon="6.70737">
        <ele>2866</ele>
        <time>2018-07-08T11:13:28Z</time>
      </trkpt>
      <trkpt lat="44.28521" lon="6.7074">
        <ele>2867</ele>
        <time>2018-07-08T11:13:36Z</time>
      </trkpt>
      <trkpt lat="44.28516" lon="6.70739">
        <ele>2867</ele>
        <time>2018-07-08T11:13:46Z</time>
      </trkpt>
      <trkpt lat="44.28511" lon="6.70741">
        <ele>2867</ele>
        <time>2018-07-08T11:13:54Z</time>
      </trkpt>
      <trkpt lat="44.28506" lon="6.70741">
        <ele>2868</ele>
        <time>2018-07-08T11:14:04Z</time>
      </trkpt>
      <trkpt lat="44.28501" lon="6.70744">
        <ele>2868</ele>
        <time>2018-07-08T11:14:12Z</time>
      </trkpt>
      <trkpt lat="44.28496" lon="6.70746">
        <ele>2866</ele>
        <time>2018-07-08T11:14:18Z</time>
      </trkpt>
      <trkpt lat="44.28491" lon="6.70749">
        <ele>2864</ele>
        <time>2018-07-08T11:14:28Z</time>
      </trkpt>
      <trkpt lat="44.28486" lon="6.70752">
        <ele>2863</ele>
        <time>2018-07-08T11:14:34Z</time>
      </trkpt>
      <trkpt lat="44.28482" lon="6.70754">
        <ele>2862</ele>
        <time>2018-07-08T11:14:42Z</time>
      </trkpt>
      <trkpt lat="44.28478" lon="6.70759">
        <ele>2861</ele>
        <time>2018-07-08T11:14:48Z</time>
      </trkpt>
      <trkpt lat="44.28473" lon="6.70761">
        <ele>2860</ele>
        <time>2018-07-08T11:15:02Z</time>
      </trkpt>
      <trkpt lat="44.28467" lon="6.70763">
        <ele>2859</ele>
        <time>2018-07-08T11:15:28Z</time>
      </trkpt>
      <trkpt lat="44.28462" lon="6.70766">
        <ele>2858</ele>
        <time>2018-07-08T11:15:36Z</time>
      </trkpt>
      <trkpt lat="44.28458" lon="6.70769">
        <ele>2858</ele>
        <time>2018-07-08T11:15:46Z</time>
      </trkpt>
      <trkpt lat="44.28452" lon="6.70772">
        <ele>2858</ele>
        <time>2018-07-08T11:15:56Z</time>
      </trkpt>
      <trkpt lat="44.28447" lon="6.70777">
        <ele>2858</ele>
        <time>2018-07-08T11:16:02Z</time>
      </trkpt>
      <trkpt lat="44.28443" lon="6.70781">
        <ele>2857</ele>
        <time>2018-07-08T11:16:08Z</time>
      </trkpt>
      <trkpt lat="44.28438" lon="6.70785">
        <ele>2857</ele>
        <time>2018-07-08T11:16:16Z</time>
      </trkpt>
      <trkpt lat="44.28433" lon="6.70787">
        <ele>2857</ele>
        <time>2018-07-08T11:16:20Z</time>
      </trkpt>
      <trkpt lat="44.28428" lon="6.70789">
        <ele>2857</ele>
        <time>2018-07-08T11:16:28Z</time>
      </trkpt>
      <trkpt lat="44.28423" lon="6.70792">
        <ele>2858</ele>
        <time>2018-07-08T11:16:36Z</time>
      </trkpt>
      <trkpt lat="44.28417" lon="6.70794">
        <ele>2858</ele>
        <time>2018-07-08T11:16:42Z</time>
      </trkpt>
      <trkpt lat="44.28412" lon="6.70798">
        <ele>2857</ele>
        <time>2018-07-08T11:16:48Z</time>
      </trkpt>
      <trkpt lat="44.28406" lon="6.70801">
        <ele>2856</ele>
        <time>2018-07-08T11:16:56Z</time>
      </trkpt>
      <trkpt lat="44.28403" lon="6.70806">
        <ele>2857</ele>
        <time>2018-07-08T11:17:02Z</time>
      </trkpt>
      <trkpt lat="44.28399" lon="6.7081">
        <ele>2857</ele>
        <time>2018-07-08T11:17:08Z</time>
      </trkpt>
      <trkpt lat="44.28392" lon="6.70815">
        <ele>2856</ele>
        <time>2018-07-08T11:17:16Z</time>
      </trkpt>
      <trkpt lat="44.28387" lon="6.70819">
        <ele>2856</ele>
        <time>2018-07-08T11:17:22Z</time>
      </trkpt>
      <trkpt lat="44.28383" lon="6.70822">
        <ele>2856</ele>
        <time>2018-07-08T11:17:30Z</time>
      </trkpt>
      <trkpt lat="44.28378" lon="6.70826">
        <ele>2856</ele>
        <time>2018-07-08T11:17:38Z</time>
      </trkpt>
      <trkpt lat="44.28374" lon="6.70829">
        <ele>2856</ele>
        <time>2018-07-08T11:17:58Z</time>
      </trkpt>
      <trkpt lat="44.28369" lon="6.70833">
        <ele>2856</ele>
        <time>2018-07-08T11:18:06Z</time>
      </trkpt>
      <trkpt lat="44.28366" lon="6.70836">
        <ele>2854</ele>
        <time>2018-07-08T11:18:12Z</time>
      </trkpt>
      <trkpt lat="44.2836" lon="6.7084">
        <ele>2854</ele>
        <time>2018-07-08T11:18:18Z</time>
      </trkpt>
      <trkpt lat="44.28355" lon="6.70844">
        <ele>2854</ele>
        <time>2018-07-08T11:18:24Z</time>
      </trkpt>
      <trkpt lat="44.28349" lon="6.70845">
        <ele>2855</ele>
        <time>2018-07-08T11:18:32Z</time>
      </trkpt>
      <trkpt lat="44.28346" lon="6.70848">
        <ele>2855</ele>
        <time>2018-07-08T11:18:38Z</time>
      </trkpt>
      <trkpt lat="44.28341" lon="6.70851">
        <ele>2855</ele>
        <time>2018-07-08T11:18:48Z</time>
      </trkpt>
      <trkpt lat="44.28335" lon="6.70852">
        <ele>2855</ele>
        <time>2018-07-08T11:18:56Z</time>
      </trkpt>
      <trkpt lat="44.28331" lon="6.70856">
        <ele>2854</ele>
        <time>2018-07-08T11:19:06Z</time>
      </trkpt>
      <trkpt lat="44.28326" lon="6.70858">
        <ele>2854</ele>
        <time>2018-07-08T11:19:58Z</time>
      </trkpt>
      <trkpt lat="44.28321" lon="6.70862">
        <ele>2853</ele>
        <time>2018-07-08T11:20:04Z</time>
      </trkpt>
      <trkpt lat="44.28317" lon="6.70866">
        <ele>2853</ele>
        <time>2018-07-08T11:20:10Z</time>
      </trkpt>
      <trkpt lat="44.28313" lon="6.7087">
        <ele>2852</ele>
        <time>2018-07-08T11:20:16Z</time>
      </trkpt>
      <trkpt lat="44.28308" lon="6.70874">
        <ele>2852</ele>
        <time>2018-07-08T11:20:24Z</time>
      </trkpt>
      <trkpt lat="44.28304" lon="6.70878">
        <ele>2852</ele>
        <time>2018-07-08T11:20:30Z</time>
      </trkpt>
      <trkpt lat="44.28299" lon="6.70882">
        <ele>2852</ele>
        <time>2018-07-08T11:20:38Z</time>
      </trkpt>
      <trkpt lat="44.28294" lon="6.70883">
        <ele>2851</ele>
        <time>2018-07-08T11:20:50Z</time>
      </trkpt>
      <trkpt lat="44.28288" lon="6.70887">
        <ele>2851</ele>
        <time>2018-07-08T11:21:04Z</time>
      </trkpt>
      <trkpt lat="44.28283" lon="6.70889">
        <ele>2851</ele>
        <time>2018-07-08T11:21:12Z</time>
      </trkpt>
      <trkpt lat="44.28278" lon="6.70891">
        <ele>2851</ele>
        <time>2018-07-08T11:21:20Z</time>
      </trkpt>
      <trkpt lat="44.28273" lon="6.70894">
        <ele>2852</ele>
        <time>2018-07-08T11:21:26Z</time>
      </trkpt>
      <trkpt lat="44.28269" lon="6.70898">
        <ele>2852</ele>
        <time>2018-07-08T11:21:32Z</time>
      </trkpt>
      <trkpt lat="44.28264" lon="6.70899">
        <ele>2852</ele>
        <time>2018-07-08T11:21:38Z</time>
      </trkpt>
      <trkpt lat="44.2826" lon="6.70901">
        <ele>2853</ele>
        <time>2018-07-08T11:21:48Z</time>
      </trkpt>
      <trkpt lat="44.28255" lon="6.70904">
        <ele>2854</ele>
        <time>2018-07-08T11:21:54Z</time>
      </trkpt>
      <trkpt lat="44.2825" lon="6.70905">
        <ele>2851</ele>
        <time>2018-07-08T11:22:02Z</time>
      </trkpt>
      <trkpt lat="44.28244" lon="6.70908">
        <ele>2852</ele>
        <time>2018-07-08T11:22:10Z</time>
      </trkpt>
      <trkpt lat="44.28238" lon="6.70911">
        <ele>2851</ele>
        <time>2018-07-08T11:22:16Z</time>
      </trkpt>
      <trkpt lat="44.28234" lon="6.70914">
        <ele>2849</ele>
        <time>2018-07-08T11:22:24Z</time>
      </trkpt>
      <trkpt lat="44.28229" lon="6.70916">
        <ele>2848</ele>
        <time>2018-07-08T11:22:32Z</time>
      </trkpt>
      <trkpt lat="44.28224" lon="6.70917">
        <ele>2846</ele>
        <time>2018-07-08T11:22:42Z</time>
      </trkpt>
      <trkpt lat="44.28219" lon="6.70917">
        <ele>2845</ele>
        <time>2018-07-08T11:22:56Z</time>
      </trkpt>
      <trkpt lat="44.28215" lon="6.7092">
        <ele>2843</ele>
        <time>2018-07-08T11:23:04Z</time>
      </trkpt>
      <trkpt lat="44.2821" lon="6.70925">
        <ele>2842</ele>
        <time>2018-07-08T11:23:10Z</time>
      </trkpt>
      <trkpt lat="44.28207" lon="6.7093">
        <ele>2842</ele>
        <time>2018-07-08T11:23:16Z</time>
      </trkpt>
      <trkpt lat="44.28203" lon="6.70932">
        <ele>2841</ele>
        <time>2018-07-08T11:23:24Z</time>
      </trkpt>
      <trkpt lat="44.28198" lon="6.70929">
        <ele>2840</ele>
        <time>2018-07-08T11:23:36Z</time>
      </trkpt>
      <trkpt lat="44.28193" lon="6.70927">
        <ele>2839</ele>
        <time>2018-07-08T11:23:44Z</time>
      </trkpt>
      <trkpt lat="44.28188" lon="6.70928">
        <ele>2838</ele>
        <time>2018-07-08T11:23:54Z</time>
      </trkpt>
      <trkpt lat="44.28183" lon="6.70928">
        <ele>2837</ele>
        <time>2018-07-08T11:24:02Z</time>
      </trkpt>
      <trkpt lat="44.28178" lon="6.70927">
        <ele>2837</ele>
        <time>2018-07-08T11:24:12Z</time>
      </trkpt>
      <trkpt lat="44.28173" lon="6.70928">
        <ele>2836</ele>
        <time>2018-07-08T11:24:24Z</time>
      </trkpt>
      <trkpt lat="44.28169" lon="6.70928">
        <ele>2836</ele>
        <time>2018-07-08T11:24:30Z</time>
      </trkpt>
      <trkpt lat="44.28163" lon="6.70932">
        <ele>2832</ele>
        <time>2018-07-08T11:24:36Z</time>
      </trkpt>
      <trkpt lat="44.28159" lon="6.70934">
        <ele>2832</ele>
        <time>2018-07-08T11:24:42Z</time>
      </trkpt>
      <trkpt lat="44.28154" lon="6.70938">
        <ele>2831</ele>
        <time>2018-07-08T11:24:48Z</time>
      </trkpt>
      <trkpt lat="44.2815" lon="6.7094">
        <ele>2831</ele>
        <time>2018-07-08T11:24:56Z</time>
      </trkpt>
      <trkpt lat="44.28145" lon="6.7094">
        <ele>2831</ele>
        <time>2018-07-08T11:25:08Z</time>
      </trkpt>
      <trkpt lat="44.2814" lon="6.70942">
        <ele>2831</ele>
        <time>2018-07-08T11:25:20Z</time>
      </trkpt>
      <trkpt lat="44.28135" lon="6.70943">
        <ele>2831</ele>
        <time>2018-07-08T11:25:32Z</time>
      </trkpt>
      <trkpt lat="44.28131" lon="6.70941">
        <ele>2831</ele>
        <time>2018-07-08T11:25:48Z</time>
      </trkpt>
      <trkpt lat="44.28125" lon="6.70942">
        <ele>2831</ele>
        <time>2018-07-08T11:25:58Z</time>
      </trkpt>
      <trkpt lat="44.28121" lon="6.70943">
        <ele>2830</ele>
        <time>2018-07-08T11:26:06Z</time>
      </trkpt>
      <trkpt lat="44.28117" lon="6.70947">
        <ele>2830</ele>
        <time>2018-07-08T11:26:16Z</time>
      </trkpt>
      <trkpt lat="44.28113" lon="6.7095">
        <ele>2830</ele>
        <time>2018-07-08T11:26:28Z</time>
      </trkpt>
      <trkpt lat="44.28107" lon="6.70954">
        <ele>2830</ele>
        <time>2018-07-08T11:26:40Z</time>
      </trkpt>
      <trkpt lat="44.28103" lon="6.70957">
        <ele>2830</ele>
        <time>2018-07-08T11:26:58Z</time>
      </trkpt>
      <trkpt lat="44.28099" lon="6.70961">
        <ele>2830</ele>
        <time>2018-07-08T11:27:20Z</time>
      </trkpt>
      <trkpt lat="44.28095" lon="6.70965">
        <ele>2830</ele>
        <time>2018-07-08T11:27:26Z</time>
      </trkpt>
      <trkpt lat="44.28092" lon="6.70971">
        <ele>2830</ele>
        <time>2018-07-08T11:27:32Z</time>
      </trkpt>
      <trkpt lat="44.28088" lon="6.70974">
        <ele>2830</ele>
        <time>2018-07-08T11:27:50Z</time>
      </trkpt>
      <trkpt lat="44.28082" lon="6.70975">
        <ele>2855</ele>
        <time>2018-07-08T11:27:56Z</time>
      </trkpt>
      <trkpt lat="44.28077" lon="6.70977">
        <ele>2854</ele>
        <time>2018-07-08T11:28:02Z</time>
      </trkpt>
      <trkpt lat="44.28071" lon="6.7098">
        <ele>2853</ele>
        <time>2018-07-08T11:28:10Z</time>
      </trkpt>
      <trkpt lat="44.28066" lon="6.70983">
        <ele>2853</ele>
        <time>2018-07-08T11:28:18Z</time>
      </trkpt>
      <trkpt lat="44.28061" lon="6.70983">
        <ele>2852</ele>
        <time>2018-07-08T11:28:24Z</time>
      </trkpt>
      <trkpt lat="44.28056" lon="6.70984">
        <ele>2850</ele>
        <time>2018-07-08T11:28:32Z</time>
      </trkpt>
      <trkpt lat="44.28051" lon="6.70985">
        <ele>2850</ele>
        <time>2018-07-08T11:28:38Z</time>
      </trkpt>
      <trkpt lat="44.28046" lon="6.70985">
        <ele>2848</ele>
        <time>2018-07-08T11:28:44Z</time>
      </trkpt>
      <trkpt lat="44.28041" lon="6.70985">
        <ele>2848</ele>
        <time>2018-07-08T11:28:50Z</time>
      </trkpt>
      <trkpt lat="44.28034" lon="6.70986">
        <ele>2848</ele>
        <time>2018-07-08T11:28:56Z</time>
      </trkpt>
      <trkpt lat="44.28028" lon="6.70986">
        <ele>2848</ele>
        <time>2018-07-08T11:29:02Z</time>
      </trkpt>
      <trkpt lat="44.28023" lon="6.70985">
        <ele>2847</ele>
        <time>2018-07-08T11:29:06Z</time>
      </trkpt>
      <trkpt lat="44.28018" lon="6.70984">
        <ele>2845</ele>
        <time>2018-07-08T11:29:14Z</time>
      </trkpt>
      <trkpt lat="44.28012" lon="6.70984">
        <ele>2843</ele>
        <time>2018-07-08T11:29:20Z</time>
      </trkpt>
      <trkpt lat="44.28006" lon="6.70984">
        <ele>2842</ele>
        <time>2018-07-08T11:29:26Z</time>
      </trkpt>
      <trkpt lat="44.28001" lon="6.70984">
        <ele>2842</ele>
        <time>2018-07-08T11:29:30Z</time>
      </trkpt>
      <trkpt lat="44.27996" lon="6.70984">
        <ele>2841</ele>
        <time>2018-07-08T11:29:34Z</time>
      </trkpt>
      <trkpt lat="44.27991" lon="6.70984">
        <ele>2841</ele>
        <time>2018-07-08T11:29:40Z</time>
      </trkpt>
      <trkpt lat="44.27984" lon="6.70983">
        <ele>2839</ele>
        <time>2018-07-08T11:29:46Z</time>
      </trkpt>
      <trkpt lat="44.27978" lon="6.70982">
        <ele>2837</ele>
        <time>2018-07-08T11:29:52Z</time>
      </trkpt>
      <trkpt lat="44.27975" lon="6.70978">
        <ele>2837</ele>
        <time>2018-07-08T11:29:56Z</time>
      </trkpt>
      <trkpt lat="44.27971" lon="6.70974">
        <ele>2837</ele>
        <time>2018-07-08T11:30:00Z</time>
      </trkpt>
      <trkpt lat="44.27967" lon="6.70971">
        <ele>2837</ele>
        <time>2018-07-08T11:30:04Z</time>
      </trkpt>
      <trkpt lat="44.27962" lon="6.70965">
        <ele>2835</ele>
        <time>2018-07-08T11:30:10Z</time>
      </trkpt>
      <trkpt lat="44.27958" lon="6.70958">
        <ele>2834</ele>
        <time>2018-07-08T11:30:16Z</time>
      </trkpt>
      <trkpt lat="44.27952" lon="6.70955">
        <ele>2832</ele>
        <time>2018-07-08T11:30:22Z</time>
      </trkpt>
      <trkpt lat="44.27949" lon="6.70951">
        <ele>2831</ele>
        <time>2018-07-08T11:30:28Z</time>
      </trkpt>
      <trkpt lat="44.27944" lon="6.70951">
        <ele>2829</ele>
        <time>2018-07-08T11:30:34Z</time>
      </trkpt>
      <trkpt lat="44.2794" lon="6.70954">
        <ele>2829</ele>
        <time>2018-07-08T11:30:40Z</time>
      </trkpt>
      <trkpt lat="44.27934" lon="6.70952">
        <ele>2827</ele>
        <time>2018-07-08T11:30:46Z</time>
      </trkpt>
      <trkpt lat="44.27929" lon="6.70952">
        <ele>2826</ele>
        <time>2018-07-08T11:30:52Z</time>
      </trkpt>
      <trkpt lat="44.27925" lon="6.70948">
        <ele>2825</ele>
        <time>2018-07-08T11:30:58Z</time>
      </trkpt>
      <trkpt lat="44.27919" lon="6.70945">
        <ele>2823</ele>
        <time>2018-07-08T11:31:04Z</time>
      </trkpt>
      <trkpt lat="44.27915" lon="6.70942">
        <ele>2823</ele>
        <time>2018-07-08T11:31:08Z</time>
      </trkpt>
      <trkpt lat="44.27908" lon="6.7094">
        <ele>2821</ele>
        <time>2018-07-08T11:31:14Z</time>
      </trkpt>
      <trkpt lat="44.27903" lon="6.70935">
        <ele>2820</ele>
        <time>2018-07-08T11:31:20Z</time>
      </trkpt>
      <trkpt lat="44.27899" lon="6.70932">
        <ele>2819</ele>
        <time>2018-07-08T11:31:24Z</time>
      </trkpt>
      <trkpt lat="44.27893" lon="6.70928">
        <ele>2818</ele>
        <time>2018-07-08T11:31:30Z</time>
      </trkpt>
      <trkpt lat="44.27889" lon="6.70925">
        <ele>2818</ele>
        <time>2018-07-08T11:31:34Z</time>
      </trkpt>
      <trkpt lat="44.27884" lon="6.70923">
        <ele>2818</ele>
        <time>2018-07-08T11:31:38Z</time>
      </trkpt>
      <trkpt lat="44.27879" lon="6.70919">
        <ele>2818</ele>
        <time>2018-07-08T11:31:44Z</time>
      </trkpt>
      <trkpt lat="44.27873" lon="6.70915">
        <ele>2818</ele>
        <time>2018-07-08T11:31:50Z</time>
      </trkpt>
      <trkpt lat="44.27868" lon="6.70913">
        <ele>2817</ele>
        <time>2018-07-08T11:31:56Z</time>
      </trkpt>
      <trkpt lat="44.27864" lon="6.70908">
        <ele>2817</ele>
        <time>2018-07-08T11:32:00Z</time>
      </trkpt>
      <trkpt lat="44.2786" lon="6.70903">
        <ele>2817</ele>
        <time>2018-07-08T11:32:06Z</time>
      </trkpt>
      <trkpt lat="44.27855" lon="6.70898">
        <ele>2815</ele>
        <time>2018-07-08T11:32:12Z</time>
      </trkpt>
      <trkpt lat="44.2785" lon="6.70894">
        <ele>2814</ele>
        <time>2018-07-08T11:32:18Z</time>
      </trkpt>
      <trkpt lat="44.27845" lon="6.70893">
        <ele>2813</ele>
        <time>2018-07-08T11:32:22Z</time>
      </trkpt>
      <trkpt lat="44.2784" lon="6.70891">
        <ele>2812</ele>
        <time>2018-07-08T11:32:26Z</time>
      </trkpt>
      <trkpt lat="44.27835" lon="6.70891">
        <ele>2812</ele>
        <time>2018-07-08T11:32:30Z</time>
      </trkpt>
      <trkpt lat="44.27831" lon="6.7089">
        <ele>2811</ele>
        <time>2018-07-08T11:32:34Z</time>
      </trkpt>
      <trkpt lat="44.27825" lon="6.70888">
        <ele>2809</ele>
        <time>2018-07-08T11:32:40Z</time>
      </trkpt>
      <trkpt lat="44.27819" lon="6.70884">
        <ele>2808</ele>
        <time>2018-07-08T11:32:46Z</time>
      </trkpt>
      <trkpt lat="44.27815" lon="6.70879">
        <ele>2808</ele>
        <time>2018-07-08T11:32:52Z</time>
      </trkpt>
      <trkpt lat="44.27809" lon="6.70878">
        <ele>2809</ele>
        <time>2018-07-08T11:33:00Z</time>
      </trkpt>
      <trkpt lat="44.27806" lon="6.70873">
        <ele>2811</ele>
        <time>2018-07-08T11:33:12Z</time>
      </trkpt>
      <trkpt lat="44.27803" lon="6.70865">
        <ele>2810</ele>
        <time>2018-07-08T11:33:18Z</time>
      </trkpt>
      <trkpt lat="44.27801" lon="6.70857">
        <ele>2809</ele>
        <time>2018-07-08T11:33:24Z</time>
      </trkpt>
      <trkpt lat="44.27799" lon="6.70851">
        <ele>2806</ele>
        <time>2018-07-08T11:33:30Z</time>
      </trkpt>
      <trkpt lat="44.27793" lon="6.7085">
        <ele>2805</ele>
        <time>2018-07-08T11:33:38Z</time>
      </trkpt>
      <trkpt lat="44.27787" lon="6.70848">
        <ele>2804</ele>
        <time>2018-07-08T11:33:44Z</time>
      </trkpt>
      <trkpt lat="44.27782" lon="6.70843">
        <ele>2803</ele>
        <time>2018-07-08T11:33:50Z</time>
      </trkpt>
      <trkpt lat="44.27778" lon="6.70837">
        <ele>2802</ele>
        <time>2018-07-08T11:33:56Z</time>
      </trkpt>
      <trkpt lat="44.27772" lon="6.70833">
        <ele>2801</ele>
        <time>2018-07-08T11:34:02Z</time>
      </trkpt>
      <trkpt lat="44.27766" lon="6.70832">
        <ele>2802</ele>
        <time>2018-07-08T11:34:08Z</time>
      </trkpt>
      <trkpt lat="44.27761" lon="6.70831">
        <ele>2801</ele>
        <time>2018-07-08T11:34:14Z</time>
      </trkpt>
      <trkpt lat="44.27757" lon="6.7083">
        <ele>2798</ele>
        <time>2018-07-08T11:34:20Z</time>
      </trkpt>
      <trkpt lat="44.27752" lon="6.70828">
        <ele>2798</ele>
        <time>2018-07-08T11:34:28Z</time>
      </trkpt>
      <trkpt lat="44.27746" lon="6.70828">
        <ele>2796</ele>
        <time>2018-07-08T11:34:38Z</time>
      </trkpt>
      <trkpt lat="44.2774" lon="6.7083">
        <ele>2796</ele>
        <time>2018-07-08T11:34:44Z</time>
      </trkpt>
      <trkpt lat="44.27734" lon="6.70833">
        <ele>2796</ele>
        <time>2018-07-08T11:34:50Z</time>
      </trkpt>
      <trkpt lat="44.27728" lon="6.70836">
        <ele>2796</ele>
        <time>2018-07-08T11:34:56Z</time>
      </trkpt>
      <trkpt lat="44.27722" lon="6.70839">
        <ele>2795</ele>
        <time>2018-07-08T11:35:02Z</time>
      </trkpt>
      <trkpt lat="44.27717" lon="6.70842">
        <ele>2794</ele>
        <time>2018-07-08T11:35:08Z</time>
      </trkpt>
      <trkpt lat="44.27712" lon="6.70843">
        <ele>2793</ele>
        <time>2018-07-08T11:35:14Z</time>
      </trkpt>
      <trkpt lat="44.27709" lon="6.70836">
        <ele>2791</ele>
        <time>2018-07-08T11:35:24Z</time>
      </trkpt>
      <trkpt lat="44.27705" lon="6.70833">
        <ele>2789</ele>
        <time>2018-07-08T11:35:32Z</time>
      </trkpt>
      <trkpt lat="44.27701" lon="6.70827">
        <ele>2786</ele>
        <time>2018-07-08T11:35:42Z</time>
      </trkpt>
      <trkpt lat="44.27697" lon="6.70828">
        <ele>2784</ele>
        <time>2018-07-08T11:35:52Z</time>
      </trkpt>
      <trkpt lat="44.27692" lon="6.7083">
        <ele>2783</ele>
        <time>2018-07-08T11:36:00Z</time>
      </trkpt>
      <trkpt lat="44.27688" lon="6.70833">
        <ele>2783</ele>
        <time>2018-07-08T11:36:08Z</time>
      </trkpt>
      <trkpt lat="44.27684" lon="6.70837">
        <ele>2782</ele>
        <time>2018-07-08T11:36:14Z</time>
      </trkpt>
      <trkpt lat="44.27678" lon="6.70837">
        <ele>2779</ele>
        <time>2018-07-08T11:36:28Z</time>
      </trkpt>
      <trkpt lat="44.27674" lon="6.70841">
        <ele>2777</ele>
        <time>2018-07-08T11:36:40Z</time>
      </trkpt>
      <trkpt lat="44.27669" lon="6.70838">
        <ele>2775</ele>
        <time>2018-07-08T11:36:50Z</time>
      </trkpt>
      <trkpt lat="44.27664" lon="6.70843">
        <ele>2775</ele>
        <time>2018-07-08T11:36:58Z</time>
      </trkpt>
      <trkpt lat="44.2766" lon="6.70846">
        <ele>2774</ele>
        <time>2018-07-08T11:37:04Z</time>
      </trkpt>
      <trkpt lat="44.27655" lon="6.70843">
        <ele>2773</ele>
        <time>2018-07-08T11:37:18Z</time>
      </trkpt>
      <trkpt lat="44.27649" lon="6.70843">
        <ele>2772</ele>
        <time>2018-07-08T11:37:34Z</time>
      </trkpt>
      <trkpt lat="44.27644" lon="6.70844">
        <ele>2768</ele>
        <time>2018-07-08T11:37:46Z</time>
      </trkpt>
      <trkpt lat="44.27639" lon="6.70843">
        <ele>2766</ele>
        <time>2018-07-08T11:37:54Z</time>
      </trkpt>
      <trkpt lat="44.27635" lon="6.70843">
        <ele>2764</ele>
        <time>2018-07-08T11:38:04Z</time>
      </trkpt>
      <trkpt lat="44.27631" lon="6.70839">
        <ele>2761</ele>
        <time>2018-07-08T11:38:18Z</time>
      </trkpt>
      <trkpt lat="44.27627" lon="6.7084">
        <ele>2761</ele>
        <time>2018-07-08T11:38:28Z</time>
      </trkpt>
      <trkpt lat="44.27622" lon="6.70842">
        <ele>2759</ele>
        <time>2018-07-08T11:38:38Z</time>
      </trkpt>
      <trkpt lat="44.27616" lon="6.70846">
        <ele>2758</ele>
        <time>2018-07-08T11:38:46Z</time>
      </trkpt>
      <trkpt lat="44.27611" lon="6.70845">
        <ele>2757</ele>
        <time>2018-07-08T11:38:56Z</time>
      </trkpt>
      <trkpt lat="44.27606" lon="6.70845">
        <ele>2754</ele>
        <time>2018-07-08T11:39:06Z</time>
      </trkpt>
      <trkpt lat="44.27601" lon="6.70847">
        <ele>2753</ele>
        <time>2018-07-08T11:39:14Z</time>
      </trkpt>
      <trkpt lat="44.27597" lon="6.70848">
        <ele>2751</ele>
        <time>2018-07-08T11:39:26Z</time>
      </trkpt>
      <trkpt lat="44.27592" lon="6.7085">
        <ele>2750</ele>
        <time>2018-07-08T11:39:34Z</time>
      </trkpt>
      <trkpt lat="44.27588" lon="6.70853">
        <ele>2749</ele>
        <time>2018-07-08T11:39:40Z</time>
      </trkpt>
      <trkpt lat="44.27582" lon="6.70854">
        <ele>2747</ele>
        <time>2018-07-08T11:39:48Z</time>
      </trkpt>
      <trkpt lat="44.27578" lon="6.70852">
        <ele>2745</ele>
        <time>2018-07-08T11:39:54Z</time>
      </trkpt>
      <trkpt lat="44.27573" lon="6.70852">
        <ele>2744</ele>
        <time>2018-07-08T11:40:00Z</time>
      </trkpt>
      <trkpt lat="44.27568" lon="6.70853">
        <ele>2743</ele>
        <time>2018-07-08T11:40:06Z</time>
      </trkpt>
      <trkpt lat="44.27562" lon="6.70853">
        <ele>2741</ele>
        <time>2018-07-08T11:40:14Z</time>
      </trkpt>
      <trkpt lat="44.27556" lon="6.70853">
        <ele>2739</ele>
        <time>2018-07-08T11:40:20Z</time>
      </trkpt>
      <trkpt lat="44.27552" lon="6.70853">
        <ele>2738</ele>
        <time>2018-07-08T11:40:26Z</time>
      </trkpt>
      <trkpt lat="44.27548" lon="6.70848">
        <ele>2736</ele>
        <time>2018-07-08T11:40:34Z</time>
      </trkpt>
      <trkpt lat="44.27543" lon="6.70844">
        <ele>2734</ele>
        <time>2018-07-08T11:40:40Z</time>
      </trkpt>
      <trkpt lat="44.27539" lon="6.7084">
        <ele>2733</ele>
        <time>2018-07-08T11:40:46Z</time>
      </trkpt>
      <trkpt lat="44.27533" lon="6.70838">
        <ele>2731</ele>
        <time>2018-07-08T11:40:52Z</time>
      </trkpt>
      <trkpt lat="44.27527" lon="6.70836">
        <ele>2731</ele>
        <time>2018-07-08T11:40:58Z</time>
      </trkpt>
      <trkpt lat="44.27522" lon="6.70835">
        <ele>2731</ele>
        <time>2018-07-08T11:41:12Z</time>
      </trkpt>
      <trkpt lat="44.27516" lon="6.70834">
        <ele>2731</ele>
        <time>2018-07-08T11:41:18Z</time>
      </trkpt>
      <trkpt lat="44.2751" lon="6.70833">
        <ele>2732</ele>
        <time>2018-07-08T11:41:24Z</time>
      </trkpt>
      <trkpt lat="44.27506" lon="6.7083">
        <ele>2732</ele>
        <time>2018-07-08T11:41:28Z</time>
      </trkpt>
      <trkpt lat="44.27501" lon="6.70829">
        <ele>2732</ele>
        <time>2018-07-08T11:41:32Z</time>
      </trkpt>
      <trkpt lat="44.27497" lon="6.70826">
        <ele>2731</ele>
        <time>2018-07-08T11:41:36Z</time>
      </trkpt>
      <trkpt lat="44.27492" lon="6.70822">
        <ele>2732</ele>
        <time>2018-07-08T11:41:58Z</time>
      </trkpt>
      <trkpt lat="44.27487" lon="6.70819">
        <ele>2731</ele>
        <time>2018-07-08T11:42:04Z</time>
      </trkpt>
      <trkpt lat="44.27482" lon="6.70815">
        <ele>2731</ele>
        <time>2018-07-08T11:42:10Z</time>
      </trkpt>
      <trkpt lat="44.27476" lon="6.70811">
        <ele>2731</ele>
        <time>2018-07-08T11:42:16Z</time>
      </trkpt>
      <trkpt lat="44.27472" lon="6.7081">
        <ele>2733</ele>
        <time>2018-07-08T11:42:22Z</time>
      </trkpt>
      <trkpt lat="44.27475" lon="6.70815">
        <ele>2734</ele>
        <time>2018-07-08T11:42:46Z</time>
      </trkpt>
      <trkpt lat="44.27478" lon="6.7082">
        <ele>2730</ele>
        <time>2018-07-08T11:45:18Z</time>
      </trkpt>
      <trkpt lat="44.27483" lon="6.70824">
        <ele>2729</ele>
        <time>2018-07-08T11:45:28Z</time>
      </trkpt>
      <trkpt lat="44.27486" lon="6.70829">
        <ele>2726</ele>
        <time>2018-07-08T11:45:36Z</time>
      </trkpt>
      <trkpt lat="44.2749" lon="6.70833">
        <ele>2726</ele>
        <time>2018-07-08T11:45:44Z</time>
      </trkpt>
      <trkpt lat="44.27494" lon="6.70839">
        <ele>2725</ele>
        <time>2018-07-08T11:45:54Z</time>
      </trkpt>
      <trkpt lat="44.27499" lon="6.70841">
        <ele>2724</ele>
        <time>2018-07-08T11:46:00Z</time>
      </trkpt>
      <trkpt lat="44.27501" lon="6.70847">
        <ele>2725</ele>
        <time>2018-07-08T11:46:10Z</time>
      </trkpt>
      <trkpt lat="44.27505" lon="6.70851">
        <ele>2724</ele>
        <time>2018-07-08T11:46:16Z</time>
      </trkpt>
      <trkpt lat="44.2751" lon="6.70855">
        <ele>2721</ele>
        <time>2018-07-08T11:46:22Z</time>
      </trkpt>
      <trkpt lat="44.27515" lon="6.7086">
        <ele>2719</ele>
        <time>2018-07-08T11:46:28Z</time>
      </trkpt>
      <trkpt lat="44.27519" lon="6.70866">
        <ele>2719</ele>
        <time>2018-07-08T11:46:36Z</time>
      </trkpt>
      <trkpt lat="44.27524" lon="6.7087">
        <ele>2714</ele>
        <time>2018-07-08T11:46:44Z</time>
      </trkpt>
      <trkpt lat="44.27527" lon="6.70877">
        <ele>2712</ele>
        <time>2018-07-08T11:46:52Z</time>
      </trkpt>
      <trkpt lat="44.27532" lon="6.70881">
        <ele>2709</ele>
        <time>2018-07-08T11:47:02Z</time>
      </trkpt>
      <trkpt lat="44.27533" lon="6.70887">
        <ele>2708</ele>
        <time>2018-07-08T11:47:10Z</time>
      </trkpt>
      <trkpt lat="44.27528" lon="6.70886">
        <ele>2706</ele>
        <time>2018-07-08T11:47:18Z</time>
      </trkpt>
      <trkpt lat="44.27523" lon="6.70884">
        <ele>2703</ele>
        <time>2018-07-08T11:47:26Z</time>
      </trkpt>
      <trkpt lat="44.27518" lon="6.70882">
        <ele>2701</ele>
        <time>2018-07-08T11:47:32Z</time>
      </trkpt>
      <trkpt lat="44.27513" lon="6.7088">
        <ele>2700</ele>
        <time>2018-07-08T11:47:38Z</time>
      </trkpt>
      <trkpt lat="44.27508" lon="6.70878">
        <ele>2698</ele>
        <time>2018-07-08T11:47:46Z</time>
      </trkpt>
      <trkpt lat="44.27503" lon="6.70878">
        <ele>2697</ele>
        <time>2018-07-08T11:47:52Z</time>
      </trkpt>
      <trkpt lat="44.27497" lon="6.70876">
        <ele>2695</ele>
        <time>2018-07-08T11:48:00Z</time>
      </trkpt>
      <trkpt lat="44.27492" lon="6.70875">
        <ele>2694</ele>
        <time>2018-07-08T11:48:06Z</time>
      </trkpt>
      <trkpt lat="44.27486" lon="6.70873">
        <ele>2695</ele>
        <time>2018-07-08T11:48:12Z</time>
      </trkpt>
      <trkpt lat="44.2748" lon="6.70872">
        <ele>2695</ele>
        <time>2018-07-08T11:48:18Z</time>
      </trkpt>
      <trkpt lat="44.27475" lon="6.70872">
        <ele>2695</ele>
        <time>2018-07-08T11:48:24Z</time>
      </trkpt>
      <trkpt lat="44.27469" lon="6.70871">
        <ele>2693</ele>
        <time>2018-07-08T11:48:30Z</time>
      </trkpt>
      <trkpt lat="44.27463" lon="6.70871">
        <ele>2692</ele>
        <time>2018-07-08T11:48:36Z</time>
      </trkpt>
      <trkpt lat="44.27458" lon="6.70869">
        <ele>2691</ele>
        <time>2018-07-08T11:48:44Z</time>
      </trkpt>
      <trkpt lat="44.27453" lon="6.70868">
        <ele>2691</ele>
        <time>2018-07-08T11:49:08Z</time>
      </trkpt>
      <trkpt lat="44.27447" lon="6.70863">
        <ele>2689</ele>
        <time>2018-07-08T11:49:14Z</time>
      </trkpt>
      <trkpt lat="44.27451" lon="6.70868">
        <ele>2687</ele>
        <time>2018-07-08T11:49:30Z</time>
      </trkpt>
      <trkpt lat="44.27456" lon="6.70874">
        <ele>2687</ele>
        <time>2018-07-08T11:49:36Z</time>
      </trkpt>
      <trkpt lat="44.27461" lon="6.7088">
        <ele>2684</ele>
        <time>2018-07-08T11:49:44Z</time>
      </trkpt>
      <trkpt lat="44.27465" lon="6.70885">
        <ele>2683</ele>
        <time>2018-07-08T11:49:50Z</time>
      </trkpt>
      <trkpt lat="44.27469" lon="6.70891">
        <ele>2684</ele>
        <time>2018-07-08T11:49:58Z</time>
      </trkpt>
      <trkpt lat="44.27474" lon="6.70895">
        <ele>2682</ele>
        <time>2018-07-08T11:50:06Z</time>
      </trkpt>
      <trkpt lat="44.27478" lon="6.709">
        <ele>2679</ele>
        <time>2018-07-08T11:50:12Z</time>
      </trkpt>
      <trkpt lat="44.27477" lon="6.70906">
        <ele>2676</ele>
        <time>2018-07-08T11:50:24Z</time>
      </trkpt>
      <trkpt lat="44.27472" lon="6.70908">
        <ele>2676</ele>
        <time>2018-07-08T11:50:32Z</time>
      </trkpt>
      <trkpt lat="44.27467" lon="6.70908">
        <ele>2675</ele>
        <time>2018-07-08T11:50:38Z</time>
      </trkpt>
      <trkpt lat="44.27461" lon="6.70909">
        <ele>2673</ele>
        <time>2018-07-08T11:50:44Z</time>
      </trkpt>
      <trkpt lat="44.27456" lon="6.70908">
        <ele>2673</ele>
        <time>2018-07-08T11:50:50Z</time>
      </trkpt>
      <trkpt lat="44.27451" lon="6.70909">
        <ele>2672</ele>
        <time>2018-07-08T11:50:56Z</time>
      </trkpt>
      <trkpt lat="44.27445" lon="6.70908">
        <ele>2671</ele>
        <time>2018-07-08T11:51:02Z</time>
      </trkpt>
      <trkpt lat="44.27439" lon="6.70908">
        <ele>2671</ele>
        <time>2018-07-08T11:51:08Z</time>
      </trkpt>
      <trkpt lat="44.27435" lon="6.70909">
        <ele>2671</ele>
        <time>2018-07-08T11:51:14Z</time>
      </trkpt>
      <trkpt lat="44.2743" lon="6.70911">
        <ele>2672</ele>
        <time>2018-07-08T11:51:20Z</time>
      </trkpt>
      <trkpt lat="44.27425" lon="6.70912">
        <ele>2670</ele>
        <time>2018-07-08T11:51:28Z</time>
      </trkpt>
      <trkpt lat="44.27427" lon="6.70918">
        <ele>2666</ele>
        <time>2018-07-08T11:51:42Z</time>
      </trkpt>
      <trkpt lat="44.27429" lon="6.70924">
        <ele>2665</ele>
        <time>2018-07-08T11:51:48Z</time>
      </trkpt>
      <trkpt lat="44.27432" lon="6.7093">
        <ele>2661</ele>
        <time>2018-07-08T11:52:00Z</time>
      </trkpt>
      <trkpt lat="44.27432" lon="6.70937">
        <ele>2658</ele>
        <time>2018-07-08T11:52:06Z</time>
      </trkpt>
      <trkpt lat="44.27434" lon="6.70942">
        <ele>2657</ele>
        <time>2018-07-08T11:52:12Z</time>
      </trkpt>
      <trkpt lat="44.27437" lon="6.70948">
        <ele>2655</ele>
        <time>2018-07-08T11:52:18Z</time>
      </trkpt>
      <trkpt lat="44.27438" lon="6.70954">
        <ele>2654</ele>
        <time>2018-07-08T11:52:24Z</time>
      </trkpt>
      <trkpt lat="44.27442" lon="6.70959">
        <ele>2653</ele>
        <time>2018-07-08T11:52:30Z</time>
      </trkpt>
      <trkpt lat="44.27445" lon="6.70965">
        <ele>2651</ele>
        <time>2018-07-08T11:52:36Z</time>
      </trkpt>
      <trkpt lat="44.27449" lon="6.70972">
        <ele>2650</ele>
        <time>2018-07-08T11:52:42Z</time>
      </trkpt>
      <trkpt lat="44.27451" lon="6.70978">
        <ele>2647</ele>
        <time>2018-07-08T11:52:50Z</time>
      </trkpt>
      <trkpt lat="44.27455" lon="6.70983">
        <ele>2647</ele>
        <time>2018-07-08T11:52:56Z</time>
      </trkpt>
      <trkpt lat="44.27458" lon="6.70988">
        <ele>2647</ele>
        <time>2018-07-08T11:53:02Z</time>
      </trkpt>
      <trkpt lat="44.27459" lon="6.70994">
        <ele>2651</ele>
        <time>2018-07-08T11:54:02Z</time>
      </trkpt>
      <trkpt lat="44.27463" lon="6.70997">
        <ele>2651</ele>
        <time>2018-07-08T11:54:14Z</time>
      </trkpt>
      <trkpt lat="44.27468" lon="6.70999">
        <ele>2651</ele>
        <time>2018-07-08T11:54:20Z</time>
      </trkpt>
      <trkpt lat="44.27472" lon="6.71">
        <ele>2651</ele>
        <time>2018-07-08T11:54:26Z</time>
      </trkpt>
      <trkpt lat="44.27478" lon="6.71004">
        <ele>2650</ele>
        <time>2018-07-08T11:54:32Z</time>
      </trkpt>
      <trkpt lat="44.27482" lon="6.71008">
        <ele>2648</ele>
        <time>2018-07-08T11:54:38Z</time>
      </trkpt>
      <trkpt lat="44.27487" lon="6.71011">
        <ele>2647</ele>
        <time>2018-07-08T11:54:44Z</time>
      </trkpt>
      <trkpt lat="44.27492" lon="6.71014">
        <ele>2646</ele>
        <time>2018-07-08T11:54:50Z</time>
      </trkpt>
      <trkpt lat="44.27496" lon="6.71018">
        <ele>2645</ele>
        <time>2018-07-08T11:55:02Z</time>
      </trkpt>
      <trkpt lat="44.27496" lon="6.71025">
        <ele>2644</ele>
        <time>2018-07-08T11:55:12Z</time>
      </trkpt>
      <trkpt lat="44.27493" lon="6.71031">
        <ele>2642</ele>
        <time>2018-07-08T11:55:20Z</time>
      </trkpt>
      <trkpt lat="44.27494" lon="6.71038">
        <ele>2640</ele>
        <time>2018-07-08T11:55:24Z</time>
      </trkpt>
      <trkpt lat="44.27493" lon="6.71044">
        <ele>2639</ele>
        <time>2018-07-08T11:55:30Z</time>
      </trkpt>
      <trkpt lat="44.27495" lon="6.71053">
        <ele>2639</ele>
        <time>2018-07-08T11:55:38Z</time>
      </trkpt>
      <trkpt lat="44.27498" lon="6.7106">
        <ele>2640</ele>
        <time>2018-07-08T11:55:46Z</time>
      </trkpt>
      <trkpt lat="44.27503" lon="6.71066">
        <ele>2639</ele>
        <time>2018-07-08T11:55:52Z</time>
      </trkpt>
      <trkpt lat="44.27507" lon="6.71071">
        <ele>2637</ele>
        <time>2018-07-08T11:55:58Z</time>
      </trkpt>
      <trkpt lat="44.27509" lon="6.71079">
        <ele>2637</ele>
        <time>2018-07-08T11:56:06Z</time>
      </trkpt>
      <trkpt lat="44.27511" lon="6.71086">
        <ele>2634</ele>
        <time>2018-07-08T11:56:12Z</time>
      </trkpt>
      <trkpt lat="44.27513" lon="6.71096">
        <ele>2632</ele>
        <time>2018-07-08T11:56:18Z</time>
      </trkpt>
      <trkpt lat="44.27513" lon="6.71104">
        <ele>2632</ele>
        <time>2018-07-08T11:56:24Z</time>
      </trkpt>
      <trkpt lat="44.27516" lon="6.71109">
        <ele>2631</ele>
        <time>2018-07-08T11:56:30Z</time>
      </trkpt>
      <trkpt lat="44.2752" lon="6.71115">
        <ele>2630</ele>
        <time>2018-07-08T11:56:36Z</time>
      </trkpt>
      <trkpt lat="44.27522" lon="6.71124">
        <ele>2628</ele>
        <time>2018-07-08T11:56:44Z</time>
      </trkpt>
      <trkpt lat="44.27523" lon="6.7113">
        <ele>2628</ele>
        <time>2018-07-08T11:56:48Z</time>
      </trkpt>
      <trkpt lat="44.27527" lon="6.71136">
        <ele>2629</ele>
        <time>2018-07-08T11:56:54Z</time>
      </trkpt>
      <trkpt lat="44.27529" lon="6.71142">
        <ele>2627</ele>
        <time>2018-07-08T11:56:58Z</time>
      </trkpt>
      <trkpt lat="44.27532" lon="6.7115">
        <ele>2626</ele>
        <time>2018-07-08T11:57:04Z</time>
      </trkpt>
      <trkpt lat="44.27535" lon="6.71156">
        <ele>2623</ele>
        <time>2018-07-08T11:57:10Z</time>
      </trkpt>
      <trkpt lat="44.27535" lon="6.71163">
        <ele>2622</ele>
        <time>2018-07-08T11:57:16Z</time>
      </trkpt>
      <trkpt lat="44.27538" lon="6.7117">
        <ele>2558</ele>
        <time>2018-07-08T11:57:22Z</time>
      </trkpt>
      <trkpt lat="44.27543" lon="6.71176">
        <ele>2558</ele>
        <time>2018-07-08T11:57:26Z</time>
      </trkpt>
      <trkpt lat="44.27549" lon="6.71181">
        <ele>2558</ele>
        <time>2018-07-08T11:57:32Z</time>
      </trkpt>
      <trkpt lat="44.27554" lon="6.71185">
        <ele>2558</ele>
        <time>2018-07-08T11:57:36Z</time>
      </trkpt>
      <trkpt lat="44.27555" lon="6.71191">
        <ele>2558</ele>
        <time>2018-07-08T11:57:44Z</time>
      </trkpt>
      <trkpt lat="44.27557" lon="6.71199">
        <ele>2558</ele>
        <time>2018-07-08T11:57:50Z</time>
      </trkpt>
      <trkpt lat="44.27559" lon="6.71205">
        <ele>2558</ele>
        <time>2018-07-08T11:57:54Z</time>
      </trkpt>
      <trkpt lat="44.27563" lon="6.71209">
        <ele>2558</ele>
        <time>2018-07-08T11:58:00Z</time>
      </trkpt>
      <trkpt lat="44.27565" lon="6.71215">
        <ele>2558</ele>
        <time>2018-07-08T11:58:04Z</time>
      </trkpt>
      <trkpt lat="44.27568" lon="6.7122">
        <ele>2558</ele>
        <time>2018-07-08T11:58:08Z</time>
      </trkpt>
      <trkpt lat="44.27571" lon="6.71228">
        <ele>2558</ele>
        <time>2018-07-08T11:58:14Z</time>
      </trkpt>
      <trkpt lat="44.27575" lon="6.71234">
        <ele>2558</ele>
        <time>2018-07-08T11:58:20Z</time>
      </trkpt>
      <trkpt lat="44.2758" lon="6.71237">
        <ele>2558</ele>
        <time>2018-07-08T11:58:28Z</time>
      </trkpt>
      <trkpt lat="44.2758" lon="6.71244">
        <ele>2558</ele>
        <time>2018-07-08T11:58:36Z</time>
      </trkpt>
      <trkpt lat="44.27576" lon="6.71248">
        <ele>2558</ele>
        <time>2018-07-08T11:58:42Z</time>
      </trkpt>
      <trkpt lat="44.2757" lon="6.71248">
        <ele>2558</ele>
        <time>2018-07-08T11:58:48Z</time>
      </trkpt>
      <trkpt lat="44.27566" lon="6.71251">
        <ele>2554</ele>
        <time>2018-07-08T11:58:52Z</time>
      </trkpt>
      <trkpt lat="44.27561" lon="6.71253">
        <ele>2554</ele>
        <time>2018-07-08T11:58:58Z</time>
      </trkpt>
      <trkpt lat="44.27558" lon="6.71257">
        <ele>2553</ele>
        <time>2018-07-08T11:59:04Z</time>
      </trkpt>
      <trkpt lat="44.27554" lon="6.71262">
        <ele>2552</ele>
        <time>2018-07-08T11:59:10Z</time>
      </trkpt>
      <trkpt lat="44.27559" lon="6.71263">
        <ele>2553</ele>
        <time>2018-07-08T11:59:26Z</time>
      </trkpt>
      <trkpt lat="44.27564" lon="6.71267">
        <ele>2553</ele>
        <time>2018-07-08T11:59:34Z</time>
      </trkpt>
      <trkpt lat="44.27568" lon="6.71272">
        <ele>2552</ele>
        <time>2018-07-08T11:59:42Z</time>
      </trkpt>
      <trkpt lat="44.27572" lon="6.71277">
        <ele>2552</ele>
        <time>2018-07-08T11:59:50Z</time>
      </trkpt>
      <trkpt lat="44.27576" lon="6.71281">
        <ele>2551</ele>
        <time>2018-07-08T11:59:56Z</time>
      </trkpt>
      <trkpt lat="44.27581" lon="6.71282">
        <ele>2551</ele>
        <time>2018-07-08T12:00:02Z</time>
      </trkpt>
      <trkpt lat="44.27587" lon="6.71281">
        <ele>2549</ele>
        <time>2018-07-08T12:00:08Z</time>
      </trkpt>
      <trkpt lat="44.27591" lon="6.71284">
        <ele>2549</ele>
        <time>2018-07-08T12:00:14Z</time>
      </trkpt>
      <trkpt lat="44.27595" lon="6.71289">
        <ele>2548</ele>
        <time>2018-07-08T12:00:20Z</time>
      </trkpt>
      <trkpt lat="44.27595" lon="6.71296">
        <ele>2547</ele>
        <time>2018-07-08T12:00:28Z</time>
      </trkpt>
      <trkpt lat="44.27595" lon="6.71304">
        <ele>2546</ele>
        <time>2018-07-08T12:00:36Z</time>
      </trkpt>
      <trkpt lat="44.27597" lon="6.71311">
        <ele>2545</ele>
        <time>2018-07-08T12:00:44Z</time>
      </trkpt>
      <trkpt lat="44.27601" lon="6.71318">
        <ele>2544</ele>
        <time>2018-07-08T12:00:50Z</time>
      </trkpt>
      <trkpt lat="44.27605" lon="6.71322">
        <ele>2544</ele>
        <time>2018-07-08T12:00:56Z</time>
      </trkpt>
      <trkpt lat="44.2761" lon="6.71325">
        <ele>2544</ele>
        <time>2018-07-08T12:01:02Z</time>
      </trkpt>
      <trkpt lat="44.27613" lon="6.7133">
        <ele>2544</ele>
        <time>2018-07-08T12:01:08Z</time>
      </trkpt>
      <trkpt lat="44.27617" lon="6.71334">
        <ele>2530</ele>
        <time>2018-07-08T12:01:16Z</time>
      </trkpt>
      <trkpt lat="44.27622" lon="6.71338">
        <ele>2530</ele>
        <time>2018-07-08T12:01:22Z</time>
      </trkpt>
      <trkpt lat="44.27626" lon="6.71342">
        <ele>2529</ele>
        <time>2018-07-08T12:01:30Z</time>
      </trkpt>
      <trkpt lat="44.27631" lon="6.71342">
        <ele>2529</ele>
        <time>2018-07-08T12:01:36Z</time>
      </trkpt>
      <trkpt lat="44.27635" lon="6.71339">
        <ele>2529</ele>
        <time>2018-07-08T12:01:42Z</time>
      </trkpt>
      <trkpt lat="44.27634" lon="6.71347">
        <ele>2529</ele>
        <time>2018-07-08T12:01:54Z</time>
      </trkpt>
      <trkpt lat="44.2763" lon="6.71352">
        <ele>2528</ele>
        <time>2018-07-08T12:02:04Z</time>
      </trkpt>
      <trkpt lat="44.27626" lon="6.71354">
        <ele>2528</ele>
        <time>2018-07-08T12:02:14Z</time>
      </trkpt>
      <trkpt lat="44.2762" lon="6.71357">
        <ele>2528</ele>
        <time>2018-07-08T12:02:22Z</time>
      </trkpt>
      <trkpt lat="44.27616" lon="6.71362">
        <ele>2527</ele>
        <time>2018-07-08T12:02:30Z</time>
      </trkpt>
      <trkpt lat="44.27611" lon="6.71364">
        <ele>2527</ele>
        <time>2018-07-08T12:02:38Z</time>
      </trkpt>
      <trkpt lat="44.27612" lon="6.71371">
        <ele>2526</ele>
        <time>2018-07-08T12:02:48Z</time>
      </trkpt>
      <trkpt lat="44.27612" lon="6.71378">
        <ele>2525</ele>
        <time>2018-07-08T12:03:02Z</time>
      </trkpt>
      <trkpt lat="44.27612" lon="6.71384">
        <ele>2524</ele>
        <time>2018-07-08T12:03:10Z</time>
      </trkpt>
      <trkpt lat="44.27612" lon="6.71391">
        <ele>2523</ele>
        <time>2018-07-08T12:03:20Z</time>
      </trkpt>
      <trkpt lat="44.2761" lon="6.71397">
        <ele>2522</ele>
        <time>2018-07-08T12:03:26Z</time>
      </trkpt>
      <trkpt lat="44.27608" lon="6.71403">
        <ele>2521</ele>
        <time>2018-07-08T12:03:32Z</time>
      </trkpt>
      <trkpt lat="44.27606" lon="6.71409">
        <ele>2520</ele>
        <time>2018-07-08T12:03:38Z</time>
      </trkpt>
      <trkpt lat="44.27604" lon="6.71415">
        <ele>2519</ele>
        <time>2018-07-08T12:03:50Z</time>
      </trkpt>
      <trkpt lat="44.27601" lon="6.7142">
        <ele>2506</ele>
        <time>2018-07-08T12:03:58Z</time>
      </trkpt>
      <trkpt lat="44.27596" lon="6.71424">
        <ele>2507</ele>
        <time>2018-07-08T12:04:06Z</time>
      </trkpt>
      <trkpt lat="44.27591" lon="6.71426">
        <ele>2507</ele>
        <time>2018-07-08T12:04:18Z</time>
      </trkpt>
      <trkpt lat="44.27591" lon="6.71434">
        <ele>2505</ele>
        <time>2018-07-08T12:04:28Z</time>
      </trkpt>
      <trkpt lat="44.2759" lon="6.71441">
        <ele>2503</ele>
        <time>2018-07-08T12:04:34Z</time>
      </trkpt>
      <trkpt lat="44.27587" lon="6.71447">
        <ele>2501</ele>
        <time>2018-07-08T12:04:40Z</time>
      </trkpt>
      <trkpt lat="44.27583" lon="6.71451">
        <ele>2501</ele>
        <time>2018-07-08T12:04:44Z</time>
      </trkpt>
      <trkpt lat="44.27579" lon="6.71456">
        <ele>2500</ele>
        <time>2018-07-08T12:04:52Z</time>
      </trkpt>
      <trkpt lat="44.27585" lon="6.71457">
        <ele>2499</ele>
        <time>2018-07-08T12:04:58Z</time>
      </trkpt>
      <trkpt lat="44.27589" lon="6.71458">
        <ele>2498</ele>
        <time>2018-07-08T12:05:02Z</time>
      </trkpt>
      <trkpt lat="44.27595" lon="6.71457">
        <ele>2499</ele>
        <time>2018-07-08T12:05:08Z</time>
      </trkpt>
      <trkpt lat="44.276" lon="6.71456">
        <ele>2499</ele>
        <time>2018-07-08T12:05:12Z</time>
      </trkpt>
      <trkpt lat="44.27604" lon="6.71454">
        <ele>2499</ele>
        <time>2018-07-08T12:05:16Z</time>
      </trkpt>
      <trkpt lat="44.27608" lon="6.71453">
        <ele>2500</ele>
        <time>2018-07-08T12:05:20Z</time>
      </trkpt>
      <trkpt lat="44.27614" lon="6.71449">
        <ele>2500</ele>
        <time>2018-07-08T12:05:26Z</time>
      </trkpt>
      <trkpt lat="44.27619" lon="6.71445">
        <ele>2501</ele>
        <time>2018-07-08T12:05:32Z</time>
      </trkpt>
      <trkpt lat="44.27622" lon="6.7144">
        <ele>2502</ele>
        <time>2018-07-08T12:05:36Z</time>
      </trkpt>
      <trkpt lat="44.27626" lon="6.71436">
        <ele>2502</ele>
        <time>2018-07-08T12:05:40Z</time>
      </trkpt>
      <trkpt lat="44.27631" lon="6.71431">
        <ele>2503</ele>
        <time>2018-07-08T12:05:46Z</time>
      </trkpt>
      <trkpt lat="44.27637" lon="6.71427">
        <ele>2504</ele>
        <time>2018-07-08T12:05:52Z</time>
      </trkpt>
      <trkpt lat="44.27642" lon="6.7143">
        <ele>2504</ele>
        <time>2018-07-08T12:05:58Z</time>
      </trkpt>
      <trkpt lat="44.27646" lon="6.71433">
        <ele>2504</ele>
        <time>2018-07-08T12:06:04Z</time>
      </trkpt>
      <trkpt lat="44.27652" lon="6.71439">
        <ele>2503</ele>
        <time>2018-07-08T12:06:10Z</time>
      </trkpt>
      <trkpt lat="44.27657" lon="6.71444">
        <ele>2502</ele>
        <time>2018-07-08T12:06:16Z</time>
      </trkpt>
      <trkpt lat="44.27662" lon="6.71447">
        <ele>2502</ele>
        <time>2018-07-08T12:06:20Z</time>
      </trkpt>
      <trkpt lat="44.27666" lon="6.71451">
        <ele>2501</ele>
        <time>2018-07-08T12:06:24Z</time>
      </trkpt>
      <trkpt lat="44.27672" lon="6.71456">
        <ele>2504</ele>
        <time>2018-07-08T12:06:30Z</time>
      </trkpt>
      <trkpt lat="44.27675" lon="6.7146">
        <ele>2503</ele>
        <time>2018-07-08T12:06:34Z</time>
      </trkpt>
      <trkpt lat="44.27679" lon="6.71465">
        <ele>2502</ele>
        <time>2018-07-08T12:06:38Z</time>
      </trkpt>
      <trkpt lat="44.27681" lon="6.71472">
        <ele>2501</ele>
        <time>2018-07-08T12:06:44Z</time>
      </trkpt>
      <trkpt lat="44.27686" lon="6.71478">
        <ele>2500</ele>
        <time>2018-07-08T12:06:50Z</time>
      </trkpt>
      <trkpt lat="44.27689" lon="6.71483">
        <ele>2499</ele>
        <time>2018-07-08T12:06:54Z</time>
      </trkpt>
      <trkpt lat="44.27693" lon="6.71488">
        <ele>2499</ele>
        <time>2018-07-08T12:06:58Z</time>
      </trkpt>
      <trkpt lat="44.277" lon="6.71492">
        <ele>2500</ele>
        <time>2018-07-08T12:07:04Z</time>
      </trkpt>
      <trkpt lat="44.27704" lon="6.71493">
        <ele>2501</ele>
        <time>2018-07-08T12:07:08Z</time>
      </trkpt>
      <trkpt lat="44.27709" lon="6.71492">
        <ele>2501</ele>
        <time>2018-07-08T12:07:12Z</time>
      </trkpt>
      <trkpt lat="44.27715" lon="6.7149">
        <ele>2502</ele>
        <time>2018-07-08T12:07:18Z</time>
      </trkpt>
      <trkpt lat="44.27721" lon="6.71495">
        <ele>2502</ele>
        <time>2018-07-08T12:07:24Z</time>
      </trkpt>
      <trkpt lat="44.27726" lon="6.71499">
        <ele>2502</ele>
        <time>2018-07-08T12:07:32Z</time>
      </trkpt>
      <trkpt lat="44.2773" lon="6.71503">
        <ele>2492</ele>
        <time>2018-07-08T12:07:36Z</time>
      </trkpt>
      <trkpt lat="44.27733" lon="6.71508">
        <ele>2492</ele>
        <time>2018-07-08T12:07:42Z</time>
      </trkpt>
      <trkpt lat="44.27735" lon="6.71514">
        <ele>2492</ele>
        <time>2018-07-08T12:07:48Z</time>
      </trkpt>
      <trkpt lat="44.27737" lon="6.71523">
        <ele>2490</ele>
        <time>2018-07-08T12:07:54Z</time>
      </trkpt>
      <trkpt lat="44.27735" lon="6.71531">
        <ele>2489</ele>
        <time>2018-07-08T12:07:58Z</time>
      </trkpt>
      <trkpt lat="44.27732" lon="6.71538">
        <ele>2488</ele>
        <time>2018-07-08T12:08:02Z</time>
      </trkpt>
      <trkpt lat="44.27731" lon="6.71544">
        <ele>2487</ele>
        <time>2018-07-08T12:08:06Z</time>
      </trkpt>
      <trkpt lat="44.2773" lon="6.71552">
        <ele>2486</ele>
        <time>2018-07-08T12:08:12Z</time>
      </trkpt>
      <trkpt lat="44.27731" lon="6.7156">
        <ele>2485</ele>
        <time>2018-07-08T12:08:18Z</time>
      </trkpt>
      <trkpt lat="44.27733" lon="6.71567">
        <ele>2485</ele>
        <time>2018-07-08T12:08:24Z</time>
      </trkpt>
      <trkpt lat="44.27737" lon="6.71573">
        <ele>2484</ele>
        <time>2018-07-08T12:08:30Z</time>
      </trkpt>
      <trkpt lat="44.2774" lon="6.7158">
        <ele>2484</ele>
        <time>2018-07-08T12:08:36Z</time>
      </trkpt>
      <trkpt lat="44.27745" lon="6.71585">
        <ele>2481</ele>
        <time>2018-07-08T12:08:42Z</time>
      </trkpt>
      <trkpt lat="44.27751" lon="6.71584">
        <ele>2483</ele>
        <time>2018-07-08T12:08:48Z</time>
      </trkpt>
      <trkpt lat="44.27756" lon="6.7158">
        <ele>2486</ele>
        <time>2018-07-08T12:08:54Z</time>
      </trkpt>
      <trkpt lat="44.27762" lon="6.71575">
        <ele>2488</ele>
        <time>2018-07-08T12:09:00Z</time>
      </trkpt>
      <trkpt lat="44.27767" lon="6.71572">
        <ele>2490</ele>
        <time>2018-07-08T12:09:06Z</time>
      </trkpt>
      <trkpt lat="44.27772" lon="6.71572">
        <ele>2490</ele>
        <time>2018-07-08T12:09:10Z</time>
      </trkpt>
      <trkpt lat="44.27776" lon="6.71576">
        <ele>2491</ele>
        <time>2018-07-08T12:09:14Z</time>
      </trkpt>
      <trkpt lat="44.27781" lon="6.7158">
        <ele>2491</ele>
        <time>2018-07-08T12:09:22Z</time>
      </trkpt>
      <trkpt lat="44.27785" lon="6.71579">
        <ele>2492</ele>
        <time>2018-07-08T12:09:26Z</time>
      </trkpt>
      <trkpt lat="44.27789" lon="6.71583">
        <ele>2492</ele>
        <time>2018-07-08T12:09:30Z</time>
      </trkpt>
      <trkpt lat="44.27793" lon="6.71588">
        <ele>2486</ele>
        <time>2018-07-08T12:09:34Z</time>
      </trkpt>
      <trkpt lat="44.27795" lon="6.71593">
        <ele>2486</ele>
        <time>2018-07-08T12:09:40Z</time>
      </trkpt>
      <trkpt lat="44.278" lon="6.71595">
        <ele>2486</ele>
        <time>2018-07-08T12:09:46Z</time>
      </trkpt>
      <trkpt lat="44.27802" lon="6.71602">
        <ele>2486</ele>
        <time>2018-07-08T12:09:52Z</time>
      </trkpt>
      <trkpt lat="44.27804" lon="6.7161">
        <ele>2486</ele>
        <time>2018-07-08T12:09:58Z</time>
      </trkpt>
      <trkpt lat="44.27806" lon="6.71616">
        <ele>2486</ele>
        <time>2018-07-08T12:10:02Z</time>
      </trkpt>
      <trkpt lat="44.27808" lon="6.71624">
        <ele>2486</ele>
        <time>2018-07-08T12:10:08Z</time>
      </trkpt>
      <trkpt lat="44.27809" lon="6.71631">
        <ele>2486</ele>
        <time>2018-07-08T12:10:14Z</time>
      </trkpt>
      <trkpt lat="44.2781" lon="6.71641">
        <ele>2486</ele>
        <time>2018-07-08T12:10:20Z</time>
      </trkpt>
      <trkpt lat="44.27815" lon="6.71644">
        <ele>2487</ele>
        <time>2018-07-08T12:10:26Z</time>
      </trkpt>
      <trkpt lat="44.27816" lon="6.71653">
        <ele>2487</ele>
        <time>2018-07-08T12:10:38Z</time>
      </trkpt>
      <trkpt lat="44.27814" lon="6.7166">
        <ele>2487</ele>
        <time>2018-07-08T12:10:44Z</time>
      </trkpt>
      <trkpt lat="44.27812" lon="6.71668">
        <ele>2484</ele>
        <time>2018-07-08T12:10:50Z</time>
      </trkpt>
      <trkpt lat="44.27807" lon="6.71669">
        <ele>2482</ele>
        <time>2018-07-08T12:10:56Z</time>
      </trkpt>
      <trkpt lat="44.27803" lon="6.71673">
        <ele>2481</ele>
        <time>2018-07-08T12:11:02Z</time>
      </trkpt>
      <trkpt lat="44.27798" lon="6.71677">
        <ele>2480</ele>
        <time>2018-07-08T12:11:06Z</time>
      </trkpt>
      <trkpt lat="44.27795" lon="6.71684">
        <ele>2480</ele>
        <time>2018-07-08T12:11:12Z</time>
      </trkpt>
      <trkpt lat="44.27791" lon="6.71691">
        <ele>2479</ele>
        <time>2018-07-08T12:11:18Z</time>
      </trkpt>
      <trkpt lat="44.27789" lon="6.71697">
        <ele>2478</ele>
        <time>2018-07-08T12:11:22Z</time>
      </trkpt>
      <trkpt lat="44.27786" lon="6.71703">
        <ele>2478</ele>
        <time>2018-07-08T12:11:26Z</time>
      </trkpt>
      <trkpt lat="44.27784" lon="6.71708">
        <ele>2477</ele>
        <time>2018-07-08T12:11:30Z</time>
      </trkpt>
      <trkpt lat="44.2778" lon="6.71717">
        <ele>2476</ele>
        <time>2018-07-08T12:11:36Z</time>
      </trkpt>
      <trkpt lat="44.27778" lon="6.71725">
        <ele>2475</ele>
        <time>2018-07-08T12:11:42Z</time>
      </trkpt>
      <trkpt lat="44.27775" lon="6.71732">
        <ele>2474</ele>
        <time>2018-07-08T12:11:48Z</time>
      </trkpt>
      <trkpt lat="44.27773" lon="6.7174">
        <ele>2473</ele>
        <time>2018-07-08T12:11:54Z</time>
      </trkpt>
      <trkpt lat="44.27772" lon="6.71748">
        <ele>2472</ele>
        <time>2018-07-08T12:12:00Z</time>
      </trkpt>
      <trkpt lat="44.27771" lon="6.71755">
        <ele>2460</ele>
        <time>2018-07-08T12:12:06Z</time>
      </trkpt>
      <trkpt lat="44.27771" lon="6.71763">
        <ele>2459</ele>
        <time>2018-07-08T12:12:12Z</time>
      </trkpt>
      <trkpt lat="44.27774" lon="6.71769">
        <ele>2458</ele>
        <time>2018-07-08T12:12:26Z</time>
      </trkpt>
      <trkpt lat="44.2778" lon="6.71769">
        <ele>2459</ele>
        <time>2018-07-08T12:12:32Z</time>
      </trkpt>
      <trkpt lat="44.27785" lon="6.7177">
        <ele>2459</ele>
        <time>2018-07-08T12:12:38Z</time>
      </trkpt>
      <trkpt lat="44.27791" lon="6.71771">
        <ele>2460</ele>
        <time>2018-07-08T12:12:44Z</time>
      </trkpt>
      <trkpt lat="44.27796" lon="6.71775">
        <ele>2460</ele>
        <time>2018-07-08T12:12:50Z</time>
      </trkpt>
      <trkpt lat="44.27801" lon="6.71777">
        <ele>2460</ele>
        <time>2018-07-08T12:12:56Z</time>
      </trkpt>
      <trkpt lat="44.27806" lon="6.7178">
        <ele>2460</ele>
        <time>2018-07-08T12:13:02Z</time>
      </trkpt>
      <trkpt lat="44.2781" lon="6.71783">
        <ele>2460</ele>
        <time>2018-07-08T12:13:08Z</time>
      </trkpt>
      <trkpt lat="44.27813" lon="6.71788">
        <ele>2459</ele>
        <time>2018-07-08T12:13:16Z</time>
      </trkpt>
      <trkpt lat="44.27816" lon="6.71794">
        <ele>2458</ele>
        <time>2018-07-08T12:13:42Z</time>
      </trkpt>
      <trkpt lat="44.2782" lon="6.71798">
        <ele>2457</ele>
        <time>2018-07-08T12:13:48Z</time>
      </trkpt>
      <trkpt lat="44.27825" lon="6.71802">
        <ele>2456</ele>
        <time>2018-07-08T12:13:54Z</time>
      </trkpt>
      <trkpt lat="44.27829" lon="6.71806">
        <ele>2455</ele>
        <time>2018-07-08T12:14:00Z</time>
      </trkpt>
      <trkpt lat="44.27833" lon="6.71811">
        <ele>2453</ele>
        <time>2018-07-08T12:14:06Z</time>
      </trkpt>
      <trkpt lat="44.27838" lon="6.71813">
        <ele>2461</ele>
        <time>2018-07-08T12:14:12Z</time>
      </trkpt>
      <trkpt lat="44.27844" lon="6.71814">
        <ele>2462</ele>
        <time>2018-07-08T12:14:18Z</time>
      </trkpt>
      <trkpt lat="44.27849" lon="6.71815">
        <ele>2463</ele>
        <time>2018-07-08T12:14:24Z</time>
      </trkpt>
      <trkpt lat="44.27855" lon="6.71815">
        <ele>2465</ele>
        <time>2018-07-08T12:14:30Z</time>
      </trkpt>
      <trkpt lat="44.27861" lon="6.71814">
        <ele>2466</ele>
        <time>2018-07-08T12:14:36Z</time>
      </trkpt>
      <trkpt lat="44.27866" lon="6.71814">
        <ele>2467</ele>
        <time>2018-07-08T12:14:42Z</time>
      </trkpt>
      <trkpt lat="44.2787" lon="6.71817">
        <ele>2467</ele>
        <time>2018-07-08T12:14:48Z</time>
      </trkpt>
      <trkpt lat="44.27875" lon="6.71819">
        <ele>2468</ele>
        <time>2018-07-08T12:14:54Z</time>
      </trkpt>
      <trkpt lat="44.2788" lon="6.7182">
        <ele>2468</ele>
        <time>2018-07-08T12:15:00Z</time>
      </trkpt>
      <trkpt lat="44.27884" lon="6.71825">
        <ele>2468</ele>
        <time>2018-07-08T12:15:06Z</time>
      </trkpt>
      <trkpt lat="44.27886" lon="6.71832">
        <ele>2468</ele>
        <time>2018-07-08T12:15:14Z</time>
      </trkpt>
      <trkpt lat="44.27886" lon="6.71838">
        <ele>2452</ele>
        <time>2018-07-08T12:15:22Z</time>
      </trkpt>
      <trkpt lat="44.27886" lon="6.71848">
        <ele>2450</ele>
        <time>2018-07-08T12:15:30Z</time>
      </trkpt>
      <trkpt lat="44.27885" lon="6.71854">
        <ele>2450</ele>
        <time>2018-07-08T12:15:36Z</time>
      </trkpt>
      <trkpt lat="44.27884" lon="6.71861">
        <ele>2448</ele>
        <time>2018-07-08T12:15:44Z</time>
      </trkpt>
      <trkpt lat="44.27883" lon="6.71868">
        <ele>2447</ele>
        <time>2018-07-08T12:15:52Z</time>
      </trkpt>
      <trkpt lat="44.27883" lon="6.71876">
        <ele>2447</ele>
        <time>2018-07-08T12:15:58Z</time>
      </trkpt>
      <trkpt lat="44.27884" lon="6.71882">
        <ele>2446</ele>
        <time>2018-07-08T12:16:04Z</time>
      </trkpt>
      <trkpt lat="44.27884" lon="6.71889">
        <ele>2446</ele>
        <time>2018-07-08T12:16:08Z</time>
      </trkpt>
      <trkpt lat="44.27886" lon="6.71896">
        <ele>2445</ele>
        <time>2018-07-08T12:16:14Z</time>
      </trkpt>
      <trkpt lat="44.27889" lon="6.71902">
        <ele>2446</ele>
        <time>2018-07-08T12:16:22Z</time>
      </trkpt>
      <trkpt lat="44.27892" lon="6.71906">
        <ele>2446</ele>
        <time>2018-07-08T12:16:30Z</time>
      </trkpt>
      <trkpt lat="44.27896" lon="6.71912">
        <ele>2447</ele>
        <time>2018-07-08T12:16:36Z</time>
      </trkpt>
      <trkpt lat="44.27898" lon="6.7192">
        <ele>2440</ele>
        <time>2018-07-08T12:16:42Z</time>
      </trkpt>
      <trkpt lat="44.279" lon="6.71926">
        <ele>2440</ele>
        <time>2018-07-08T12:16:50Z</time>
      </trkpt>
      <trkpt lat="44.27904" lon="6.71932">
        <ele>2440</ele>
        <time>2018-07-08T12:16:56Z</time>
      </trkpt>
      <trkpt lat="44.27906" lon="6.71939">
        <ele>2439</ele>
        <time>2018-07-08T12:17:02Z</time>
      </trkpt>
      <trkpt lat="44.27905" lon="6.71945">
        <ele>2437</ele>
        <time>2018-07-08T12:17:08Z</time>
      </trkpt>
      <trkpt lat="44.27902" lon="6.71941">
        <ele>2437</ele>
        <time>2018-07-08T12:17:12Z</time>
      </trkpt>
      <trkpt lat="44.27897" lon="6.71937">
        <ele>2437</ele>
        <time>2018-07-08T12:17:18Z</time>
      </trkpt>
      <trkpt lat="44.27892" lon="6.71932">
        <ele>2436</ele>
        <time>2018-07-08T12:17:26Z</time>
      </trkpt>
      <trkpt lat="44.27888" lon="6.71926">
        <ele>2435</ele>
        <time>2018-07-08T12:17:32Z</time>
      </trkpt>
      <trkpt lat="44.27883" lon="6.71924">
        <ele>2434</ele>
        <time>2018-07-08T12:17:38Z</time>
      </trkpt>
      <trkpt lat="44.27879" lon="6.71923">
        <ele>2432</ele>
        <time>2018-07-08T12:17:44Z</time>
      </trkpt>
      <trkpt lat="44.27874" lon="6.7192">
        <ele>2431</ele>
        <time>2018-07-08T12:17:52Z</time>
      </trkpt>
      <trkpt lat="44.2787" lon="6.71916">
        <ele>2440</ele>
        <time>2018-07-08T12:17:58Z</time>
      </trkpt>
      <trkpt lat="44.27866" lon="6.71912">
        <ele>2439</ele>
        <time>2018-07-08T12:18:04Z</time>
      </trkpt>
      <trkpt lat="44.27861" lon="6.71906">
        <ele>2438</ele>
        <time>2018-07-08T12:18:10Z</time>
      </trkpt>
      <trkpt lat="44.27858" lon="6.71901">
        <ele>2438</ele>
        <time>2018-07-08T12:18:16Z</time>
      </trkpt>
      <trkpt lat="44.27855" lon="6.71895">
        <ele>2438</ele>
        <time>2018-07-08T12:18:22Z</time>
      </trkpt>
      <trkpt lat="44.27849" lon="6.71892">
        <ele>2438</ele>
        <time>2018-07-08T12:18:28Z</time>
      </trkpt>
      <trkpt lat="44.27844" lon="6.71895">
        <ele>2436</ele>
        <time>2018-07-08T12:18:36Z</time>
      </trkpt>
      <trkpt lat="44.27839" lon="6.71898">
        <ele>2433</ele>
        <time>2018-07-08T12:18:42Z</time>
      </trkpt>
      <trkpt lat="44.27834" lon="6.71896">
        <ele>2434</ele>
        <time>2018-07-08T12:18:48Z</time>
      </trkpt>
      <trkpt lat="44.27829" lon="6.71892">
        <ele>2421</ele>
        <time>2018-07-08T12:18:52Z</time>
      </trkpt>
      <trkpt lat="44.27823" lon="6.71888">
        <ele>2422</ele>
        <time>2018-07-08T12:18:58Z</time>
      </trkpt>
      <trkpt lat="44.27818" lon="6.71883">
        <ele>2422</ele>
        <time>2018-07-08T12:19:04Z</time>
      </trkpt>
      <trkpt lat="44.27813" lon="6.71879">
        <ele>2422</ele>
        <time>2018-07-08T12:19:10Z</time>
      </trkpt>
      <trkpt lat="44.27808" lon="6.71875">
        <ele>2423</ele>
        <time>2018-07-08T12:19:16Z</time>
      </trkpt>
      <trkpt lat="44.27801" lon="6.71873">
        <ele>2422</ele>
        <time>2018-07-08T12:19:24Z</time>
      </trkpt>
      <trkpt lat="44.27796" lon="6.71871">
        <ele>2422</ele>
        <time>2018-07-08T12:19:30Z</time>
      </trkpt>
      <trkpt lat="44.2779" lon="6.7187">
        <ele>2421</ele>
        <time>2018-07-08T12:19:40Z</time>
      </trkpt>
      <trkpt lat="44.27793" lon="6.71876">
        <ele>2421</ele>
        <time>2018-07-08T12:19:54Z</time>
      </trkpt>
      <trkpt lat="44.27797" lon="6.71881">
        <ele>2420</ele>
        <time>2018-07-08T12:20:00Z</time>
      </trkpt>
      <trkpt lat="44.27801" lon="6.71888">
        <ele>2419</ele>
        <time>2018-07-08T12:20:08Z</time>
      </trkpt>
      <trkpt lat="44.27804" lon="6.71896">
        <ele>2419</ele>
        <time>2018-07-08T12:20:16Z</time>
      </trkpt>
      <trkpt lat="44.27808" lon="6.71903">
        <ele>2418</ele>
        <time>2018-07-08T12:20:22Z</time>
      </trkpt>
      <trkpt lat="44.27811" lon="6.7191">
        <ele>2418</ele>
        <time>2018-07-08T12:20:28Z</time>
      </trkpt>
      <trkpt lat="44.27813" lon="6.71916">
        <ele>2418</ele>
        <time>2018-07-08T12:20:32Z</time>
      </trkpt>
      <trkpt lat="44.27814" lon="6.71923">
        <ele>2404</ele>
        <time>2018-07-08T12:20:38Z</time>
      </trkpt>
      <trkpt lat="44.27816" lon="6.71929">
        <ele>2403</ele>
        <time>2018-07-08T12:20:44Z</time>
      </trkpt>
      <trkpt lat="44.27819" lon="6.71936">
        <ele>2402</ele>
        <time>2018-07-08T12:20:50Z</time>
      </trkpt>
      <trkpt lat="44.2782" lon="6.71943">
        <ele>2401</ele>
        <time>2018-07-08T12:20:56Z</time>
      </trkpt>
      <trkpt lat="44.27825" lon="6.71948">
        <ele>2400</ele>
        <time>2018-07-08T12:21:02Z</time>
      </trkpt>
      <trkpt lat="44.27831" lon="6.71952">
        <ele>2400</ele>
        <time>2018-07-08T12:21:08Z</time>
      </trkpt>
      <trkpt lat="44.27837" lon="6.71953">
        <ele>2422</ele>
        <time>2018-07-08T12:21:14Z</time>
      </trkpt>
      <trkpt lat="44.27839" lon="6.71959">
        <ele>2422</ele>
        <time>2018-07-08T12:21:20Z</time>
      </trkpt>
      <trkpt lat="44.2784" lon="6.71966">
        <ele>2420</ele>
        <time>2018-07-08T12:21:26Z</time>
      </trkpt>
      <trkpt lat="44.27842" lon="6.71974">
        <ele>2419</ele>
        <time>2018-07-08T12:21:32Z</time>
      </trkpt>
      <trkpt lat="44.27843" lon="6.71982">
        <ele>2416</ele>
        <time>2018-07-08T12:21:38Z</time>
      </trkpt>
      <trkpt lat="44.27845" lon="6.71988">
        <ele>2414</ele>
        <time>2018-07-08T12:21:44Z</time>
      </trkpt>
      <trkpt lat="44.27845" lon="6.71995">
        <ele>2411</ele>
        <time>2018-07-08T12:21:50Z</time>
      </trkpt>
      <trkpt lat="44.27846" lon="6.72002">
        <ele>2405</ele>
        <time>2018-07-08T12:22:02Z</time>
      </trkpt>
      <trkpt lat="44.27849" lon="6.7201">
        <ele>2407</ele>
        <time>2018-07-08T12:22:08Z</time>
      </trkpt>
      <trkpt lat="44.2785" lon="6.72017">
        <ele>2408</ele>
        <time>2018-07-08T12:22:14Z</time>
      </trkpt>
      <trkpt lat="44.27852" lon="6.72024">
        <ele>2409</ele>
        <time>2018-07-08T12:22:20Z</time>
      </trkpt>
      <trkpt lat="44.27853" lon="6.72031">
        <ele>2409</ele>
        <time>2018-07-08T12:22:26Z</time>
      </trkpt>
      <trkpt lat="44.27856" lon="6.72039">
        <ele>2409</ele>
        <time>2018-07-08T12:22:34Z</time>
      </trkpt>
      <trkpt lat="44.27857" lon="6.72047">
        <ele>2408</ele>
        <time>2018-07-08T12:22:40Z</time>
      </trkpt>
      <trkpt lat="44.27859" lon="6.72053">
        <ele>2408</ele>
        <time>2018-07-08T12:22:44Z</time>
      </trkpt>
      <trkpt lat="44.27858" lon="6.72059">
        <ele>2406</ele>
        <time>2018-07-08T12:22:50Z</time>
      </trkpt>
      <trkpt lat="44.27859" lon="6.72066">
        <ele>2405</ele>
        <time>2018-07-08T12:22:54Z</time>
      </trkpt>
      <trkpt lat="44.27857" lon="6.72073">
        <ele>2403</ele>
        <time>2018-07-08T12:23:00Z</time>
      </trkpt>
      <trkpt lat="44.27855" lon="6.72081">
        <ele>2401</ele>
        <time>2018-07-08T12:23:06Z</time>
      </trkpt>
      <trkpt lat="44.27855" lon="6.7209">
        <ele>2395</ele>
        <time>2018-07-08T12:23:12Z</time>
      </trkpt>
      <trkpt lat="44.27855" lon="6.721">
        <ele>2396</ele>
        <time>2018-07-08T12:23:18Z</time>
      </trkpt>
      <trkpt lat="44.27855" lon="6.72108">
        <ele>2397</ele>
        <time>2018-07-08T12:23:24Z</time>
      </trkpt>
      <trkpt lat="44.27854" lon="6.72115">
        <ele>2397</ele>
        <time>2018-07-08T12:23:28Z</time>
      </trkpt>
      <trkpt lat="44.27851" lon="6.72121">
        <ele>2397</ele>
        <time>2018-07-08T12:23:32Z</time>
      </trkpt>
      <trkpt lat="44.27852" lon="6.72129">
        <ele>2397</ele>
        <time>2018-07-08T12:23:38Z</time>
      </trkpt>
      <trkpt lat="44.27852" lon="6.72139">
        <ele>2396</ele>
        <time>2018-07-08T12:23:44Z</time>
      </trkpt>
      <trkpt lat="44.2785" lon="6.72147">
        <ele>2394</ele>
        <time>2018-07-08T12:23:50Z</time>
      </trkpt>
      <trkpt lat="44.27849" lon="6.72156">
        <ele>2392</ele>
        <time>2018-07-08T12:23:56Z</time>
      </trkpt>
      <trkpt lat="44.27847" lon="6.72162">
        <ele>2390</ele>
        <time>2018-07-08T12:24:02Z</time>
      </trkpt>
      <trkpt lat="44.27841" lon="6.72164">
        <ele>2386</ele>
        <time>2018-07-08T12:24:08Z</time>
      </trkpt>
      <trkpt lat="44.27836" lon="6.72166">
        <ele>2383</ele>
        <time>2018-07-08T12:24:12Z</time>
      </trkpt>
      <trkpt lat="44.27832" lon="6.72168">
        <ele>2378</ele>
        <time>2018-07-08T12:24:16Z</time>
      </trkpt>
      <trkpt lat="44.27828" lon="6.72172">
        <ele>2375</ele>
        <time>2018-07-08T12:24:20Z</time>
      </trkpt>
      <trkpt lat="44.27824" lon="6.72177">
        <ele>2372</ele>
        <time>2018-07-08T12:24:24Z</time>
      </trkpt>
      <trkpt lat="44.27822" lon="6.72184">
        <ele>2369</ele>
        <time>2018-07-08T12:24:28Z</time>
      </trkpt>
      <trkpt lat="44.2782" lon="6.7219">
        <ele>2368</ele>
        <time>2018-07-08T12:24:34Z</time>
      </trkpt>
      <trkpt lat="44.27817" lon="6.72195">
        <ele>2366</ele>
        <time>2018-07-08T12:24:38Z</time>
      </trkpt>
      <trkpt lat="44.27812" lon="6.722">
        <ele>2365</ele>
        <time>2018-07-08T12:24:44Z</time>
      </trkpt>
      <trkpt lat="44.27807" lon="6.72201">
        <ele>2364</ele>
        <time>2018-07-08T12:24:48Z</time>
      </trkpt>
      <trkpt lat="44.27801" lon="6.722">
        <ele>2362</ele>
        <time>2018-07-08T12:24:54Z</time>
      </trkpt>
      <trkpt lat="44.27795" lon="6.72199">
        <ele>2361</ele>
        <time>2018-07-08T12:25:04Z</time>
      </trkpt>
      <trkpt lat="44.27788" lon="6.72198">
        <ele>2360</ele>
        <time>2018-07-08T12:25:10Z</time>
      </trkpt>
      <trkpt lat="44.27784" lon="6.72199">
        <ele>2359</ele>
        <time>2018-07-08T12:25:16Z</time>
      </trkpt>
      <trkpt lat="44.27779" lon="6.72206">
        <ele>2358</ele>
        <time>2018-07-08T12:25:22Z</time>
      </trkpt>
      <trkpt lat="44.27778" lon="6.72212">
        <ele>2357</ele>
        <time>2018-07-08T12:25:26Z</time>
      </trkpt>
      <trkpt lat="44.27775" lon="6.7222">
        <ele>2356</ele>
        <time>2018-07-08T12:25:32Z</time>
      </trkpt>
      <trkpt lat="44.27774" lon="6.72228">
        <ele>2355</ele>
        <time>2018-07-08T12:25:38Z</time>
      </trkpt>
      <trkpt lat="44.27774" lon="6.72236">
        <ele>2354</ele>
        <time>2018-07-08T12:25:44Z</time>
      </trkpt>
      <trkpt lat="44.27774" lon="6.72244">
        <ele>2353</ele>
        <time>2018-07-08T12:25:50Z</time>
      </trkpt>
      <trkpt lat="44.27776" lon="6.72252">
        <ele>2346</ele>
        <time>2018-07-08T12:25:58Z</time>
      </trkpt>
      <trkpt lat="44.27778" lon="6.72259">
        <ele>2346</ele>
        <time>2018-07-08T12:26:04Z</time>
      </trkpt>
      <trkpt lat="44.2778" lon="6.72267">
        <ele>2346</ele>
        <time>2018-07-08T12:26:16Z</time>
      </trkpt>
      <trkpt lat="44.27782" lon="6.72275">
        <ele>2346</ele>
        <time>2018-07-08T12:26:22Z</time>
      </trkpt>
      <trkpt lat="44.27784" lon="6.72281">
        <ele>2346</ele>
        <time>2018-07-08T12:26:28Z</time>
      </trkpt>
      <trkpt lat="44.27787" lon="6.72288">
        <ele>2345</ele>
        <time>2018-07-08T12:26:36Z</time>
      </trkpt>
      <trkpt lat="44.27793" lon="6.72289">
        <ele>2346</ele>
        <time>2018-07-08T12:26:48Z</time>
      </trkpt>
      <trkpt lat="44.27799" lon="6.72287">
        <ele>2348</ele>
        <time>2018-07-08T12:26:56Z</time>
      </trkpt>
      <trkpt lat="44.27803" lon="6.72291">
        <ele>2348</ele>
        <time>2018-07-08T12:27:12Z</time>
      </trkpt>
      <trkpt lat="44.27808" lon="6.72292">
        <ele>2349</ele>
        <time>2018-07-08T12:27:18Z</time>
      </trkpt>
      <trkpt lat="44.27812" lon="6.72296">
        <ele>2349</ele>
        <time>2018-07-08T12:27:24Z</time>
      </trkpt>
      <trkpt lat="44.27816" lon="6.723">
        <ele>2349</ele>
        <time>2018-07-08T12:27:30Z</time>
      </trkpt>
      <trkpt lat="44.27819" lon="6.72307">
        <ele>2348</ele>
        <time>2018-07-08T12:27:38Z</time>
      </trkpt>
      <trkpt lat="44.2782" lon="6.72314">
        <ele>2348</ele>
        <time>2018-07-08T12:27:42Z</time>
      </trkpt>
      <trkpt lat="44.27821" lon="6.72321">
        <ele>2348</ele>
        <time>2018-07-08T12:27:50Z</time>
      </trkpt>
      <trkpt lat="44.27823" lon="6.72327">
        <ele>2348</ele>
        <time>2018-07-08T12:27:58Z</time>
      </trkpt>
      <trkpt lat="44.27829" lon="6.72332">
        <ele>2349</ele>
        <time>2018-07-08T12:28:04Z</time>
      </trkpt>
      <trkpt lat="44.27833" lon="6.72336">
        <ele>2346</ele>
        <time>2018-07-08T12:28:12Z</time>
      </trkpt>
      <trkpt lat="44.27838" lon="6.72341">
        <ele>2349</ele>
        <time>2018-07-08T12:28:20Z</time>
      </trkpt>
      <trkpt lat="44.27842" lon="6.72347">
        <ele>2349</ele>
        <time>2018-07-08T12:28:28Z</time>
      </trkpt>
      <trkpt lat="44.27847" lon="6.72351">
        <ele>2348</ele>
        <time>2018-07-08T12:28:34Z</time>
      </trkpt>
      <trkpt lat="44.27853" lon="6.72351">
        <ele>2349</ele>
        <time>2018-07-08T12:28:40Z</time>
      </trkpt>
      <trkpt lat="44.27858" lon="6.72351">
        <ele>2350</ele>
        <time>2018-07-08T12:28:48Z</time>
      </trkpt>
      <trkpt lat="44.27863" lon="6.72355">
        <ele>2350</ele>
        <time>2018-07-08T12:28:54Z</time>
      </trkpt>
      <trkpt lat="44.27869" lon="6.72357">
        <ele>2351</ele>
        <time>2018-07-08T12:29:00Z</time>
      </trkpt>
      <trkpt lat="44.27873" lon="6.72361">
        <ele>2351</ele>
        <time>2018-07-08T12:29:06Z</time>
      </trkpt>
      <trkpt lat="44.27875" lon="6.72367">
        <ele>2350</ele>
        <time>2018-07-08T12:29:12Z</time>
      </trkpt>
      <trkpt lat="44.27877" lon="6.72375">
        <ele>2349</ele>
        <time>2018-07-08T12:29:22Z</time>
      </trkpt>
      <trkpt lat="44.2788" lon="6.7238">
        <ele>2348</ele>
        <time>2018-07-08T12:29:28Z</time>
      </trkpt>
      <trkpt lat="44.27882" lon="6.72387">
        <ele>2347</ele>
        <time>2018-07-08T12:29:34Z</time>
      </trkpt>
      <trkpt lat="44.27886" lon="6.72391">
        <ele>2347</ele>
        <time>2018-07-08T12:29:40Z</time>
      </trkpt>
      <trkpt lat="44.27891" lon="6.72398">
        <ele>2347</ele>
        <time>2018-07-08T12:29:46Z</time>
      </trkpt>
      <trkpt lat="44.27892" lon="6.72406">
        <ele>2346</ele>
        <time>2018-07-08T12:29:52Z</time>
      </trkpt>
      <trkpt lat="44.27895" lon="6.72412">
        <ele>2346</ele>
        <time>2018-07-08T12:29:58Z</time>
      </trkpt>
      <trkpt lat="44.27899" lon="6.72418">
        <ele>2331</ele>
        <time>2018-07-08T12:30:04Z</time>
      </trkpt>
      <trkpt lat="44.27902" lon="6.72424">
        <ele>2332</ele>
        <time>2018-07-08T12:30:10Z</time>
      </trkpt>
      <trkpt lat="44.27907" lon="6.72431">
        <ele>2331</ele>
        <time>2018-07-08T12:30:16Z</time>
      </trkpt>
      <trkpt lat="44.27911" lon="6.72438">
        <ele>2328</ele>
        <time>2018-07-08T12:30:22Z</time>
      </trkpt>
      <trkpt lat="44.27914" lon="6.72442">
        <ele>2327</ele>
        <time>2018-07-08T12:30:26Z</time>
      </trkpt>
      <trkpt lat="44.27921" lon="6.72446">
        <ele>2348</ele>
        <time>2018-07-08T12:30:32Z</time>
      </trkpt>
      <trkpt lat="44.27927" lon="6.72447">
        <ele>2349</ele>
        <time>2018-07-08T12:30:38Z</time>
      </trkpt>
      <trkpt lat="44.2793" lon="6.72453">
        <ele>2348</ele>
        <time>2018-07-08T12:30:46Z</time>
      </trkpt>
      <trkpt lat="44.27931" lon="6.7246">
        <ele>2346</ele>
        <time>2018-07-08T12:30:52Z</time>
      </trkpt>
      <trkpt lat="44.27931" lon="6.72468">
        <ele>2344</ele>
        <time>2018-07-08T12:30:58Z</time>
      </trkpt>
      <trkpt lat="44.27932" lon="6.72474">
        <ele>2342</ele>
        <time>2018-07-08T12:31:04Z</time>
      </trkpt>
      <trkpt lat="44.27936" lon="6.7248">
        <ele>2341</ele>
        <time>2018-07-08T12:31:10Z</time>
      </trkpt>
      <trkpt lat="44.27937" lon="6.72486">
        <ele>2339</ele>
        <time>2018-07-08T12:31:14Z</time>
      </trkpt>
      <trkpt lat="44.27939" lon="6.72494">
        <ele>2338</ele>
        <time>2018-07-08T12:31:20Z</time>
      </trkpt>
      <trkpt lat="44.27942" lon="6.725">
        <ele>2326</ele>
        <time>2018-07-08T12:31:24Z</time>
      </trkpt>
      <trkpt lat="44.27947" lon="6.72503">
        <ele>2328</ele>
        <time>2018-07-08T12:31:30Z</time>
      </trkpt>
      <trkpt lat="44.27951" lon="6.72507">
        <ele>2329</ele>
        <time>2018-07-08T12:31:34Z</time>
      </trkpt>
      <trkpt lat="44.27954" lon="6.72513">
        <ele>2329</ele>
        <time>2018-07-08T12:31:40Z</time>
      </trkpt>
      <trkpt lat="44.27957" lon="6.72517">
        <ele>2330</ele>
        <time>2018-07-08T12:31:46Z</time>
      </trkpt>
      <trkpt lat="44.27962" lon="6.72521">
        <ele>2331</ele>
        <time>2018-07-08T12:31:52Z</time>
      </trkpt>
      <trkpt lat="44.27964" lon="6.72527">
        <ele>2331</ele>
        <time>2018-07-08T12:31:58Z</time>
      </trkpt>
      <trkpt lat="44.27963" lon="6.72536">
        <ele>2330</ele>
        <time>2018-07-08T12:32:04Z</time>
      </trkpt>
      <trkpt lat="44.27964" lon="6.72543">
        <ele>2329</ele>
        <time>2018-07-08T12:32:10Z</time>
      </trkpt>
      <trkpt lat="44.27965" lon="6.72551">
        <ele>2329</ele>
        <time>2018-07-08T12:32:16Z</time>
      </trkpt>
      <trkpt lat="44.27965" lon="6.72557">
        <ele>2328</ele>
        <time>2018-07-08T12:32:24Z</time>
      </trkpt>
      <trkpt lat="44.27965" lon="6.72565">
        <ele>2328</ele>
        <time>2018-07-08T12:32:30Z</time>
      </trkpt>
      <trkpt lat="44.27964" lon="6.72573">
        <ele>2327</ele>
        <time>2018-07-08T12:32:40Z</time>
      </trkpt>
      <trkpt lat="44.27963" lon="6.72581">
        <ele>2326</ele>
        <time>2018-07-08T12:32:46Z</time>
      </trkpt>
      <trkpt lat="44.27964" lon="6.72589">
        <ele>2316</ele>
        <time>2018-07-08T12:32:52Z</time>
      </trkpt>
      <trkpt lat="44.27967" lon="6.72596">
        <ele>2316</ele>
        <time>2018-07-08T12:32:58Z</time>
      </trkpt>
      <trkpt lat="44.2797" lon="6.72603">
        <ele>2316</ele>
        <time>2018-07-08T12:33:04Z</time>
      </trkpt>
      <trkpt lat="44.27965" lon="6.72604">
        <ele>2315</ele>
        <time>2018-07-08T12:33:18Z</time>
      </trkpt>
      <trkpt lat="44.27962" lon="6.72598">
        <ele>2314</ele>
        <time>2018-07-08T12:33:24Z</time>
      </trkpt>
      <trkpt lat="44.27958" lon="6.7259">
        <ele>2314</ele>
        <time>2018-07-08T12:33:30Z</time>
      </trkpt>
      <trkpt lat="44.27957" lon="6.72583">
        <ele>2324</ele>
        <time>2018-07-08T12:33:36Z</time>
      </trkpt>
      <trkpt lat="44.27955" lon="6.72576">
        <ele>2324</ele>
        <time>2018-07-08T12:33:42Z</time>
      </trkpt>
      <trkpt lat="44.27953" lon="6.72568">
        <ele>2324</ele>
        <time>2018-07-08T12:33:48Z</time>
      </trkpt>
      <trkpt lat="44.2795" lon="6.72563">
        <ele>2324</ele>
        <time>2018-07-08T12:33:54Z</time>
      </trkpt>
      <trkpt lat="44.27947" lon="6.72557">
        <ele>2324</ele>
        <time>2018-07-08T12:34:00Z</time>
      </trkpt>
      <trkpt lat="44.27946" lon="6.72549">
        <ele>2325</ele>
        <time>2018-07-08T12:34:06Z</time>
      </trkpt>
      <trkpt lat="44.27943" lon="6.72545">
        <ele>2325</ele>
        <time>2018-07-08T12:34:12Z</time>
      </trkpt>
      <trkpt lat="44.27938" lon="6.72546">
        <ele>2323</ele>
        <time>2018-07-08T12:34:24Z</time>
      </trkpt>
      <trkpt lat="44.27933" lon="6.72546">
        <ele>2323</ele>
        <time>2018-07-08T12:34:32Z</time>
      </trkpt>
      <trkpt lat="44.2793" lon="6.7254">
        <ele>2323</ele>
        <time>2018-07-08T12:34:38Z</time>
      </trkpt>
      <trkpt lat="44.27924" lon="6.7254">
        <ele>2322</ele>
        <time>2018-07-08T12:34:44Z</time>
      </trkpt>
      <trkpt lat="44.27918" lon="6.72539">
        <ele>2322</ele>
        <time>2018-07-08T12:34:50Z</time>
      </trkpt>
      <trkpt lat="44.27914" lon="6.72536">
        <ele>2299</ele>
        <time>2018-07-08T12:34:54Z</time>
      </trkpt>
      <trkpt lat="44.27911" lon="6.72529">
        <ele>2300</ele>
        <time>2018-07-08T12:35:00Z</time>
      </trkpt>
      <trkpt lat="44.27906" lon="6.72525">
        <ele>2300</ele>
        <time>2018-07-08T12:35:06Z</time>
      </trkpt>
      <trkpt lat="44.27901" lon="6.7252">
        <ele>2300</ele>
        <time>2018-07-08T12:35:12Z</time>
      </trkpt>
      <trkpt lat="44.27902" lon="6.72513">
        <ele>2302</ele>
        <time>2018-07-08T12:35:18Z</time>
      </trkpt>
      <trkpt lat="44.27898" lon="6.72508">
        <ele>2302</ele>
        <time>2018-07-08T12:35:24Z</time>
      </trkpt>
      <trkpt lat="44.27892" lon="6.72507">
        <ele>2300</ele>
        <time>2018-07-08T12:35:30Z</time>
      </trkpt>
      <trkpt lat="44.27886" lon="6.72506">
        <ele>2297</ele>
        <time>2018-07-08T12:35:36Z</time>
      </trkpt>
      <trkpt lat="44.27882" lon="6.72503">
        <ele>2296</ele>
        <time>2018-07-08T12:35:40Z</time>
      </trkpt>
      <trkpt lat="44.27877" lon="6.72497">
        <ele>2309</ele>
        <time>2018-07-08T12:35:46Z</time>
      </trkpt>
      <trkpt lat="44.27872" lon="6.72493">
        <ele>2308</ele>
        <time>2018-07-08T12:35:52Z</time>
      </trkpt>
      <trkpt lat="44.27868" lon="6.72487">
        <ele>2307</ele>
        <time>2018-07-08T12:35:58Z</time>
      </trkpt>
      <trkpt lat="44.27863" lon="6.7248">
        <ele>2307</ele>
        <time>2018-07-08T12:36:04Z</time>
      </trkpt>
      <trkpt lat="44.27857" lon="6.72477">
        <ele>2306</ele>
        <time>2018-07-08T12:36:10Z</time>
      </trkpt>
      <trkpt lat="44.27853" lon="6.72471">
        <ele>2306</ele>
        <time>2018-07-08T12:36:16Z</time>
      </trkpt>
      <trkpt lat="44.27847" lon="6.72468">
        <ele>2306</ele>
        <time>2018-07-08T12:36:22Z</time>
      </trkpt>
      <trkpt lat="44.2784" lon="6.72465">
        <ele>2306</ele>
        <time>2018-07-08T12:36:28Z</time>
      </trkpt>
      <trkpt lat="44.27838" lon="6.72458">
        <ele>2307</ele>
        <time>2018-07-08T12:36:34Z</time>
      </trkpt>
      <trkpt lat="44.27834" lon="6.72454">
        <ele>2308</ele>
        <time>2018-07-08T12:36:40Z</time>
      </trkpt>
      <trkpt lat="44.27829" lon="6.72452">
        <ele>2288</ele>
        <time>2018-07-08T12:36:46Z</time>
      </trkpt>
      <trkpt lat="44.27824" lon="6.72449">
        <ele>2288</ele>
        <time>2018-07-08T12:36:52Z</time>
      </trkpt>
      <trkpt lat="44.27818" lon="6.72448">
        <ele>2287</ele>
        <time>2018-07-08T12:36:58Z</time>
      </trkpt>
      <trkpt lat="44.27812" lon="6.72447">
        <ele>2286</ele>
        <time>2018-07-08T12:37:04Z</time>
      </trkpt>
      <trkpt lat="44.27807" lon="6.72444">
        <ele>2286</ele>
        <time>2018-07-08T12:37:10Z</time>
      </trkpt>
      <trkpt lat="44.27802" lon="6.72442">
        <ele>2285</ele>
        <time>2018-07-08T12:37:16Z</time>
      </trkpt>
      <trkpt lat="44.27805" lon="6.72447">
        <ele>2285</ele>
        <time>2018-07-08T12:37:26Z</time>
      </trkpt>
      <trkpt lat="44.27809" lon="6.72452">
        <ele>2285</ele>
        <time>2018-07-08T12:37:34Z</time>
      </trkpt>
      <trkpt lat="44.27812" lon="6.72458">
        <ele>2284</ele>
        <time>2018-07-08T12:37:42Z</time>
      </trkpt>
      <trkpt lat="44.27815" lon="6.72466">
        <ele>2283</ele>
        <time>2018-07-08T12:37:50Z</time>
      </trkpt>
      <trkpt lat="44.27817" lon="6.72473">
        <ele>2282</ele>
        <time>2018-07-08T12:37:56Z</time>
      </trkpt>
      <trkpt lat="44.27818" lon="6.72481">
        <ele>2281</ele>
        <time>2018-07-08T12:38:02Z</time>
      </trkpt>
      <trkpt lat="44.2782" lon="6.72487">
        <ele>2281</ele>
        <time>2018-07-08T12:38:08Z</time>
      </trkpt>
      <trkpt lat="44.27824" lon="6.72492">
        <ele>2281</ele>
        <time>2018-07-08T12:38:14Z</time>
      </trkpt>
      <trkpt lat="44.27828" lon="6.72497">
        <ele>2281</ele>
        <time>2018-07-08T12:38:20Z</time>
      </trkpt>
      <trkpt lat="44.2783" lon="6.72505">
        <ele>2277</ele>
        <time>2018-07-08T12:38:26Z</time>
      </trkpt>
      <trkpt lat="44.27832" lon="6.72511">
        <ele>2273</ele>
        <time>2018-07-08T12:38:30Z</time>
      </trkpt>
      <trkpt lat="44.27835" lon="6.72518">
        <ele>2285</ele>
        <time>2018-07-08T12:38:36Z</time>
      </trkpt>
      <trkpt lat="44.27837" lon="6.72525">
        <ele>2285</ele>
        <time>2018-07-08T12:38:42Z</time>
      </trkpt>
      <trkpt lat="44.27837" lon="6.72534">
        <ele>2285</ele>
        <time>2018-07-08T12:38:48Z</time>
      </trkpt>
      <trkpt lat="44.27839" lon="6.7254">
        <ele>2284</ele>
        <time>2018-07-08T12:38:52Z</time>
      </trkpt>
      <trkpt lat="44.27841" lon="6.72546">
        <ele>2284</ele>
        <time>2018-07-08T12:38:56Z</time>
      </trkpt>
      <trkpt lat="44.27844" lon="6.72554">
        <ele>2282</ele>
        <time>2018-07-08T12:39:02Z</time>
      </trkpt>
      <trkpt lat="44.27848" lon="6.72561">
        <ele>2281</ele>
        <time>2018-07-08T12:39:10Z</time>
      </trkpt>
      <trkpt lat="44.27851" lon="6.72565">
        <ele>2281</ele>
        <time>2018-07-08T12:39:16Z</time>
      </trkpt>
      <trkpt lat="44.27853" lon="6.72574">
        <ele>2280</ele>
        <time>2018-07-08T12:39:22Z</time>
      </trkpt>
      <trkpt lat="44.27853" lon="6.72582">
        <ele>2279</ele>
        <time>2018-07-08T12:39:26Z</time>
      </trkpt>
      <trkpt lat="44.27854" lon="6.72589">
        <ele>2271</ele>
        <time>2018-07-08T12:39:32Z</time>
      </trkpt>
      <trkpt lat="44.27856" lon="6.72595">
        <ele>2272</ele>
        <time>2018-07-08T12:39:38Z</time>
      </trkpt>
      <trkpt lat="44.27859" lon="6.726">
        <ele>2273</ele>
        <time>2018-07-08T12:39:44Z</time>
      </trkpt>
      <trkpt lat="44.27862" lon="6.72608">
        <ele>2273</ele>
        <time>2018-07-08T12:39:54Z</time>
      </trkpt>
      <trkpt lat="44.27864" lon="6.72614">
        <ele>2273</ele>
        <time>2018-07-08T12:40:00Z</time>
      </trkpt>
      <trkpt lat="44.27867" lon="6.72622">
        <ele>2273</ele>
        <time>2018-07-08T12:40:06Z</time>
      </trkpt>
      <trkpt lat="44.27867" lon="6.72629">
        <ele>2273</ele>
        <time>2018-07-08T12:40:12Z</time>
      </trkpt>
      <trkpt lat="44.27865" lon="6.72636">
        <ele>2271</ele>
        <time>2018-07-08T12:40:18Z</time>
      </trkpt>
      <trkpt lat="44.27867" lon="6.72643">
        <ele>2271</ele>
        <time>2018-07-08T12:40:24Z</time>
      </trkpt>
      <trkpt lat="44.27867" lon="6.7265">
        <ele>2270</ele>
        <time>2018-07-08T12:40:30Z</time>
      </trkpt>
      <trkpt lat="44.2787" lon="6.72656">
        <ele>2270</ele>
        <time>2018-07-08T12:40:36Z</time>
      </trkpt>
      <trkpt lat="44.27873" lon="6.72662">
        <ele>2271</ele>
        <time>2018-07-08T12:40:42Z</time>
      </trkpt>
      <trkpt lat="44.27873" lon="6.7267">
        <ele>2262</ele>
        <time>2018-07-08T12:40:48Z</time>
      </trkpt>
      <trkpt lat="44.27874" lon="6.72677">
        <ele>2262</ele>
        <time>2018-07-08T12:40:54Z</time>
      </trkpt>
      <trkpt lat="44.27876" lon="6.72684">
        <ele>2262</ele>
        <time>2018-07-08T12:41:00Z</time>
      </trkpt>
      <trkpt lat="44.27877" lon="6.7269">
        <ele>2262</ele>
        <time>2018-07-08T12:41:06Z</time>
      </trkpt>
      <trkpt lat="44.27878" lon="6.72696">
        <ele>2262</ele>
        <time>2018-07-08T12:41:12Z</time>
      </trkpt>
      <trkpt lat="44.2788" lon="6.72703">
        <ele>2262</ele>
        <time>2018-07-08T12:41:18Z</time>
      </trkpt>
      <trkpt lat="44.2788" lon="6.72711">
        <ele>2261</ele>
        <time>2018-07-08T12:41:24Z</time>
      </trkpt>
      <trkpt lat="44.27883" lon="6.72716">
        <ele>2261</ele>
        <time>2018-07-08T12:41:30Z</time>
      </trkpt>
      <trkpt lat="44.27887" lon="6.72723">
        <ele>2262</ele>
        <time>2018-07-08T12:41:36Z</time>
      </trkpt>
      <trkpt lat="44.27891" lon="6.7273">
        <ele>2262</ele>
        <time>2018-07-08T12:41:44Z</time>
      </trkpt>
      <trkpt lat="44.27892" lon="6.72738">
        <ele>2263</ele>
        <time>2018-07-08T12:41:50Z</time>
      </trkpt>
      <trkpt lat="44.27893" lon="6.72745">
        <ele>2263</ele>
        <time>2018-07-08T12:41:58Z</time>
      </trkpt>
      <trkpt lat="44.27895" lon="6.72753">
        <ele>2258</ele>
        <time>2018-07-08T12:42:04Z</time>
      </trkpt>
      <trkpt lat="44.27896" lon="6.7276">
        <ele>2257</ele>
        <time>2018-07-08T12:42:10Z</time>
      </trkpt>
      <trkpt lat="44.27897" lon="6.72766">
        <ele>2257</ele>
        <time>2018-07-08T12:42:14Z</time>
      </trkpt>
      <trkpt lat="44.27899" lon="6.72772">
        <ele>2256</ele>
        <time>2018-07-08T12:42:20Z</time>
      </trkpt>
      <trkpt lat="44.27901" lon="6.72779">
        <ele>2255</ele>
        <time>2018-07-08T12:42:24Z</time>
      </trkpt>
      <trkpt lat="44.27901" lon="6.72788">
        <ele>2254</ele>
        <time>2018-07-08T12:42:30Z</time>
      </trkpt>
      <trkpt lat="44.27902" lon="6.72794">
        <ele>2253</ele>
        <time>2018-07-08T12:42:34Z</time>
      </trkpt>
      <trkpt lat="44.27901" lon="6.72801">
        <ele>2253</ele>
        <time>2018-07-08T12:42:44Z</time>
      </trkpt>
      <trkpt lat="44.27902" lon="6.72809">
        <ele>2253</ele>
        <time>2018-07-08T12:42:50Z</time>
      </trkpt>
      <trkpt lat="44.27903" lon="6.72817">
        <ele>2254</ele>
        <time>2018-07-08T12:43:00Z</time>
      </trkpt>
      <trkpt lat="44.27903" lon="6.72823">
        <ele>2255</ele>
        <time>2018-07-08T12:43:08Z</time>
      </trkpt>
      <trkpt lat="44.27905" lon="6.72831">
        <ele>2256</ele>
        <time>2018-07-08T12:43:14Z</time>
      </trkpt>
      <trkpt lat="44.27909" lon="6.72836">
        <ele>2255</ele>
        <time>2018-07-08T12:43:18Z</time>
      </trkpt>
      <trkpt lat="44.27909" lon="6.72843">
        <ele>2252</ele>
        <time>2018-07-08T12:43:24Z</time>
      </trkpt>
      <trkpt lat="44.27909" lon="6.72851">
        <ele>2249</ele>
        <time>2018-07-08T12:43:30Z</time>
      </trkpt>
      <trkpt lat="44.27909" lon="6.72859">
        <ele>2246</ele>
        <time>2018-07-08T12:43:36Z</time>
      </trkpt>
      <trkpt lat="44.27911" lon="6.72866">
        <ele>2245</ele>
        <time>2018-07-08T12:43:44Z</time>
      </trkpt>
      <trkpt lat="44.27909" lon="6.72874">
        <ele>2244</ele>
        <time>2018-07-08T12:43:52Z</time>
      </trkpt>
      <trkpt lat="44.27909" lon="6.7288">
        <ele>2243</ele>
        <time>2018-07-08T12:43:58Z</time>
      </trkpt>
      <trkpt lat="44.27909" lon="6.72888">
        <ele>2243</ele>
        <time>2018-07-08T12:44:08Z</time>
      </trkpt>
      <trkpt lat="44.27912" lon="6.72896">
        <ele>2244</ele>
        <time>2018-07-08T12:44:12Z</time>
      </trkpt>
      <trkpt lat="44.27913" lon="6.72903">
        <ele>2245</ele>
        <time>2018-07-08T12:44:18Z</time>
      </trkpt>
      <trkpt lat="44.27913" lon="6.72909">
        <ele>2247</ele>
        <time>2018-07-08T12:44:24Z</time>
      </trkpt>
      <trkpt lat="44.27913" lon="6.72917">
        <ele>2247</ele>
        <time>2018-07-08T12:44:30Z</time>
      </trkpt>
      <trkpt lat="44.27913" lon="6.72924">
        <ele>2244</ele>
        <time>2018-07-08T12:44:34Z</time>
      </trkpt>
      <trkpt lat="44.2791" lon="6.72931">
        <ele>2239</ele>
        <time>2018-07-08T12:44:40Z</time>
      </trkpt>
      <trkpt lat="44.2791" lon="6.72939">
        <ele>2235</ele>
        <time>2018-07-08T12:44:46Z</time>
      </trkpt>
      <trkpt lat="44.27909" lon="6.72948">
        <ele>2232</ele>
        <time>2018-07-08T12:44:54Z</time>
      </trkpt>
      <trkpt lat="44.27911" lon="6.72955">
        <ele>2231</ele>
        <time>2018-07-08T12:45:00Z</time>
      </trkpt>
      <trkpt lat="44.27913" lon="6.72962">
        <ele>2230</ele>
        <time>2018-07-08T12:45:10Z</time>
      </trkpt>
      <trkpt lat="44.27913" lon="6.72968">
        <ele>2229</ele>
        <time>2018-07-08T12:45:16Z</time>
      </trkpt>
      <trkpt lat="44.27914" lon="6.72976">
        <ele>2229</ele>
        <time>2018-07-08T12:45:20Z</time>
      </trkpt>
      <trkpt lat="44.27913" lon="6.72982">
        <ele>2229</ele>
        <time>2018-07-08T12:45:26Z</time>
      </trkpt>
      <trkpt lat="44.27913" lon="6.72989">
        <ele>2229</ele>
        <time>2018-07-08T12:45:32Z</time>
      </trkpt>
      <trkpt lat="44.27914" lon="6.72995">
        <ele>2229</ele>
        <time>2018-07-08T12:45:36Z</time>
      </trkpt>
      <trkpt lat="44.27918" lon="6.73001">
        <ele>2231</ele>
        <time>2018-07-08T12:45:42Z</time>
      </trkpt>
      <trkpt lat="44.27922" lon="6.73009">
        <ele>2233</ele>
        <time>2018-07-08T12:45:48Z</time>
      </trkpt>
      <trkpt lat="44.27926" lon="6.7302">
        <ele>2235</ele>
        <time>2018-07-08T12:45:56Z</time>
      </trkpt>
      <trkpt lat="44.27929" lon="6.73027">
        <ele>2235</ele>
        <time>2018-07-08T12:46:00Z</time>
      </trkpt>
      <trkpt lat="44.27931" lon="6.73035">
        <ele>2235</ele>
        <time>2018-07-08T12:46:04Z</time>
      </trkpt>
      <trkpt lat="44.27934" lon="6.73041">
        <ele>2235</ele>
        <time>2018-07-08T12:46:08Z</time>
      </trkpt>
      <trkpt lat="44.27938" lon="6.73047">
        <ele>2235</ele>
        <time>2018-07-08T12:46:12Z</time>
      </trkpt>
      <trkpt lat="44.2794" lon="6.73054">
        <ele>2234</ele>
        <time>2018-07-08T12:46:18Z</time>
      </trkpt>
      <trkpt lat="44.2794" lon="6.7306">
        <ele>2233</ele>
        <time>2018-07-08T12:46:24Z</time>
      </trkpt>
      <trkpt lat="44.27937" lon="6.73066">
        <ele>2230</ele>
        <time>2018-07-08T12:46:30Z</time>
      </trkpt>
      <trkpt lat="44.27935" lon="6.73072">
        <ele>2228</ele>
        <time>2018-07-08T12:46:36Z</time>
      </trkpt>
      <trkpt lat="44.27935" lon="6.73079">
        <ele>2226</ele>
        <time>2018-07-08T12:46:42Z</time>
      </trkpt>
      <trkpt lat="44.27935" lon="6.73087">
        <ele>2219</ele>
        <time>2018-07-08T12:46:50Z</time>
      </trkpt>
      <trkpt lat="44.27933" lon="6.73094">
        <ele>2219</ele>
        <time>2018-07-08T12:46:58Z</time>
      </trkpt>
      <trkpt lat="44.27931" lon="6.73101">
        <ele>2219</ele>
        <time>2018-07-08T12:47:06Z</time>
      </trkpt>
      <trkpt lat="44.2793" lon="6.73109">
        <ele>2219</ele>
        <time>2018-07-08T12:47:14Z</time>
      </trkpt>
      <trkpt lat="44.27928" lon="6.73116">
        <ele>2219</ele>
        <time>2018-07-08T12:47:20Z</time>
      </trkpt>
      <trkpt lat="44.27927" lon="6.73123">
        <ele>2219</ele>
        <time>2018-07-08T12:47:26Z</time>
      </trkpt>
      <trkpt lat="44.27923" lon="6.73129">
        <ele>2218</ele>
        <time>2018-07-08T12:47:32Z</time>
      </trkpt>
      <trkpt lat="44.2792" lon="6.73134">
        <ele>2216</ele>
        <time>2018-07-08T12:47:38Z</time>
      </trkpt>
      <trkpt lat="44.27915" lon="6.73138">
        <ele>2200</ele>
        <time>2018-07-08T12:47:44Z</time>
      </trkpt>
      <trkpt lat="44.27913" lon="6.73144">
        <ele>2199</ele>
        <time>2018-07-08T12:47:50Z</time>
      </trkpt>
      <trkpt lat="44.27909" lon="6.73148">
        <ele>2199</ele>
        <time>2018-07-08T12:47:56Z</time>
      </trkpt>
      <trkpt lat="44.27905" lon="6.73155">
        <ele>2199</ele>
        <time>2018-07-08T12:48:04Z</time>
      </trkpt>
      <trkpt lat="44.27905" lon="6.73162">
        <ele>2199</ele>
        <time>2018-07-08T12:48:10Z</time>
      </trkpt>
      <trkpt lat="44.27905" lon="6.73169">
        <ele>2195</ele>
        <time>2018-07-08T12:48:16Z</time>
      </trkpt>
      <trkpt lat="44.27906" lon="6.73177">
        <ele>2194</ele>
        <time>2018-07-08T12:48:22Z</time>
      </trkpt>
      <trkpt lat="44.27906" lon="6.73184">
        <ele>2192</ele>
        <time>2018-07-08T12:48:32Z</time>
      </trkpt>
      <trkpt lat="44.27908" lon="6.73191">
        <ele>2191</ele>
        <time>2018-07-08T12:48:40Z</time>
      </trkpt>
      <trkpt lat="44.2791" lon="6.73198">
        <ele>2190</ele>
        <time>2018-07-08T12:48:48Z</time>
      </trkpt>
      <trkpt lat="44.27912" lon="6.73205">
        <ele>2189</ele>
        <time>2018-07-08T12:48:54Z</time>
      </trkpt>
      <trkpt lat="44.27916" lon="6.73209">
        <ele>2188</ele>
        <time>2018-07-08T12:49:04Z</time>
      </trkpt>
      <trkpt lat="44.2792" lon="6.73214">
        <ele>2203</ele>
        <time>2018-07-08T12:49:14Z</time>
      </trkpt>
      <trkpt lat="44.27924" lon="6.73221">
        <ele>2201</ele>
        <time>2018-07-08T12:49:24Z</time>
      </trkpt>
      <trkpt lat="44.27926" lon="6.73228">
        <ele>2200</ele>
        <time>2018-07-08T12:49:32Z</time>
      </trkpt>
      <trkpt lat="44.27927" lon="6.73237">
        <ele>2197</ele>
        <time>2018-07-08T12:49:38Z</time>
      </trkpt>
      <trkpt lat="44.27927" lon="6.73244">
        <ele>2194</ele>
        <time>2018-07-08T12:49:42Z</time>
      </trkpt>
      <trkpt lat="44.27926" lon="6.73251">
        <ele>2187</ele>
        <time>2018-07-08T12:49:50Z</time>
      </trkpt>
      <trkpt lat="44.27924" lon="6.73258">
        <ele>2187</ele>
        <time>2018-07-08T12:50:06Z</time>
      </trkpt>
      <trkpt lat="44.27921" lon="6.73263">
        <ele>2187</ele>
        <time>2018-07-08T12:50:12Z</time>
      </trkpt>
      <trkpt lat="44.27917" lon="6.73267">
        <ele>2186</ele>
        <time>2018-07-08T12:50:18Z</time>
      </trkpt>
      <trkpt lat="44.27911" lon="6.73267">
        <ele>2178</ele>
        <time>2018-07-08T12:50:24Z</time>
      </trkpt>
      <trkpt lat="44.27907" lon="6.73269">
        <ele>2177</ele>
        <time>2018-07-08T12:50:48Z</time>
      </trkpt>
      <trkpt lat="44.27904" lon="6.73265">
        <ele>2178</ele>
        <time>2018-07-08T12:52:10Z</time>
      </trkpt>
      <trkpt lat="44.27903" lon="6.73258">
        <ele>2179</ele>
        <time>2018-07-08T12:52:16Z</time>
      </trkpt>
      <trkpt lat="44.279" lon="6.73252">
        <ele>2179</ele>
        <time>2018-07-08T12:52:22Z</time>
      </trkpt>
      <trkpt lat="44.27898" lon="6.73245">
        <ele>2185</ele>
        <time>2018-07-08T12:52:28Z</time>
      </trkpt>
      <trkpt lat="44.27895" lon="6.73239">
        <ele>2185</ele>
        <time>2018-07-08T12:52:34Z</time>
      </trkpt>
      <trkpt lat="44.27892" lon="6.73233">
        <ele>2185</ele>
        <time>2018-07-08T12:52:40Z</time>
      </trkpt>
      <trkpt lat="44.27889" lon="6.73224">
        <ele>2185</ele>
        <time>2018-07-08T12:52:46Z</time>
      </trkpt>
      <trkpt lat="44.27887" lon="6.73219">
        <ele>2186</ele>
        <time>2018-07-08T12:52:50Z</time>
      </trkpt>
      <trkpt lat="44.27885" lon="6.73212">
        <ele>2186</ele>
        <time>2018-07-08T12:52:56Z</time>
      </trkpt>
      <trkpt lat="44.27882" lon="6.73205">
        <ele>2186</ele>
        <time>2018-07-08T12:53:02Z</time>
      </trkpt>
      <trkpt lat="44.2788" lon="6.73196">
        <ele>2187</ele>
        <time>2018-07-08T12:53:08Z</time>
      </trkpt>
      <trkpt lat="44.27878" lon="6.73188">
        <ele>2187</ele>
        <time>2018-07-08T12:53:14Z</time>
      </trkpt>
      <trkpt lat="44.27875" lon="6.73181">
        <ele>2187</ele>
        <time>2018-07-08T12:53:20Z</time>
      </trkpt>
      <trkpt lat="44.2787" lon="6.73178">
        <ele>2187</ele>
        <time>2018-07-08T12:53:26Z</time>
      </trkpt>
      <trkpt lat="44.27867" lon="6.73182">
        <ele>2186</ele>
        <time>2018-07-08T12:53:32Z</time>
      </trkpt>
      <trkpt lat="44.27867" lon="6.73189">
        <ele>2186</ele>
        <time>2018-07-08T12:53:38Z</time>
      </trkpt>
      <trkpt lat="44.2787" lon="6.73195">
        <ele>2186</ele>
        <time>2018-07-08T12:53:44Z</time>
      </trkpt>
      <trkpt lat="44.27872" lon="6.73202">
        <ele>2186</ele>
        <time>2018-07-08T12:53:50Z</time>
      </trkpt>
      <trkpt lat="44.27872" lon="6.73209">
        <ele>2185</ele>
        <time>2018-07-08T12:53:56Z</time>
      </trkpt>
      <trkpt lat="44.27874" lon="6.73217">
        <ele>2185</ele>
        <time>2018-07-08T12:54:02Z</time>
      </trkpt>
      <trkpt lat="44.27876" lon="6.73225">
        <ele>2184</ele>
        <time>2018-07-08T12:54:06Z</time>
      </trkpt>
      <trkpt lat="44.27878" lon="6.73232">
        <ele>2184</ele>
        <time>2018-07-08T12:54:12Z</time>
      </trkpt>
      <trkpt lat="44.27879" lon="6.73239">
        <ele>2184</ele>
        <time>2018-07-08T12:54:18Z</time>
      </trkpt>
      <trkpt lat="44.2788" lon="6.73245">
        <ele>2184</ele>
        <time>2018-07-08T12:54:24Z</time>
      </trkpt>
      <trkpt lat="44.27881" lon="6.73252">
        <ele>2176</ele>
        <time>2018-07-08T12:54:32Z</time>
      </trkpt>
      <trkpt lat="44.27882" lon="6.73258">
        <ele>2176</ele>
        <time>2018-07-08T12:54:36Z</time>
      </trkpt>
      <trkpt lat="44.27883" lon="6.73267">
        <ele>2175</ele>
        <time>2018-07-08T12:54:42Z</time>
      </trkpt>
      <trkpt lat="44.27884" lon="6.73274">
        <ele>2175</ele>
        <time>2018-07-08T12:54:48Z</time>
      </trkpt>
      <trkpt lat="44.27884" lon="6.73282">
        <ele>2174</ele>
        <time>2018-07-08T12:55:16Z</time>
      </trkpt>
      <trkpt lat="44.27888" lon="6.7329">
        <ele>2173</ele>
        <time>2018-07-08T12:55:22Z</time>
      </trkpt>
      <trkpt lat="44.2789" lon="6.73297">
        <ele>2173</ele>
        <time>2018-07-08T12:55:28Z</time>
      </trkpt>
      <trkpt lat="44.27891" lon="6.73305">
        <ele>2172</ele>
        <time>2018-07-08T12:55:34Z</time>
      </trkpt>
      <trkpt lat="44.27893" lon="6.73311">
        <ele>2171</ele>
        <time>2018-07-08T12:55:40Z</time>
      </trkpt>
      <trkpt lat="44.27897" lon="6.73315">
        <ele>2170</ele>
        <time>2018-07-08T12:55:46Z</time>
      </trkpt>
      <trkpt lat="44.27902" lon="6.73319">
        <ele>2169</ele>
        <time>2018-07-08T12:55:52Z</time>
      </trkpt>
      <trkpt lat="44.27907" lon="6.73321">
        <ele>2168</ele>
        <time>2018-07-08T12:55:58Z</time>
      </trkpt>
      <trkpt lat="44.27912" lon="6.73323">
        <ele>2167</ele>
        <time>2018-07-08T12:56:02Z</time>
      </trkpt>
      <trkpt lat="44.27917" lon="6.73325">
        <ele>2171</ele>
        <time>2018-07-08T12:56:08Z</time>
      </trkpt>
      <trkpt lat="44.27922" lon="6.73327">
        <ele>2171</ele>
        <time>2018-07-08T12:56:14Z</time>
      </trkpt>
      <trkpt lat="44.27927" lon="6.73331">
        <ele>2172</ele>
        <time>2018-07-08T12:56:20Z</time>
      </trkpt>
      <trkpt lat="44.27933" lon="6.73334">
        <ele>2166</ele>
        <time>2018-07-08T12:56:28Z</time>
      </trkpt>
      <trkpt lat="44.27937" lon="6.73341">
        <ele>2167</ele>
        <time>2018-07-08T12:56:34Z</time>
      </trkpt>
      <trkpt lat="44.27938" lon="6.73348">
        <ele>2167</ele>
        <time>2018-07-08T12:56:40Z</time>
      </trkpt>
      <trkpt lat="44.2794" lon="6.73354">
        <ele>2167</ele>
        <time>2018-07-08T12:56:44Z</time>
      </trkpt>
      <trkpt lat="44.27944" lon="6.73361">
        <ele>2167</ele>
        <time>2018-07-08T12:56:50Z</time>
      </trkpt>
      <trkpt lat="44.27946" lon="6.73367">
        <ele>2167</ele>
        <time>2018-07-08T12:56:54Z</time>
      </trkpt>
      <trkpt lat="44.27948" lon="6.73376">
        <ele>2167</ele>
        <time>2018-07-08T12:57:00Z</time>
      </trkpt>
      <trkpt lat="44.27951" lon="6.73383">
        <ele>2166</ele>
        <time>2018-07-08T12:57:06Z</time>
      </trkpt>
      <trkpt lat="44.27953" lon="6.73389">
        <ele>2166</ele>
        <time>2018-07-08T12:57:10Z</time>
      </trkpt>
      <trkpt lat="44.27957" lon="6.73395">
        <ele>2166</ele>
        <time>2018-07-08T12:57:16Z</time>
      </trkpt>
      <trkpt lat="44.27961" lon="6.73402">
        <ele>2166</ele>
        <time>2018-07-08T12:57:22Z</time>
      </trkpt>
      <trkpt lat="44.27962" lon="6.73409">
        <ele>2166</ele>
        <time>2018-07-08T12:57:28Z</time>
      </trkpt>
      <trkpt lat="44.27964" lon="6.73415">
        <ele>2166</ele>
        <time>2018-07-08T12:57:32Z</time>
      </trkpt>
      <trkpt lat="44.27966" lon="6.73422">
        <ele>2156</ele>
        <time>2018-07-08T12:57:38Z</time>
      </trkpt>
      <trkpt lat="44.27967" lon="6.73429">
        <ele>2156</ele>
        <time>2018-07-08T12:57:44Z</time>
      </trkpt>
      <trkpt lat="44.2797" lon="6.73437">
        <ele>2156</ele>
        <time>2018-07-08T12:57:50Z</time>
      </trkpt>
      <trkpt lat="44.27974" lon="6.73441">
        <ele>2156</ele>
        <time>2018-07-08T12:57:56Z</time>
      </trkpt>
      <trkpt lat="44.27978" lon="6.73446">
        <ele>2156</ele>
        <time>2018-07-08T12:58:00Z</time>
      </trkpt>
      <trkpt lat="44.2798" lon="6.73452">
        <ele>2155</ele>
        <time>2018-07-08T12:58:06Z</time>
      </trkpt>
      <trkpt lat="44.27983" lon="6.73459">
        <ele>2154</ele>
        <time>2018-07-08T12:58:12Z</time>
      </trkpt>
      <trkpt lat="44.27984" lon="6.73468">
        <ele>2153</ele>
        <time>2018-07-08T12:58:18Z</time>
      </trkpt>
      <trkpt lat="44.27985" lon="6.73474">
        <ele>2153</ele>
        <time>2018-07-08T12:58:24Z</time>
      </trkpt>
      <trkpt lat="44.27986" lon="6.73482">
        <ele>2152</ele>
        <time>2018-07-08T12:58:30Z</time>
      </trkpt>
      <trkpt lat="44.27989" lon="6.73491">
        <ele>2152</ele>
        <time>2018-07-08T12:58:36Z</time>
      </trkpt>
      <trkpt lat="44.2799" lon="6.73497">
        <ele>2151</ele>
        <time>2018-07-08T12:58:42Z</time>
      </trkpt>
      <trkpt lat="44.27991" lon="6.73504">
        <ele>2147</ele>
        <time>2018-07-08T12:58:48Z</time>
      </trkpt>
      <trkpt lat="44.2799" lon="6.7351">
        <ele>2146</ele>
        <time>2018-07-08T12:58:56Z</time>
      </trkpt>
      <trkpt lat="44.2799" lon="6.73519">
        <ele>2144</ele>
        <time>2018-07-08T12:59:02Z</time>
      </trkpt>
      <trkpt lat="44.27988" lon="6.73528">
        <ele>2142</ele>
        <time>2018-07-08T12:59:10Z</time>
      </trkpt>
      <trkpt lat="44.27989" lon="6.73534">
        <ele>2142</ele>
        <time>2018-07-08T12:59:14Z</time>
      </trkpt>
      <trkpt lat="44.27989" lon="6.73542">
        <ele>2141</ele>
        <time>2018-07-08T12:59:20Z</time>
      </trkpt>
      <trkpt lat="44.27987" lon="6.73548">
        <ele>2140</ele>
        <time>2018-07-08T12:59:26Z</time>
      </trkpt>
      <trkpt lat="44.27989" lon="6.73555">
        <ele>2139</ele>
        <time>2018-07-08T12:59:30Z</time>
      </trkpt>
      <trkpt lat="44.2799" lon="6.73565">
        <ele>2138</ele>
        <time>2018-07-08T12:59:36Z</time>
      </trkpt>
      <trkpt lat="44.27991" lon="6.73571">
        <ele>2138</ele>
        <time>2018-07-08T12:59:40Z</time>
      </trkpt>
      <trkpt lat="44.2799" lon="6.7358">
        <ele>2137</ele>
        <time>2018-07-08T12:59:46Z</time>
      </trkpt>
      <trkpt lat="44.2799" lon="6.73588">
        <ele>2134</ele>
        <time>2018-07-08T12:59:52Z</time>
      </trkpt>
      <trkpt lat="44.2799" lon="6.73596">
        <ele>2133</ele>
        <time>2018-07-08T12:59:58Z</time>
      </trkpt>
      <trkpt lat="44.27989" lon="6.73604">
        <ele>2132</ele>
        <time>2018-07-08T13:00:02Z</time>
      </trkpt>
      <trkpt lat="44.27987" lon="6.73611">
        <ele>2131</ele>
        <time>2018-07-08T13:00:08Z</time>
      </trkpt>
      <trkpt lat="44.27987" lon="6.73618">
        <ele>2130</ele>
        <time>2018-07-08T13:00:14Z</time>
      </trkpt>
      <trkpt lat="44.27984" lon="6.73624">
        <ele>2130</ele>
        <time>2018-07-08T13:00:18Z</time>
      </trkpt>
      <trkpt lat="44.27983" lon="6.73631">
        <ele>2129</ele>
        <time>2018-07-08T13:00:22Z</time>
      </trkpt>
      <trkpt lat="44.27983" lon="6.73637">
        <ele>2129</ele>
        <time>2018-07-08T13:00:26Z</time>
      </trkpt>
      <trkpt lat="44.2798" lon="6.73644">
        <ele>2129</ele>
        <time>2018-07-08T13:00:30Z</time>
      </trkpt>
      <trkpt lat="44.27979" lon="6.73651">
        <ele>2128</ele>
        <time>2018-07-08T13:00:34Z</time>
      </trkpt>
      <trkpt lat="44.27977" lon="6.7366">
        <ele>2128</ele>
        <time>2018-07-08T13:00:40Z</time>
      </trkpt>
      <trkpt lat="44.27975" lon="6.73667">
        <ele>2125</ele>
        <time>2018-07-08T13:00:46Z</time>
      </trkpt>
      <trkpt lat="44.27973" lon="6.73675">
        <ele>2125</ele>
        <time>2018-07-08T13:00:52Z</time>
      </trkpt>
      <trkpt lat="44.27973" lon="6.73682">
        <ele>2125</ele>
        <time>2018-07-08T13:00:56Z</time>
      </trkpt>
      <trkpt lat="44.27973" lon="6.7369">
        <ele>2125</ele>
        <time>2018-07-08T13:01:02Z</time>
      </trkpt>
      <trkpt lat="44.27972" lon="6.73697">
        <ele>2125</ele>
        <time>2018-07-08T13:01:06Z</time>
      </trkpt>
      <trkpt lat="44.27972" lon="6.73704">
        <ele>2125</ele>
        <time>2018-07-08T13:01:12Z</time>
      </trkpt>
      <trkpt lat="44.27971" lon="6.73713">
        <ele>2125</ele>
        <time>2018-07-08T13:01:18Z</time>
      </trkpt>
      <trkpt lat="44.27972" lon="6.73721">
        <ele>2125</ele>
        <time>2018-07-08T13:01:22Z</time>
      </trkpt>
      <trkpt lat="44.2797" lon="6.73729">
        <ele>2125</ele>
        <time>2018-07-08T13:01:26Z</time>
      </trkpt>
      <trkpt lat="44.2797" lon="6.73735">
        <ele>2125</ele>
        <time>2018-07-08T13:01:30Z</time>
      </trkpt>
      <trkpt lat="44.27969" lon="6.73741">
        <ele>2125</ele>
        <time>2018-07-08T13:01:34Z</time>
      </trkpt>
      <trkpt lat="44.27967" lon="6.73748">
        <ele>2125</ele>
        <time>2018-07-08T13:01:38Z</time>
      </trkpt>
      <trkpt lat="44.27965" lon="6.73753">
        <ele>2122</ele>
        <time>2018-07-08T13:01:42Z</time>
      </trkpt>
      <trkpt lat="44.27966" lon="6.7376">
        <ele>2122</ele>
        <time>2018-07-08T13:01:48Z</time>
      </trkpt>
      <trkpt lat="44.27968" lon="6.73768">
        <ele>2122</ele>
        <time>2018-07-08T13:01:54Z</time>
      </trkpt>
      <trkpt lat="44.2797" lon="6.73777">
        <ele>2122</ele>
        <time>2018-07-08T13:02:00Z</time>
      </trkpt>
      <trkpt lat="44.27972" lon="6.73783">
        <ele>2122</ele>
        <time>2018-07-08T13:02:06Z</time>
      </trkpt>
      <trkpt lat="44.27973" lon="6.73792">
        <ele>2121</ele>
        <time>2018-07-08T13:02:12Z</time>
      </trkpt>
      <trkpt lat="44.27975" lon="6.738">
        <ele>2121</ele>
        <time>2018-07-08T13:02:18Z</time>
      </trkpt>
      <trkpt lat="44.27977" lon="6.73809">
        <ele>2121</ele>
        <time>2018-07-08T13:02:24Z</time>
      </trkpt>
      <trkpt lat="44.27977" lon="6.73815">
        <ele>2121</ele>
        <time>2018-07-08T13:02:28Z</time>
      </trkpt>
      <trkpt lat="44.27977" lon="6.73823">
        <ele>2120</ele>
        <time>2018-07-08T13:02:34Z</time>
      </trkpt>
      <trkpt lat="44.27978" lon="6.7383">
        <ele>2120</ele>
        <time>2018-07-08T13:02:46Z</time>
      </trkpt>
      <trkpt lat="44.27977" lon="6.73839">
        <ele>2113</ele>
        <time>2018-07-08T13:02:52Z</time>
      </trkpt>
      <trkpt lat="44.27977" lon="6.73846">
        <ele>2112</ele>
        <time>2018-07-08T13:02:58Z</time>
      </trkpt>
      <trkpt lat="44.27977" lon="6.73854">
        <ele>2111</ele>
        <time>2018-07-08T13:03:04Z</time>
      </trkpt>
      <trkpt lat="44.27977" lon="6.7386">
        <ele>2110</ele>
        <time>2018-07-08T13:03:08Z</time>
      </trkpt>
      <trkpt lat="44.27978" lon="6.73867">
        <ele>2109</ele>
        <time>2018-07-08T13:03:14Z</time>
      </trkpt>
      <trkpt lat="44.2798" lon="6.73875">
        <ele>2107</ele>
        <time>2018-07-08T13:03:20Z</time>
      </trkpt>
      <trkpt lat="44.27984" lon="6.73881">
        <ele>2106</ele>
        <time>2018-07-08T13:03:26Z</time>
      </trkpt>
      <trkpt lat="44.27988" lon="6.73888">
        <ele>2104</ele>
        <time>2018-07-08T13:03:32Z</time>
      </trkpt>
      <trkpt lat="44.27991" lon="6.73894">
        <ele>2102</ele>
        <time>2018-07-08T13:03:36Z</time>
      </trkpt>
      <trkpt lat="44.27994" lon="6.73902">
        <ele>2098</ele>
        <time>2018-07-08T13:03:42Z</time>
      </trkpt>
      <trkpt lat="44.27997" lon="6.73909">
        <ele>2095</ele>
        <time>2018-07-08T13:03:48Z</time>
      </trkpt>
      <trkpt lat="44.28" lon="6.73914">
        <ele>2094</ele>
        <time>2018-07-08T13:03:52Z</time>
      </trkpt>
      <trkpt lat="44.28003" lon="6.73919">
        <ele>2091</ele>
        <time>2018-07-08T13:03:56Z</time>
      </trkpt>
      <trkpt lat="44.28004" lon="6.73925">
        <ele>2093</ele>
        <time>2018-07-08T13:04:00Z</time>
      </trkpt>
      <trkpt lat="44.28006" lon="6.73933">
        <ele>2095</ele>
        <time>2018-07-08T13:04:04Z</time>
      </trkpt>
      <trkpt lat="44.28007" lon="6.73939">
        <ele>2096</ele>
        <time>2018-07-08T13:04:10Z</time>
      </trkpt>
      <trkpt lat="44.28009" lon="6.73947">
        <ele>2096</ele>
        <time>2018-07-08T13:04:16Z</time>
      </trkpt>
      <trkpt lat="44.28012" lon="6.73955">
        <ele>2096</ele>
        <time>2018-07-08T13:04:22Z</time>
      </trkpt>
      <trkpt lat="44.28015" lon="6.73962">
        <ele>2096</ele>
        <time>2018-07-08T13:04:26Z</time>
      </trkpt>
      <trkpt lat="44.28017" lon="6.73969">
        <ele>2096</ele>
        <time>2018-07-08T13:04:32Z</time>
      </trkpt>
      <trkpt lat="44.28019" lon="6.73976">
        <ele>2095</ele>
        <time>2018-07-08T13:04:38Z</time>
      </trkpt>
      <trkpt lat="44.28022" lon="6.73984">
        <ele>2094</ele>
        <time>2018-07-08T13:04:44Z</time>
      </trkpt>
      <trkpt lat="44.28024" lon="6.73991">
        <ele>2093</ele>
        <time>2018-07-08T13:04:50Z</time>
      </trkpt>
      <trkpt lat="44.28027" lon="6.73999">
        <ele>2094</ele>
        <time>2018-07-08T13:04:56Z</time>
      </trkpt>
      <trkpt lat="44.28028" lon="6.74005">
        <ele>2083</ele>
        <time>2018-07-08T13:05:02Z</time>
      </trkpt>
      <trkpt lat="44.2803" lon="6.74013">
        <ele>2083</ele>
        <time>2018-07-08T13:05:08Z</time>
      </trkpt>
      <trkpt lat="44.28033" lon="6.74019">
        <ele>2083</ele>
        <time>2018-07-08T13:05:14Z</time>
      </trkpt>
      <trkpt lat="44.28036" lon="6.74026">
        <ele>2082</ele>
        <time>2018-07-08T13:05:18Z</time>
      </trkpt>
      <trkpt lat="44.28036" lon="6.74032">
        <ele>2082</ele>
        <time>2018-07-08T13:05:22Z</time>
      </trkpt>
      <trkpt lat="44.28038" lon="6.7404">
        <ele>2081</ele>
        <time>2018-07-08T13:05:26Z</time>
      </trkpt>
      <trkpt lat="44.28039" lon="6.74046">
        <ele>2081</ele>
        <time>2018-07-08T13:05:30Z</time>
      </trkpt>
      <trkpt lat="44.28041" lon="6.74054">
        <ele>2080</ele>
        <time>2018-07-08T13:05:36Z</time>
      </trkpt>
      <trkpt lat="44.28042" lon="6.74061">
        <ele>2080</ele>
        <time>2018-07-08T13:05:42Z</time>
      </trkpt>
      <trkpt lat="44.28043" lon="6.74069">
        <ele>2079</ele>
        <time>2018-07-08T13:05:48Z</time>
      </trkpt>
      <trkpt lat="44.28044" lon="6.74076">
        <ele>2079</ele>
        <time>2018-07-08T13:05:54Z</time>
      </trkpt>
      <trkpt lat="44.28045" lon="6.74083">
        <ele>2079</ele>
        <time>2018-07-08T13:05:58Z</time>
      </trkpt>
      <trkpt lat="44.28045" lon="6.74089">
        <ele>2071</ele>
        <time>2018-07-08T13:06:02Z</time>
      </trkpt>
      <trkpt lat="44.28044" lon="6.74098">
        <ele>2071</ele>
        <time>2018-07-08T13:06:08Z</time>
      </trkpt>
      <trkpt lat="44.28043" lon="6.74105">
        <ele>2070</ele>
        <time>2018-07-08T13:06:12Z</time>
      </trkpt>
      <trkpt lat="44.28042" lon="6.74115">
        <ele>2070</ele>
        <time>2018-07-08T13:06:18Z</time>
      </trkpt>
      <trkpt lat="44.28042" lon="6.74121">
        <ele>2069</ele>
        <time>2018-07-08T13:06:22Z</time>
      </trkpt>
      <trkpt lat="44.2804" lon="6.7413">
        <ele>2069</ele>
        <time>2018-07-08T13:06:28Z</time>
      </trkpt>
      <trkpt lat="44.28039" lon="6.74136">
        <ele>2069</ele>
        <time>2018-07-08T13:06:32Z</time>
      </trkpt>
      <trkpt lat="44.28036" lon="6.74143">
        <ele>2068</ele>
        <time>2018-07-08T13:06:38Z</time>
      </trkpt>
      <trkpt lat="44.28032" lon="6.74148">
        <ele>2068</ele>
        <time>2018-07-08T13:06:44Z</time>
      </trkpt>
      <trkpt lat="44.28028" lon="6.74154">
        <ele>2067</ele>
        <time>2018-07-08T13:06:50Z</time>
      </trkpt>
      <trkpt lat="44.28023" lon="6.7415">
        <ele>2067</ele>
        <time>2018-07-08T13:06:56Z</time>
      </trkpt>
      <trkpt lat="44.28018" lon="6.74148">
        <ele>2067</ele>
        <time>2018-07-08T13:07:02Z</time>
      </trkpt>
      <trkpt lat="44.28012" lon="6.74144">
        <ele>2067</ele>
        <time>2018-07-08T13:07:10Z</time>
      </trkpt>
      <trkpt lat="44.28008" lon="6.74142">
        <ele>2067</ele>
        <time>2018-07-08T13:07:16Z</time>
      </trkpt>
      <trkpt lat="44.28002" lon="6.74139">
        <ele>2067</ele>
        <time>2018-07-08T13:07:22Z</time>
      </trkpt>
      <trkpt lat="44.27997" lon="6.74136">
        <ele>2072</ele>
        <time>2018-07-08T13:07:28Z</time>
      </trkpt>
      <trkpt lat="44.27991" lon="6.74136">
        <ele>2073</ele>
        <time>2018-07-08T13:07:36Z</time>
      </trkpt>
      <trkpt lat="44.27986" lon="6.74137">
        <ele>2073</ele>
        <time>2018-07-08T13:07:44Z</time>
      </trkpt>
      <trkpt lat="44.27982" lon="6.7414">
        <ele>2073</ele>
        <time>2018-07-08T13:08:00Z</time>
      </trkpt>
      <trkpt lat="44.27978" lon="6.74144">
        <ele>2073</ele>
        <time>2018-07-08T13:10:10Z</time>
      </trkpt>
    </trkseg>
  </trk>
</gpx>